[[{"header":{"parameterUnit":"m.s-1","parameterCategory":1,"la1":30.6,"la2":28.766,"lo1":-90.7593,"lo2":-88.6598,"dy":0.0162,"dx":0.0183,"nx":116,"ny":114,"refTime":"2023-10-22T06:00:00:Z","depth":0,"parameterNumber":2,"parameterNumberName":"U-component_of_WINDS"},"data":[0.0,0.0,0.0,0.0,0.0,0.0,0.0,0.0,0.0,0.0,0.0,0.0,0.0,0.0,0.0,0.0,0.0,0.0,0.0,0.0,0.0,0.0,0.0,0.0,0.0,0.0,0.0,0.0,0.0,0.0,0.0,0.0,0.0,0.0,0.0,0.0,0.0,0.0,0.0,0.0,0.0,0.0,0.0,0.0,0.0,0.0,0.0,0.0,0.0,0.0,0.0,0.0,0.0,0.0,0.0,0.0,0.0,0.0,0.0,0.0,0.0,0.0,0.0,0.0,0.0,0.0,0.0,0.0,0.0,0.0,0.0,0.0,0.0,0.0,0.0,0.0,0.0,0.0,0.0,0.0,0.0,0.0,0.0,0.0,0.0,0.0,0.0,0.0,0.0,0.0,0.0,0.0,0.0,0.0,0.0,0.0,0.0,0.0,0.0,0.0,0.0,0.0,0.0,0.0,0.0,0.0,0.0,0.0,0.0,0.0,0.0,0.0,0.0,0.0,0.0,0.0,0.0,0.0,0.0,0.0,0.0,0.0,0.0,0.0,0.0,0.0,0.0,0.0,0.0,0.0,0.0,0.0,0.0,0.0,0.0,0.0,0.0,0.0,0.0,0.0,0.0,0.0,0.0,0.0,0.0,0.0,0.0,0.0,0.0,0.0,0.0,0.0,0.0,0.0,0.0,0.0,0.0,0.0,0.0,0.0,0.0,0.0,0.0,0.0,0.0,0.0,0.0,0.0,0.0,0.0,0.0,0.0,0.0,0.0,0.0,0.0,0.0,0.0,0.0,0.0,0.0,0.0,0.0,0.0,0.0,0.0,0.0,0.0,0.0,0.0,0.0,0.0,0.0,0.0,0.0,0.0,0.0,0.0,0.0,0.0,0.0,0.0,0.0,0.0,0.0,0.0,0.0,0.0,0.0,0.0,0.0,0.0,0.0,0.0,0.0,0.0,0.0,0.0,0.0,0.0,0.0,0.0,0.0,0.0,0.0,0.0,0.0,0.0,0.0,0.0,0.0,0.0,0.0,0.0,0.0,0.0,0.0,0.0,0.0,0.0,0.0,0.0,0.0,0.0,0.0,0.0,0.0,0.0,0.0,0.0,0.0,0.0,0.0,0.0,0.0,0.0,0.0,0.0,0.0,0.0,0.0,0.0,0.0,0.0,0.0,0.0,0.0,0.0,0.0,0.0,0.0,0.0,0.0,0.0,0.0,0.0,0.0,0.0,0.0,0.0,0.0,0.0,0.0,0.0,0.0,0.0,0.0,0.0,0.0,0.0,0.0,0.0,0.0,0.0,0.0,0.0,0.0,0.0,0.0,0.0,0.0,0.0,0.0,0.0,0.0,0.0,0.0,0.0,0.0,0.0,0.0,0.0,0.0,0.0,0.0,0.0,0.0,0.0,0.0,0.0,0.0,0.0,0.0,0.0,0.0,0.0,0.0,0.0,0.0,0.0,0.0,0.0,0.0,0.0,0.0,0.0,0.0,0.0,0.0,0.0,0.0,0.0,0.0,0.0,0.0,0.0,0.0,0.0,0.0,0.0,0.0,0.0,0.0,0.0,0.0,0.0,0.0,0.0,0.0,0.0,0.0,0.0,0.0,0.0,0.0,0.0,0.0,0.0,0.0,0.0,0.0,0.0,0.0,0.0,0.0,0.0,0.0,0.0,0.0,0.0,0.0,0.0,0.0,0.0,0.0,0.0,0.0,0.0,0.0,0.0,0.0,0.0,0.0,0.0,0.0,0.0,0.0,0.0,0.0,0.0,0.0,0.0,0.0,0.0,0.0,0.0,0.0,0.0,0.0,0.0,0.0,0.0,0.0,0.0,0.0,0.0,0.0,0.0,0.0,0.0,0.0,0.0,0.0,0.0,0.0,0.0,0.0,0.0,0.0,0.0,0.0,0.0,0.0,0.0,0.0,0.0,0.0,0.0,0.0,0.0,0.0,0.0,0.0,0.0,0.0,0.0,0.0,0.0,0.0,0.0,0.0,0.0,0.0,0.0,0.0,0.0,0.0,0.0,0.0,0.0,0.0,0.0,0.0,0.0,0.0,0.0,0.0,0.0,0.0,0.0,0.0,0.0,0.0,0.0,0.0,0.0,0.0,0.0,0.0,0.0,0.0,0.0,0.0,0.0,0.0,0.0,0.0,0.0,0.0,0.0,0.0,0.0,0.0,0.0,0.0,0.0,0.0,0.0,0.0,0.0,0.0,0.0,0.0,0.0,0.0,0.0,0.0,0.0,0.0,0.0,0.0,0.0,0.0,0.0,0.0,0.0,0.0,0.0,0.0,0.0,0.0,0.0,0.0,0.0,0.0,0.0,0.0,0.0,0.0,0.0,0.0,0.0,0.0,0.0,0.0,0.0,0.0,0.0,0.0,0.0,0.0,0.0,0.0,0.0,0.0,0.0,0.0,0.0,0.0,0.0,0.0,0.0,0.0,0.0,0.0,0.0,0.0,0.0,0.0,0.0,0.0,0.0,0.0,0.0,0.0,0.0,0.0,0.0,0.0,0.0,0.0,0.0,0.0,0.0,0.0,0.0,0.0,0.0,0.0,0.0,0.0,0.0,0.0,0.0,0.0,0.0,0.0,0.0,0.0,0.0,0.0,0.0,0.0,0.0,0.0,0.0,0.0,0.0,0.0,0.0,0.0,0.0,0.0,0.0,0.0,0.0,0.0,0.0,0.0,0.0,0.0,0.0,0.0,0.0,0.0,0.0,0.0,0.0,0.0,0.0,0.0,0.0,0.0,0.0,0.0,0.0,0.0,0.0,0.0,0.0,0.0,0.0,0.0,0.0,0.0,0.0,0.0,0.0,0.0,0.0,0.0,0.0,0.0,0.0,0.0,0.0,0.0,0.0,0.0,0.0,0.0,0.0,0.0,0.0,0.0,0.0,0.0,0.0,0.0,0.0,0.0,0.0,0.0,0.0,0.0,0.0,0.0,0.0,0.0,0.0,0.0,0.0,0.0,0.0,0.0,0.0,0.0,0.0,0.0,0.0,0.0,0.0,0.0,0.0,0.0,0.0,0.0,0.0,0.0,0.0,0.0,0.0,0.0,0.0,0.0,0.0,0.0,0.0,0.0,0.0,0.0,0.0,0.0,0.0,0.0,0.0,0.0,0.0,0.0,0.0,0.0,0.0,0.0,0.0,0.0,0.0,0.0,0.0,0.0,0.0,0.0,0.0,0.0,0.0,0.0,0.0,0.0,0.0,0.0,0.0,0.0,0.0,0.0,0.0,0.0,0.0,0.0,0.0,0.0,0.0,0.0,0.0,0.0,0.0,0.0,0.0,0.0,0.0,0.0,0.0,0.0,0.0,0.0,0.0,0.0,0.0,0.0,0.0,0.0,0.0,0.0,0.0,0.0,0.0,0.0,0.0,0.0,0.0,0.0,0.0,0.0,0.0,0.0,0.0,0.0,0.0,0.0,0.0,0.0,0.0,0.0,0.0,0.0,0.0,0.0,0.0,0.0,0.0,0.0,0.0,0.0,0.0,0.0,0.0,0.0,0.0,0.0,0.0,0.0,0.0,0.0,0.0,0.0,0.0,0.0,0.0,0.0,0.0,0.0,0.0,0.0,0.0,0.0,0.0,0.0,0.0,0.0,0.0,0.0,0.0,0.0,0.0,0.0,0.0,0.0,0.0,0.0,0.0,0.0,0.0,0.0,0.0,0.0,0.0,0.0,0.0,0.0,0.0,0.0,0.0,0.0,0.0,0.0,0.0,0.0,0.0,0.0,0.0,0.0,0.0,0.0,0.0,0.0,0.0,0.0,0.0,0.0,0.0,0.0,0.0,0.0,0.0,0.0,0.0,0.0,0.0,0.0,0.0,0.0,0.0,0.0,0.0,0.0,0.0,0.0,0.0,0.0,0.0,0.0,0.0,0.0,0.0,0.0,0.0,0.0,0.0,0.0,0.0,0.0,0.0,0.0,0.0,0.0,0.0,0.0,0.0,0.0,0.0,0.0,0.0,0.0,0.0,0.0,0.0,0.0,0.0,0.0,0.0,0.0,0.0,0.0,0.0,0.0,0.0,0.0,0.0,0.0,0.0,0.0,0.0,0.0,0.0,0.0,0.0,0.0,0.0,0.0,0.0,0.0,0.0,0.0,0.0,0.0,0.0,0.0,0.0,0.0,0.0,0.0,0.0,0.0,0.0,0.0,0.0,0.0,0.0,0.0,0.0,0.0,0.0,0.0,0.0,0.0,0.0,0.0,0.0,0.0,0.0,0.0,0.0,0.0,0.0,0.0,0.0,0.0,0.0,0.0,0.0,0.0,0.0,0.0,0.0,0.0,0.0,0.0,0.0,0.0,0.0,0.0,0.0,0.0,0.0,0.0,0.0,0.0,0.0,0.0,0.0,0.0,0.0,0.0,0.0,0.0,0.0,0.0,0.0,0.0,0.0,0.0,0.0,0.0,0.0,0.0,0.0,0.0,0.0,0.0,0.0,0.0,0.0,0.0,0.0,0.0,0.0,0.0,0.0,0.0,0.0,0.0,0.0,0.0,0.0,0.0,0.0,0.0,0.0,0.0,0.0,0.0,0.0,0.0,0.0,0.0,0.0,0.0,0.0,0.0,0.0,0.0,0.0,0.0,0.0,0.0,0.0,0.0,0.0,0.0,0.0,0.0,0.0,0.0,0.0,0.0,0.0,0.0,0.0,0.0,0.0,0.0,0.0,0.0,0.0,0.0,0.0,0.0,0.0,0.0,0.0,0.0,0.0,0.0,0.0,0.0,0.0,0.0,0.0,0.0,0.0,0.0,0.0,0.0,0.0,0.0,0.0,0.0,0.0,0.0,0.0,0.0,0.0,0.0,0.0,0.0,0.0,0.0,0.0,0.0,0.0,0.0,0.0,0.0,0.0,0.0,0.0,0.0,0.0,0.0,0.0,0.0,0.0,0.0,0.0,0.0,0.0,0.0,0.0,0.0,0.0,0.0,0.0,0.0,0.0,0.0,0.0,0.0,0.0,0.0,0.0,0.0,0.0,0.0,0.0,0.0,0.0,0.0,0.0,0.0,0.0,0.0,0.0,0.0,0.0,0.0,0.0,0.0,0.0,0.0,0.0,0.0,0.0,0.0,0.0,0.0,0.0,0.0,0.0,0.0,0.0,0.0,0.0,0.0,0.0,0.0,0.0,0.0,0.0,0.0,0.0,0.0,0.0,0.0,0.0,0.0,0.0,0.0,0.0,0.0,0.0,0.0,0.0,0.0,0.0,0.0,0.0,0.0,0.0,0.0,0.0,0.0,0.0,0.0,0.0,0.0,0.0,0.0,0.0,0.0,0.0,0.0,0.0,0.0,0.0,0.0,0.0,0.0,0.0,0.0,0.0,0.0,0.0,0.0,0.0,0.0,0.0,0.0,0.0,0.0,0.0,0.0,0.0,0.0,0.0,0.0,0.0,0.0,0.0,0.0,0.0,0.0,0.0,0.0,0.0,0.0,0.0,0.0,0.0,0.0,0.0,0.0,0.0,0.0,0.0,0.0,0.0,0.0,0.0,0.0,0.0,0.0,0.0,0.0,0.0,0.0,0.0,0.0,0.0,0.0,0.0,0.0,0.0,0.0,0.0,0.0,0.0,0.0,0.0,0.0,0.0,0.0,0.0,0.0,0.0,0.0,0.0,0.0,0.0,0.0,0.0,0.0,0.0,0.0,0.0,0.0,0.0,0.0,0.0,0.0,0.0,0.0,0.0,0.0,0.0,0.0,0.0,0.0,0.0,0.0,0.0,0.0,0.0,0.0,0.0,0.0,0.0,0.0,0.0,0.0,0.0,0.0,0.0,0.0,0.0,0.0,0.0,0.0,0.0,0.0,0.0,0.0,0.0,0.0,0.0,0.0,0.0,0.0,0.0,0.0,0.0,0.0,0.0,0.0,0.0,0.0,0.0,0.0,0.0,0.0,0.0,0.0,0.0,0.0,0.0,0.0,0.0,0.0,0.0,0.0,0.0,0.0,0.0,0.0,0.0,0.0,0.0,0.0,0.0,0.0,0.0,0.0,0.0,0.0,0.0,0.0,0.0,0.0,0.0,0.0,0.0,0.0,0.0,0.0,0.0,0.0,0.0,0.0,0.0,0.0,0.0,0.0,0.0,-0.8935,0.0,0.0,0.0,0.0,0.0,0.0,0.0,0.0,0.0,0.0,0.0,0.0,0.0,0.0,0.0,0.0,0.0,0.0,0.0,0.0,0.0,0.0,0.0,0.0,0.0,0.0,0.0,0.0,0.0,0.0,0.0,0.0,0.0,0.0,0.0,0.0,0.0,0.0,0.0,0.0,0.0,0.0,0.0,0.0,0.0,0.0,0.0,0.0,0.0,0.0,0.0,0.0,0.0,0.0,0.0,0.0,0.0,0.0,0.0,0.0,0.0,0.0,0.0,0.0,0.0,0.0,0.0,0.0,0.0,0.0,0.0,0.0,0.0,0.0,0.0,0.0,0.0,0.0,0.0,0.0,0.0,0.0,0.0,0.0,0.0,0.0,0.0,0.0,0.0,0.0,0.0,0.0,0.0,0.0,0.0,0.0,0.0,0.0,0.0,0.0,0.0,0.0,0.0,0.0,0.0,0.0,0.0,0.0,0.0,0.0,0.0,0.0,0.0,0.0,0.0,0.0,-1.0476,0.0,0.0,0.0,0.0,0.0,0.0,0.0,0.0,0.0,0.0,0.0,0.0,0.0,0.0,0.0,0.0,0.0,0.0,0.0,0.0,0.0,0.0,0.0,0.0,0.0,0.0,0.0,0.0,0.0,0.0,0.0,0.0,0.0,0.0,0.0,0.0,0.0,0.0,0.0,0.0,0.0,0.0,0.0,0.0,0.0,0.0,0.0,0.0,0.0,0.0,0.0,0.0,0.0,0.0,0.0,0.0,0.0,0.0,0.0,0.0,0.0,0.0,0.0,0.0,0.0,0.0,0.0,0.0,0.0,0.0,0.0,0.0,0.0,0.0,0.0,0.0,0.0,0.0,0.0,0.0,0.0,0.0,0.0,0.0,0.0,0.0,0.0,0.0,0.0,0.0,0.0,0.0,0.0,0.0,0.0,0.0,0.0,0.0,0.0,0.0,0.0,0.0,0.0,0.0,0.0,0.0,0.0,0.0,-1.4659,-1.488,-1.6431,-1.4946,-1.4646,-1.5209,-1.3929,-1.2225,-1.0397,-1.1379,0.0,0.0,0.0,0.0,0.0,0.0,0.0,0.0,0.0,0.0,0.0,0.0,0.0,0.0,0.0,0.0,0.0,0.0,0.0,0.0,0.0,0.0,0.0,0.0,0.0,0.0,0.0,0.0,0.0,0.0,0.0,0.0,0.0,0.0,0.0,0.0,0.0,0.0,-2.1248,-2.2262,-2.3199,-2.3863,-2.0726,0.0,0.0,0.0,0.0,0.0,0.0,0.0,0.0,0.0,0.0,0.0,0.0,0.0,0.0,0.0,0.0,0.0,0.0,0.0,0.0,0.0,0.0,0.0,0.0,0.0,0.0,0.0,0.0,0.0,0.0,0.0,0.0,0.0,0.0,0.0,0.0,0.0,0.0,0.0,0.0,0.0,0.0,0.0,-1.1095,-1.1289,0.0,0.0,0.0,0.0,0.0,0.0,0.0,0.0,0.0,0.0,0.0,0.0,0.0,-1.5236,-1.5339,-1.742,-1.7877,-1.6738,-1.6536,-1.5876,-1.4781,-1.3857,-1.3519,-1.3611,-1.3403,0.0,-1.2684,-1.0803,0.0,0.0,0.0,0.0,0.0,0.0,0.0,0.0,0.0,0.0,0.0,0.0,0.0,0.0,0.0,0.0,0.0,0.0,0.0,0.0,0.0,0.0,0.0,0.0,0.0,0.0,0.0,0.0,0.0,0.0,0.0,0.0,0.0,0.0,0.0,0.0,-2.1348,-2.3886,-2.5527,-2.6855,-2.789,-2.8554,-2.7029,-2.4014,-1.997,-1.813,0.0,0.0,0.0,0.0,0.0,0.0,0.0,0.0,0.0,0.0,0.0,0.0,0.0,0.0,0.0,0.0,0.0,0.0,0.0,0.0,0.0,0.0,0.0,0.0,0.0,0.0,0.0,0.0,0.0,0.0,0.0,0.0,0.0,0.0,0.0,0.0,0.0,0.0,0.0,-1.2684,-1.4236,-1.4305,-1.5089,-1.4929,0.0,0.0,0.0,0.0,0.0,0.0,0.0,0.0,0.0,-1.5094,-1.6867,-1.8015,-1.8437,-1.8603,-1.8754,-1.8907,-1.755,-1.7,-1.716,-1.5894,-1.5564,-1.5912,-1.4566,-1.3978,-1.3857,-1.2354,-1.1847,-1.1948,0.0,0.0,0.0,0.0,-0.9165,-0.9216,0.0,0.0,0.0,0.0,0.0,0.0,0.0,0.0,0.0,0.0,0.0,0.0,0.0,0.0,0.0,-1.9473,0.0,0.0,0.0,0.0,0.0,0.0,0.0,0.0,0.0,0.0,0.0,-2.2767,-2.6287,-2.8652,-2.9961,-3.1484,-3.2441,-3.2851,-3.2402,-2.8827,-2.2995,-2.0824,-1.8527,0.0,0.0,0.0,0.0,0.0,0.0,0.0,0.0,0.0,0.0,0.0,0.0,0.0,0.0,0.0,0.0,0.0,0.0,0.0,0.0,0.0,0.0,0.0,0.0,0.0,0.0,0.0,0.0,0.0,0.0,0.0,0.0,0.0,0.0,0.0,0.0,0.0,0.0,-1.4235,-1.638,-1.6214,-1.7723,-1.8017,0.0,0.0,0.0,0.0,0.0,0.0,-1.7087,-1.7966,-1.8594,-1.8995,-1.9955,-2.0689,-2.1207,-2.0025,-2.0013,-2.1108,-1.9109,-1.8665,-1.9565,-1.8357,-1.7917,-1.8005,-1.6206,-1.5197,-1.4719,-1.3493,-1.2729,-1.2277,-1.1755,-1.1086,-1.0375,-1.0213,-0.9888,-0.9477,0.0,0.0,0.0,0.0,0.0,0.0,0.0,0.0,0.0,0.0,0.0,0.0,0.0,0.0,-2.2088,-2.3739,-2.4121,-2.2817,0.0,0.0,0.0,0.0,0.0,0.0,0.0,0.0,0.0,-2.5417,-2.8961,-3.1953,-3.4394,-3.5312,-3.6621,-3.8144,-3.6484,-3.2382,-2.6674,-2.5719,-2.283,-1.8768,0.0,0.0,0.0,0.0,0.0,0.0,0.0,0.0,0.0,0.0,0.0,0.0,0.0,0.0,0.0,0.0,0.0,0.0,0.0,0.0,0.0,0.0,0.0,0.0,0.0,0.0,0.0,0.0,0.0,0.0,0.0,0.0,0.0,0.0,0.0,0.0,0.0,0.0,0.0,-1.5443,-1.894,0.0,0.0,0.0,0.0,-1.8755,-1.8679,-1.9037,-1.985,-2.066,-2.1064,-2.0956,-2.2476,-2.3253,-2.3154,-2.3079,-2.2984,-2.285,-2.1969,-2.1161,-2.0429,-2.0356,-1.9512,-1.8096,-1.7968,-1.705,-1.5454,-1.3123,-1.2582,-1.3214,-1.3132,-1.2989,-1.2729,-1.1981,-1.1112,-1.021,0.0,0.0,0.0,0.0,0.0,0.0,0.0,0.0,0.0,0.0,0.0,0.0,0.0,-2.4648,-2.8106,-2.8174,-3.067,-3.0143,-2.5187,0.0,0.0,0.0,0.0,0.0,0.0,0.0,-2.6847,-3.133,-3.38,-3.5762,-3.7226,-3.7539,-3.8008,-3.8574,-3.7949,-3.5859,-3.2597,-2.9462,-2.6259,-2.2983,-1.9541,-1.6087,0.0,0.0,0.0,0.0,0.0,0.0,0.0,0.0,0.0,0.0,0.0,0.0,0.0,0.0,0.0,0.0,0.0,0.0,0.0,0.0,0.0,0.0,0.0,0.0,0.0,0.0,0.0,0.0,0.0,0.0,0.0,0.0,0.0,0.0,0.0,0.0,0.0,-2.009,-2.1952,0.0,-2.1934,-2.1436,-2.1488,-2.2234,-2.2769,-2.3103,-2.3247,-2.4064,-2.4195,-2.3491,-2.4044,-2.4322,-2.4268,-2.3704,-2.3393,-2.3319,-2.2393,-2.1495,-2.0682,-2.0565,-1.9913,-1.8831,-1.8317,-1.7766,-1.7105,-1.5197,-1.3978,-1.3298,-1.3277,-1.2862,-1.2263,-1.1974,-1.1223,-1.0278,0.0,0.0,0.0,0.0,0.0,0.0,0.0,0.0,0.0,0.0,0.0,-1.9488,-2.2585,-2.8415,-3.222,-3.2505,-3.4077,-3.2778,-2.7478,0.0,0.0,0.0,0.0,0.0,0.0,-2.6969,-3.0852,-3.5417,-3.6965,-3.8184,-3.9043,-3.9043,-3.9199,-3.9453,-3.918,-3.8398,-3.709,-3.358,-3.0082,-2.6541,-2.2746,-1.8966,-1.5306,0.0,0.0,0.0,0.0,0.0,0.0,0.0,0.0,0.0,0.0,0.0,0.0,0.0,0.0,0.0,0.0,0.0,0.0,0.0,0.0,0.0,0.0,0.0,0.0,0.0,0.0,0.0,0.0,0.0,0.0,0.0,0.0,0.0,0.0,0.0,-2.258,-2.3173,-2.4517,-2.528,-2.4966,-2.4201,-2.4199,-2.5293,-2.587,-2.5983,-2.557,-2.6094,-2.5951,-2.5,-2.4981,-2.4936,-2.4883,-2.4295,-2.3985,-2.3917,-2.3257,-2.2505,-2.17,-2.1813,-2.1108,-1.9797,-1.9482,-1.8867,-1.8023,-1.6958,-1.5564,-1.4088,-1.3813,-1.3143,-1.2307,-1.2285,-1.162,-1.0685,0.0,0.0,0.0,0.0,0.0,0.0,0.0,0.0,0.0,0.0,-1.7046,-2.1443,-2.7297,-3.0972,-3.4007,-3.6488,-3.3712,-3.0036,-2.5758,-2.2383,0.0,0.0,0.0,0.0,-2.8104,-3.0832,-3.3871,-3.7282,-3.8259,-3.9141,-3.9941,-3.9941,-4.0391,-4.1191,-4.0351,-3.998,-3.9863,-3.8114,-3.4397,-2.9455,-2.6825,-2.3073,-1.8819,0.0,0.0,0.0,0.0,0.0,0.0,0.0,0.0,0.0,0.0,0.0,0.0,0.0,0.0,0.0,0.0,0.0,0.0,0.0,0.0,0.0,0.0,0.0,0.0,0.0,0.0,0.0,0.0,0.0,0.0,0.0,0.0,0.0,-1.9344,-2.2149,-2.4296,-2.4295,-2.6477,-2.764,-2.6794,-2.7467,-2.7948,-2.7986,-2.7986,-2.7582,-2.6697,-2.664,-2.6236,-2.5322,-2.5303,-2.5214,-2.501,-2.501,-2.4937,-2.4818,-2.4804,-2.4351,-2.3534,-2.4179,-2.3114,-2.0835,-2.148,-2.037,-1.8096,-1.8096,-1.7142,-1.5619,-1.4848,-1.3965,-1.3145,-1.307,-1.246,-1.1512,0.0,0.0,0.0,0.0,0.0,0.0,0.0,0.0,0.0,0.0,-1.8589,-2.3649,-2.8328,-3.2916,-3.5951,-3.6709,-3.4251,-3.1183,-2.7653,0.0,0.0,0.0,0.0,0.0,-3.0762,-3.4694,-3.7477,-3.9013,-4.0582,-4.1172,-4.084,-4.084,-4.1289,-4.2051,-4.1816,-4.1719,-4.168,-4.1171,-3.9053,-3.5607,-3.1053,-2.692,-2.3266,0.0,0.0,0.0,0.0,0.0,0.0,0.0,0.0,0.0,0.0,0.0,0.0,0.0,0.0,0.0,0.0,0.0,0.0,0.0,0.0,0.0,0.0,0.0,0.0,0.0,0.0,0.0,0.0,0.0,0.0,0.0,0.0,-2.4125,-2.4471,-2.6947,-2.8724,-2.8674,-2.9286,-2.9621,-2.939,-2.9006,-2.9025,-2.9679,-2.9717,-2.9083,-2.7621,-2.7544,-2.6851,-2.5341,-2.5303,-2.5274,-2.5214,-2.5214,-2.5192,-2.516,-2.4929,-2.442,-2.3724,-2.3656,-2.2588,-2.0812,-2.0997,-1.9952,-1.8096,-1.8096,-1.7142,-1.5674,-1.5454,-1.4873,-1.4105,-1.4093,-1.3484,-1.2453,0.0,0.0,0.0,0.0,0.0,0.0,0.0,0.0,0.0,0.0,-1.9857,-2.4629,-2.9214,-3.2952,-3.5013,-3.4687,-3.1745,-2.8644,-2.5675,0.0,0.0,0.0,0.0,-3.0716,-3.451,-3.7843,-4.0157,-4.1377,-4.2421,-4.2715,-4.2246,-4.2246,-4.25,-4.2949,-4.2949,-4.2949,-4.2949,-4.2949,-4.1832,-3.9816,-3.6737,-3.2506,-2.7857,-2.6063,-2.4015,-2.2002,-2.1178,-2.1005,-2.069,-1.7358,0.0,0.0,0.0,0.0,0.0,0.0,0.0,0.0,0.0,0.0,0.0,0.0,0.0,0.0,0.0,0.0,0.0,0.0,0.0,0.0,0.0,0.0,0.0,0.0,-2.5018,-2.8023,-2.9564,-3.0479,-3.1122,-3.141,-3.116,-3.0948,-3.0948,-3.016,-2.9852,-3.0359,-3.0398,-2.9679,-2.7986,-2.789,-2.7101,-2.536,-2.5303,-2.5303,-2.5303,-2.5303,-2.5303,-2.5303,-2.5103,-2.4812,-2.4413,-2.4144,-2.3304,-2.2016,-2.1517,-2.0499,-1.9179,-1.8415,-1.7546,0.0,0.0,0.0,0.0,0.0,-1.3557,-1.231,0.0,0.0,0.0,0.0,0.0,0.0,0.0,0.0,0.0,0.0,0.0,-2.4486,-2.9454,-3.1543,-3.228,-3.1516,-2.7762,-2.4424,0.0,0.0,0.0,-2.7105,-3.0715,-3.4504,-3.8513,-4.0465,-4.2197,-4.3691,-4.3808,-4.3808,-4.3691,-4.3691,-4.375,-4.3848,-4.3848,-4.3906,-4.3984,-4.3984,-4.3453,-4.2594,-4.2607,-3.8627,-3.2527,-3.0782,-2.9004,-2.7205,-2.5544,-2.4427,-2.3429,-2.1416,0.0,0.0,0.0,0.0,0.0,0.0,0.0,0.0,0.0,0.0,0.0,0.0,0.0,0.0,0.0,0.0,0.0,0.0,0.0,0.0,0.0,0.0,0.0,0.0,-2.8046,-3.1535,-3.3994,-3.3064,-3.2314,-3.2833,-3.2275,-3.1756,-3.1564,-3.0948,-3.0513,-3.0398,-3.0494,-2.9813,-2.8121,0.0,0.0,0.0,0.0,-2.5303,-2.5303,-2.5303,-2.5303,-2.5303,-2.5274,-2.5274,-2.5284,-2.5088,-2.4564,-2.3744,-2.2641,-2.1592,-2.0555,-1.9007,-1.8262,-1.795,-1.6334,-1.5215,-1.4476,-1.4295,-1.3238,-1.1902,0.0,0.0,0.0,0.0,0.0,0.0,0.0,0.0,0.0,-1.6261,-1.9141,-2.2513,-2.7004,-2.8952,-2.9915,-2.9858,-2.6591,-2.405,0.0,0.0,-2.7094,-3.0749,-3.4867,-3.8135,-4.0426,-4.2941,-4.4042,-4.3691,-4.4394,-4.4394,-4.3691,-4.3691,-4.4082,-4.4746,-4.4746,-4.5137,-4.5801,-4.5801,-4.5293,-4.4471,-4.4413,-4.1466,-3.7046,-3.6657,-3.4627,-3.189,-3.1471,-3.078,-2.9544,-2.6331,-2.4706,-2.3595,-2.0974,0.0,0.0,0.0,0.0,0.0,0.0,0.0,0.0,0.0,0.0,0.0,0.0,0.0,0.0,0.0,0.0,0.0,0.0,0.0,0.0,-2.7668,-3.0586,-3.3082,-3.4988,-3.4968,-3.4295,-3.3045,-3.2756,-3.2141,-3.0794,-3.1141,-3.116,-3.0436,-3.1064,-3.0698,-2.8948,-2.8255,-2.7409,-2.639,-2.5668,-2.5303,-2.5303,-2.5303,-2.5303,-2.5303,0.0,0.0,-2.5284,-2.5088,-2.4564,-2.3782,-2.3379,-2.1924,-1.9828,-1.9988,-1.9256,-1.795,-1.6334,-1.5215,-1.4506,-1.4464,-1.4228,-1.384,0.0,0.0,0.0,0.0,0.0,0.0,0.0,0.0,0.0,0.0,-1.7151,-1.9608,-2.2619,-2.405,-2.4666,-2.431,-2.2737,0.0,0.0,-2.6335,-3.0074,-3.4861,-3.7972,-4.0655,-4.2896,-4.4293,-4.5,-4.5,-4.5449,-4.543,-4.5,-4.5,-4.5234,-4.5644,-4.5644,-4.5898,-4.6308,-4.6308,-4.6055,-4.5644,-4.56,-4.4028,-4.1495,-4.0123,-3.8285,-3.6221,-3.44,-3.2626,-3.0808,-2.8557,-2.7007,-2.5623,-2.3475,-2.1636,-1.9724,0.0,0.0,0.0,0.0,0.0,0.0,0.0,0.0,0.0,0.0,0.0,0.0,0.0,0.0,-2.1165,0.0,0.0,-2.8149,-3.0263,-3.2672,-3.4449,-3.4923,-3.5,-3.4792,-3.425,-3.343,-3.2737,-3.2333,-3.1948,-3.1698,-3.166,-3.1679,-3.1141,-2.9813,-2.8563,-2.7505,-2.664,-2.5745,-2.5303,-2.5303,-2.5303,-2.5303,-2.5303,-2.5203,-2.5203,-2.5303,-2.5203,-2.4933,-2.453,-2.3907,-2.269,-2.1041,-2.0346,-1.9345,-1.8162,-1.7256,-1.6169,-1.505,-1.4664,-1.4261,-1.3838,0.0,0.0,0.0,0.0,0.0,0.0,0.0,0.0,0.0,0.0,-1.5134,-1.6734,-1.8442,-1.9244,-1.9341,0.0,0.0,0.0,0.0,-2.8124,-3.2725,-3.8472,-4.061,-4.2662,-4.4878,-4.5134,-4.5605,-4.6308,-4.6308,-4.6308,-4.6308,-4.6308,-4.6308,-4.6308,-4.6308,-4.6308,-4.6308,-4.6308,-4.6308,-4.6308,-4.6308,-4.5879,-4.496,-4.2241,-4.0589,-3.9309,-3.5917,-3.2784,-3.0153,-2.94,-2.7823,-2.6016,-2.5035,-2.4412,-2.3182,-1.8776,-1.827,0.0,0.0,0.0,0.0,0.0,0.0,0.0,0.0,0.0,-2.1971,-2.3293,-2.4138,-2.5312,-2.7597,-2.9892,-3.1685,-3.2384,-3.4447,-3.5606,-3.4646,-3.451,-3.4567,-3.4781,-3.355,-3.2902,-3.3422,-3.2403,-3.191,-3.2372,-3.1968,-3.1314,-3.0436,-2.8813,-2.7582,-2.6871,-2.5851,-2.5303,-2.5303,-2.5303,-2.5303,-2.5303,-2.5303,-2.5303,-2.5303,-2.5303,-2.5303,-2.5245,-2.423,-2.3408,-2.2608,-2.0678,-1.9513,-1.8858,-1.8365,-1.7375,-1.6122,-1.5282,-1.4462,-1.3776,0.0,0.0,0.0,0.0,0.0,0.0,0.0,0.0,0.0,0.0,0.0,0.0,0.0,0.0,0.0,0.0,0.0,0.0,-2.6207,-3.0962,-3.5731,-4.0385,-4.2969,-4.4493,-4.4979,-4.5742,-4.6191,-4.6308,-4.6308,-4.6308,-4.6308,-4.6308,-4.6308,-4.6308,-4.6308,-4.6308,-4.6308,-4.6308,-4.6308,-4.6308,-4.6308,-4.623,-4.5879,-4.3222,-4.1249,-3.951,-3.6729,-3.301,-2.9427,-2.9318,-2.709,-2.4646,-2.6139,-2.5002,-2.2873,-2.1458,0.0,-1.8493,-1.649,-1.6792,-1.773,-1.7795,-1.8945,-2.0892,0.0,0.0,-2.6034,-2.9238,-2.9961,-3.0351,-3.1426,-3.3016,-3.4202,-3.43,-3.5738,-3.6294,-3.4724,-3.451,-3.3952,-3.2477,-3.2075,-3.1661,-3.0984,-3.1394,-3.1429,-3.0737,-3.1314,-3.1314,-3.0436,-2.8813,-2.7852,-2.7755,-2.6159,-2.5303,-2.5303,-2.5303,-2.5303,-2.5303,-2.5303,-2.5303,-2.5303,-2.5303,-2.5303,-2.5245,-2.423,-2.3655,-2.3277,-2.1607,-2.0878,-2.0639,-1.9002,-1.8255,-1.7981,-1.6993,-1.6133,-1.5417,0.0,0.0,0.0,0.0,0.0,0.0,0.0,0.0,0.0,0.0,0.0,0.0,0.0,0.0,0.0,0.0,0.0,0.0,-2.6454,-3.1487,-3.6493,-4.1381,-4.3676,-4.5102,-4.5742,-4.6113,-4.6308,-4.6308,-4.6308,-4.6308,-4.6308,-4.6308,-4.6308,-4.6308,-4.6308,-4.6308,-4.6308,-4.6308,-4.6308,-4.6308,-4.6308,-4.5996,-4.5254,-4.2594,-3.9916,-3.7221,-3.448,-3.1067,0.0,0.0,-2.5277,-2.4112,-2.3934,-2.3845,-2.3332,-2.0876,-2.0324,0.0,-2.023,-1.9715,0.0,0.0,-2.484,-2.5811,-2.8767,-3.0214,-3.1211,-3.2168,-3.3164,-3.3984,-3.4336,-3.4959,-3.5403,0.0,-3.5982,-3.5815,-3.4098,-3.3451,-3.2514,-3.0774,-3.0048,-3.0108,-3.1167,-3.111,-3.124,-3.1814,-3.1756,-3.1545,-3.1179,-2.9525,-2.8371,-2.7909,-2.6697,-2.5813,-2.5303,-2.5303,-2.5303,-2.5303,-2.5303,-2.5303,-2.5303,-2.5303,-2.5303,-2.5245,-2.436,-2.3926,-2.3709,-2.1953,-2.1225,-2.1081,-1.9741,-1.9176,-1.8912,-1.7449,-1.6688,-1.6395,0.0,0.0,0.0,0.0,0.0,0.0,0.0,0.0,0.0,0.0,0.0,0.0,0.0,0.0,0.0,0.0,0.0,0.0,0.0,-3.0397,-3.5414,-4.0851,-4.3066,-4.4728,-4.5918,-4.6172,-4.6308,-4.6308,-4.6308,-4.6308,-4.6308,-4.6308,-4.6308,-4.6308,-4.6308,-4.6308,-4.6308,-4.6308,-4.6308,-4.6289,-4.6035,-4.5137,-4.3612,-4.0691,-3.7304,-3.3815,-3.1821,-2.8785,0.0,0.0,-2.3388,-2.2979,-2.2289,-2.2952,-2.3461,-2.0644,-2.0379,-2.1286,-2.2625,0.0,0.0,-2.8218,-2.9602,-3.033,-3.2715,-3.4004,-3.4668,-3.4512,-3.5098,-3.5644,-3.5644,-3.5644,-3.5644,-3.5644,-3.584,-3.5391,-3.3652,-3.2715,-3.1465,-2.9473,-2.8432,-2.8548,-3.0273,-3.0255,-3.0714,-3.2115,-3.1679,-3.1352,-3.1352,-2.991,-2.8832,-2.8255,-2.7178,-2.6294,-2.5649,-2.5418,-2.5303,-2.5303,-2.5303,-2.5303,-2.5303,-2.5303,-2.5303,-2.5264,-2.4678,-2.4428,-2.4312,-2.2729,-2.1933,-2.1617,-2.0562,-1.9957,-1.9487,-1.807,-1.7422,-1.722,0.0,0.0,0.0,0.0,0.0,0.0,0.0,0.0,0.0,0.0,0.0,0.0,0.0,0.0,0.0,0.0,0.0,0.0,0.0,-2.7554,-3.2168,-3.8252,-4.1007,-4.3199,-4.5,-4.5879,-4.6308,-4.6308,-4.6308,-4.6308,-4.6308,-4.6308,-4.6308,-4.6308,-4.6308,-4.6308,-4.6308,-4.6308,-4.6308,-4.623,-4.5371,-4.3493,-4.0845,-3.737,-3.3324,-2.9493,-2.9407,0.0,0.0,0.0,-2.1778,-2.063,-2.2401,-2.3011,0.0,-2.1897,-2.0463,0.0,0.0,0.0,-2.6097,-2.8816,-3.1385,-3.3711,-3.5488,-3.5273,-3.5176,-3.6836,-3.5879,-3.4746,-3.4746,-3.4746,-3.4746,-3.4746,-3.5449,-3.5391,-3.3652,-3.2715,-3.123,-2.8652,-2.7578,-2.7048,0.0,-2.8379,-2.9574,-3.041,-3.0436,-3.0436,-3.0436,-2.9583,-2.9083,-2.9063,-2.7467,-2.6582,-2.6563,-2.5707,-2.5303,-2.5303,-2.5303,-2.5303,-2.5303,-2.5303,-2.5303,-2.5303,-2.5264,-2.5264,-2.5187,-2.4351,-2.3524,-2.2641,-2.1491,-2.055,-1.9743,-1.9364,-1.872,-1.806,0.0,0.0,0.0,0.0,0.0,0.0,0.0,0.0,0.0,0.0,0.0,0.0,0.0,0.0,0.0,0.0,0.0,0.0,0.0,-2.6026,-2.9971,-3.3149,-3.7507,-4.0408,-4.1582,-4.2988,-4.4004,-4.457,-4.5156,-4.5449,-4.5449,-4.6035,-4.6308,-4.6308,-4.6308,-4.6308,-4.6269,-4.5683,-4.4745,-4.3527,-4.2122,-3.9959,-3.7259,-3.4244,-3.1132,-2.8129,0.0,0.0,0.0,-2.0585,-2.0215,-2.0173,-1.9706,-2.0347,-2.1221,-2.0915,-2.1245,-2.226,0.0,0.0,-2.9923,-3.3626,-3.5716,-3.6972,-3.7487,-3.7886,-3.75,-3.5195,-3.4257,-3.3319,-3.1639,-3.0814,-3.0968,-3.2693,-3.3221,-3.3416,-3.3398,-3.3164,-3.1836,-2.8672,-2.8555,0.0,0.0,0.0,0.0,-2.9571,-2.9631,-2.9864,-3.0434,-3.0158,-2.9698,-2.9121,-2.8544,-2.8005,-2.7467,-2.6601,-2.6159,-2.6159,-2.5572,-2.5303,-2.5303,-2.5303,-2.5303,-2.5303,-2.5303,-2.5303,-2.5245,-2.4428,-2.3937,-2.3495,-2.1873,-2.1001,-2.0564,-1.9796,-1.9243,-1.8904,0.0,0.0,0.0,0.0,0.0,0.0,0.0,0.0,0.0,0.0,0.0,0.0,0.0,0.0,0.0,0.0,0.0,0.0,0.0,0.0,-2.6044,-2.8346,-3.2303,-3.5019,-3.6191,-3.7851,-3.8847,-3.9082,-4.0585,-4.1152,-4.0898,-4.2383,-4.3086,-4.3105,-4.3418,-4.3535,-4.3454,-4.2576,-4.1535,-4.0281,-3.858,-3.6309,-3.368,-3.1255,-2.8528,0.0,0.0,0.0,0.0,-1.9648,-1.992,-2.0537,-1.9488,-1.9934,-2.1046,-2.1983,-2.3043,-2.4704,-2.8262,-3.086,-3.3467,-3.7129,-3.8252,-3.8473,-3.838,-3.7943,-3.6656,-3.3531,-3.2181,-3.095,-2.8995,-2.8145,-2.8393,-3.0382,-3.099,-3.1618,-3.2793,-3.2695,-3.1816,-2.9922,-2.9902,-2.9609,0.0,0.0,0.0,-2.9214,-2.9516,-2.991,-3.0434,-3.0417,-3.014,-2.9583,-2.9256,-2.8852,-2.8332,-2.7178,-2.6447,-2.614,-2.5572,-2.5303,-2.5303,-2.5303,-2.5303,-2.5303,-2.5303,-2.5303,-2.5264,-2.4736,-2.436,-2.3976,-2.2607,-2.1862,-2.1438,-2.0676,-2.0299,-2.0113,0.0,0.0,0.0,0.0,0.0,0.0,0.0,0.0,0.0,0.0,0.0,0.0,0.0,0.0,0.0,0.0,0.0,0.0,0.0,0.0,0.0,-2.3926,-2.582,-2.7597,-2.9295,-3.0974,-3.1461,-3.068,-3.3239,-3.408,-3.3319,-3.5898,-3.7109,-3.7148,-3.7969,-3.8297,-3.818,-3.7304,-3.6843,-3.6543,-3.4798,-3.2596,-3.0139,-2.8373,0.0,0.0,0.0,0.0,0.0,0.0,0.0,0.0,0.0,-2.1842,-2.2468,-2.5044,-2.5937,-2.7172,-3.2272,-3.485,-3.666,-3.9189,-3.9096,-3.8337,-3.8189,-3.5621,-3.2986,-3.1955,-2.9734,-2.7727,0.0,0.0,-2.6961,-2.8023,-2.8977,-3.0214,-3.2012,-3.1621,-3.1426,0.0,0.0,0.0,0.0,0.0,0.0,-2.9419,0.0,-3.0501,-3.0471,-3.0441,-3.039,-3.0398,-2.9602,-2.9159,-2.9159,-2.7505,-2.6236,-2.536,-2.5322,-2.5303,-2.5303,-2.5303,-2.5303,-2.5303,-2.5303,-2.5303,-2.5303,-2.5303,-2.4851,-2.412,-2.3676,-2.3043,-2.2316,-2.1951,-2.1803,-2.1582,0.0,0.0,0.0,0.0,0.0,0.0,0.0,0.0,0.0,0.0,0.0,0.0,0.0,0.0,0.0,0.0,0.0,0.0,0.0,0.0,0.0,0.0,0.0,0.0,0.0,0.0,0.0,0.0,0.0,-3.1675,-3.1519,-3.3473,-3.4389,-3.4404,-3.4578,-3.4647,-3.4576,-3.3692,-3.2532,-3.1144,0.0,-2.7869,-2.6525,0.0,0.0,0.0,0.0,0.0,0.0,0.0,0.0,0.0,0.0,-2.4507,-2.5954,-2.793,-3.0355,-3.3092,-3.6385,-3.8441,-3.996,-4.1182,-4.0376,-3.8743,-3.6735,-3.4656,-3.2205,-2.8831,-2.6534,-2.4882,0.0,0.0,0.0,-2.7562,-2.8906,0.0,-3.2754,-3.4023,0.0,-3.2402,0.0,-3.2988,-3.1074,-3.2031,0.0,0.0,-3.0895,-3.09,-3.1487,-3.0856,-3.0442,-3.041,-3.0179,-3.0083,-3.0083,-2.8409,-2.7121,-2.6255,-2.561,-2.5303,-2.5303,-2.5303,-2.5303,-2.5303,-2.5303,-2.5303,-2.5303,-2.5303,-2.5168,-2.4908,-2.4072,-2.3518,-2.3078,-2.2249,-2.1898,-2.1748,0.0,0.0,0.0,0.0,0.0,0.0,0.0,0.0,0.0,0.0,0.0,0.0,0.0,0.0,0.0,0.0,0.0,0.0,0.0,0.0,0.0,0.0,0.0,0.0,0.0,0.0,0.0,0.0,0.0,0.0,0.0,-2.7705,-2.8877,-2.8891,-2.9238,-2.9572,-2.9795,-2.8539,0.0,0.0,0.0,0.0,0.0,0.0,0.0,0.0,0.0,0.0,0.0,0.0,0.0,-2.5453,-2.6757,-2.8081,-2.9595,-3.1735,0.0,-3.6403,-3.9023,-4.0876,-4.2052,-4.2089,-4.048,-3.81,-3.511,-3.2542,-2.9683,-2.5802,-2.3901,0.0,0.0,0.0,0.0,0.0,0.0,0.0,-3.1367,-3.3223,-3.4062,0.0,-3.4473,0.0,-3.3281,-3.3984,-3.4316,0.0,-3.2209,-3.1457,-3.1882,-3.101,-3.0491,-3.0451,-3.0425,-3.0217,-2.9833,-2.889,-2.7813,-2.6601,-2.6101,-2.5668,-2.5303,-2.5303,-2.5303,-2.5303,-2.5303,-2.5303,-2.5303,-2.5303,-2.5303,-2.5235,-2.4583,-2.422,-2.3997,-2.3337,-2.3002,-2.2795,0.0,0.0,0.0,0.0,0.0,0.0,0.0,0.0,0.0,0.0,0.0,0.0,0.0,0.0,0.0,0.0,0.0,0.0,0.0,0.0,0.0,0.0,0.0,0.0,0.0,0.0,0.0,0.0,0.0,0.0,0.0,0.0,0.0,0.0,0.0,0.0,0.0,0.0,0.0,0.0,0.0,0.0,0.0,0.0,0.0,0.0,0.0,0.0,0.0,0.0,-2.6968,-2.8695,-3.0556,-3.1909,-3.326,-3.5644,-3.7128,-3.8495,-4.0878,-4.2514,-4.333,-4.2349,-3.9948,-3.6911,-3.3365,-2.9913,-2.6506,-2.3199,0.0,-2.1054,-2.0604,-2.1107,-2.2008,-2.3302,0.0,-2.6796,-2.9394,-3.1269,-3.2891,-3.4355,-3.5391,-3.5918,-3.5684,-3.5859,-3.5898,-3.5664,-3.3605,-3.2287,-3.2094,-3.1086,-3.0513,-3.0498,-3.043,-3.0044,-2.9275,-2.9159,-2.8371,-2.6928,-2.6813,-2.6332,-2.5476,-2.5476,-2.5399,-2.5303,-2.5303,-2.5303,-2.5303,-2.5303,-2.5303,-2.5274,-2.5099,-2.4956,-2.4799,-2.4607,-2.441,-2.4155,0.0,0.0,0.0,0.0,0.0,0.0,0.0,0.0,0.0,0.0,0.0,0.0,0.0,0.0,0.0,0.0,0.0,0.0,0.0,0.0,0.0,0.0,0.0,0.0,0.0,0.0,0.0,0.0,0.0,0.0,0.0,0.0,0.0,0.0,0.0,0.0,0.0,0.0,0.0,0.0,0.0,0.0,0.0,0.0,0.0,0.0,0.0,0.0,0.0,0.0,-2.8345,-2.963,-3.2146,-3.4531,-3.6621,-3.7793,-3.9746,-4.1757,-4.2887,-4.3824,-4.4072,-4.244,-3.9457,-3.5872,-3.1763,-2.8099,0.0,0.0,0.0,-2.0511,-2.1922,-2.1822,0.0,-2.5648,0.0,0.0,0.0,0.0,-3.3301,0.0,0.0,0.0,0.0,0.0,0.0,0.0,-3.4082,-3.3881,-3.309,-3.1539,-3.0603,-3.0507,-3.043,-3.0321,-3.0179,-2.9467,-2.8948,-2.8659,-2.7986,-2.7217,-2.637,-2.637,-2.5986,-2.5303,-2.5303,0.0,-2.5303,-2.5303,-2.5303,-2.5303,-2.5264,-2.513,-2.4949,-2.4799,-2.4623,-2.4391,0.0,0.0,0.0,0.0,0.0,0.0,0.0,0.0,0.0,0.0,0.0,0.0,0.0,0.0,0.0,0.0,0.0,0.0,0.0,0.0,0.0,0.0,0.0,0.0,0.0,0.0,-1.5378,-1.5345,0.0,0.0,0.0,-1.6813,-1.7474,0.0,0.0,0.0,0.0,0.0,0.0,0.0,0.0,0.0,0.0,0.0,0.0,0.0,0.0,0.0,0.0,0.0,-2.6924,-2.8759,-3.2792,-3.5213,-3.6479,-3.5991,-3.8595,-4.1519,-4.0983,-4.2677,-4.4178,-4.2424,-3.9007,-3.4955,-3.0681,0.0,0.0,0.0,0.0,-2.0089,-2.1063,0.0,0.0,0.0,0.0,0.0,0.0,0.0,0.0,0.0,0.0,0.0,0.0,0.0,0.0,0.0,-3.3398,-3.3202,-3.2749,-3.1448,-3.0642,-3.0567,-3.0491,-3.0442,-3.0442,-3.0001,-2.9544,-2.9083,-2.8275,-2.7448,-2.6582,-2.614,-2.5687,-2.5303,-2.5303,-2.5303,-2.5303,-2.5303,-2.5303,-2.5303,-2.5303,-2.5173,-2.4998,-2.4943,-2.4814,-2.4623,0.0,0.0,0.0,0.0,0.0,0.0,0.0,0.0,0.0,0.0,0.0,0.0,0.0,0.0,0.0,0.0,0.0,0.0,0.0,0.0,0.0,0.0,0.0,0.0,0.0,0.0,0.0,-1.5311,-1.5501,0.0,0.0,0.0,0.0,0.0,-1.7486,0.0,0.0,0.0,0.0,0.0,0.0,0.0,0.0,0.0,0.0,0.0,0.0,0.0,0.0,0.0,-2.4774,-2.6727,-3.1276,-3.3775,-3.4811,-3.3623,-3.6626,-4.0108,-3.9093,-4.1461,-4.3802,-4.2112,-3.8286,-3.3859,-2.9735,-2.5929,0.0,0.0,-1.9847,-1.9919,-2.0222,0.0,0.0,0.0,0.0,0.0,0.0,0.0,0.0,0.0,0.0,0.0,0.0,0.0,0.0,0.0,-3.2285,-3.1914,-3.1914,-3.1142,-3.068,-3.0608,-3.0567,-3.0513,-3.0513,-3.0452,-3.007,-2.9387,-2.8739,-2.789,-2.6851,-2.6178,-2.5649,-2.5303,-2.5303,-2.5303,-2.5303,-2.5303,-2.5303,-2.5303,-2.5303,-2.5203,-2.5046,-2.5022,-2.4924,-2.4814,0.0,0.0,0.0,0.0,0.0,0.0,0.0,0.0,0.0,0.0,0.0,0.0,0.0,0.0,0.0,0.0,0.0,0.0,0.0,0.0,0.0,0.0,0.0,0.0,0.0,0.0,0.0,-1.5302,-1.609,0.0,0.0,0.0,0.0,0.0,0.0,-1.6764,-1.6855,0.0,0.0,0.0,0.0,0.0,0.0,0.0,0.0,0.0,0.0,0.0,0.0,0.0,0.0,-2.3521,-2.5604,-2.9017,-3.2387,-3.303,0.0,0.0,-4.0119,-4.1858,-4.2886,-4.1099,-3.6848,-3.2205,-2.8636,0.0,0.0,-2.0051,-1.9847,-2.0153,-2.1024,-2.0601,-2.072,0.0,0.0,0.0,0.0,0.0,0.0,0.0,0.0,0.0,0.0,0.0,0.0,-3.123,-3.1055,-3.1016,-3.1016,-3.0829,-3.0693,-3.069,-3.0633,-3.0594,-3.0594,-3.0521,-3.0442,-3.0365,-3.0227,-2.9333,-2.7775,-2.7698,-2.6794,-2.5303,-2.5303,-2.5303,0.0,-2.5303,-2.5303,-2.5303,-2.5303,-2.5303,-2.5253,-2.5077,-2.4998,-2.4962,0.0,0.0,0.0,0.0,0.0,0.0,0.0,0.0,0.0,0.0,0.0,0.0,0.0,0.0,0.0,0.0,0.0,0.0,0.0,0.0,0.0,0.0,0.0,0.0,0.0,0.0,-1.5651,-1.5298,-1.5656,0.0,0.0,0.0,0.0,0.0,0.0,-1.6816,-1.7244,0.0,0.0,0.0,0.0,0.0,0.0,0.0,0.0,0.0,0.0,0.0,0.0,0.0,0.0,0.0,-2.1841,-2.3736,0.0,0.0,-3.0734,-3.5078,-3.5148,-3.7977,-4.0597,-3.9321,-3.5161,-3.0617,-2.7596,0.0,0.0,-2.0051,-1.9854,-1.9983,-2.0439,-2.0289,-2.0389,0.0,0.0,0.0,0.0,0.0,0.0,0.0,0.0,0.0,0.0,0.0,0.0,-3.0957,-3.0898,-3.0898,-3.0898,-3.0857,-3.0816,-3.0816,-3.071,-3.0665,-3.0665,-3.06,-3.0545,-3.0479,-2.9447,-2.857,-2.7852,-2.6813,-2.5967,-2.5303,-2.5303,-2.5591,0.0,-2.5514,-2.561,-2.6024,-2.5495,-2.5303,-2.5284,-2.5214,-2.5173,-2.5152,0.0,0.0,0.0,0.0,0.0,0.0,0.0,0.0,0.0,0.0,0.0,0.0,0.0,0.0,0.0,0.0,0.0,0.0,0.0,0.0,0.0,0.0,0.0,0.0,0.0,0.0,-1.5531,-1.5279,-1.5541,-1.5545,0.0,0.0,-1.5865,-1.6222,0.0,0.0,0.0,0.0,0.0,0.0,0.0,0.0,0.0,0.0,0.0,0.0,0.0,0.0,0.0,0.0,0.0,0.0,0.0,0.0,0.0,0.0,-2.6611,-3.1041,-3.1111,-3.4039,-3.6974,-3.6593,-3.284,-2.866,0.0,0.0,-2.0649,-1.9998,-1.9873,-1.9877,-1.9974,-2.0077,-2.0162,-2.0276,0.0,-2.0029,0.0,0.0,0.0,0.0,0.0,0.0,0.0,0.0,0.0,-3.0898,-3.0898,-3.0898,-3.0898,-3.0898,-3.0898,-3.0898,-3.0814,-3.0767,-3.0767,-3.0669,-3.0611,-3.0535,-2.9319,-2.8451,-2.7894,-2.6641,-2.5928,-2.5668,-2.5399,-2.5947,0.0,-2.6043,-2.6197,-2.6909,-2.6024,-2.5851,-2.6043,-2.5793,-2.5668,-2.5658,0.0,0.0,0.0,0.0,0.0,0.0,0.0,0.0,0.0,0.0,0.0,0.0,0.0,0.0,0.0,0.0,0.0,0.0,0.0,0.0,0.0,0.0,0.0,0.0,0.0,0.0,-1.6055,-1.5204,-1.6135,-1.6145,-1.5318,-1.6105,-1.6066,-1.5357,0.0,0.0,0.0,0.0,0.0,0.0,0.0,0.0,0.0,0.0,0.0,0.0,0.0,0.0,0.0,0.0,0.0,0.0,0.0,0.0,0.0,0.0,-2.4378,-2.6942,-2.9583,-3.0925,-3.1795,-3.2724,-2.9728,-2.627,0.0,0.0,-1.99,-1.9832,-1.9903,-1.9993,-1.9988,-2.0108,-2.0214,-2.0289,-2.0344,0.0,0.0,0.0,0.0,0.0,0.0,0.0,0.0,0.0,-3.0898,-3.0898,-3.0898,0.0,-3.0898,-3.0898,-3.0898,-3.0898,-3.0898,-3.0898,-3.0898,-3.0769,-3.0693,-3.0693,-3.0542,-2.9597,-2.8008,-2.7904,-2.739,-2.6544,-2.5668,-2.6274,0.0,-2.6948,-2.7101,-2.7794,-2.6928,-2.7101,-2.7775,-2.6909,-2.6582,-2.6601,0.0,0.0,0.0,0.0,0.0,0.0,0.0,0.0,0.0,0.0,0.0,0.0,0.0,0.0,0.0,0.0,0.0,0.0,0.0,0.0,0.0,0.0,0.0,0.0,0.0,0.0,-1.5488,-1.5204,-1.551,-1.552,-1.5299,-1.5515,-1.5471,-1.5245,-1.5501,-1.5618,0.0,0.0,0.0,0.0,0.0,0.0,0.0,0.0,0.0,0.0,0.0,0.0,0.0,0.0,0.0,0.0,0.0,0.0,0.0,-2.0589,-2.2618,0.0,-2.6376,-2.785,-2.9036,-2.9289,-2.6974,-2.44,-2.3448,0.0,-1.9873,-1.9818,-1.9908,-2.0004,-1.9988,-2.0068,-2.0153,-2.0217,-2.0295,0.0,0.0,0.0,0.0,0.0,0.0,0.0,0.0,0.0,-3.0898,-3.0898,-3.0898,-3.0898,-3.0898,-3.0898,-3.0898,-3.0898,-3.0898,-3.0898,-3.0898,-3.0858,-3.0792,-3.0693,-3.0058,-2.9123,-2.8008,-2.7923,-2.7409,-2.6621,-2.6948,-2.7698,-2.8659,-2.7832,-2.7986,-2.864,-2.7813,-2.7659,-2.7794,-2.6928,-2.6986,-2.739,0.0,0.0,0.0,0.0,0.0,0.0,0.0,0.0,0.0,0.0,0.0,0.0,0.0,0.0,0.0,0.0,0.0,0.0,0.0,0.0,0.0,0.0,0.0,0.0,0.0,-1.5195,-1.5195,-1.5193,-1.5204,-1.5215,-1.5264,-1.5215,-1.5204,-1.5199,-1.5164,-1.5159,0.0,0.0,0.0,0.0,0.0,0.0,-1.521,0.0,0.0,0.0,0.0,0.0,0.0,0.0,0.0,0.0,0.0,0.0,0.0,0.0,-2.0809,-2.2536,0.0,-2.4476,-2.5416,-2.5688,-2.4293,0.0,0.0,0.0,-1.9904,-1.9885,-1.9958,-2.0058,-2.0098,-2.0152,-2.02,-2.0224,-2.0288,0.0,0.0,0.0,0.0,0.0,0.0,0.0,0.0,-3.0663,-3.0857,-3.0898,-3.0898,-3.0898,-3.0898,-3.0898,-3.0898,-3.0898,-3.0898,-3.0898,-3.0898,-3.0898,-3.0682,-3.0283,-2.9702,-2.8768,-2.7563,-2.7815,-2.7634,-2.7121,-2.7659,-2.8544,0.0,-2.8679,-2.8832,-2.9506,-2.8679,-2.8544,-2.8736,-2.7852,-2.789,-2.8275,0.0,0.0,0.0,0.0,0.0,0.0,0.0,0.0,0.0,0.0,0.0,0.0,0.0,0.0,0.0,0.0,0.0,0.0,0.0,0.0,0.0,0.0,0.0,0.0,0.0,-1.5203,-1.5203,-1.5189,-1.5193,-1.5204,-1.5204,-1.5204,-1.5182,-1.519,-1.5133,-1.5095,-1.5101,-1.517,-1.5207,-1.5214,-1.5278,-1.5264,0.0,0.0,0.0,0.0,0.0,0.0,0.0,0.0,0.0,0.0,0.0,0.0,0.0,0.0,0.0,0.0,0.0,0.0,0.0,0.0,0.0,0.0,0.0,0.0,0.0,0.0,-2.005,-2.0134,-2.0258,-2.0289,-2.0295,-2.0296,-2.0341,0.0,0.0,0.0,0.0,0.0,0.0,0.0,-2.9413,-3.0243,-3.071,-3.0703,-3.082,-3.0879,-3.0801,-3.0879,-3.0898,-3.0898,-3.0898,-3.0898,-3.0898,-3.084,-3.043,-2.9687,-2.9498,-2.8571,-2.7021,-2.7755,-2.8048,0.0,-2.8055,-2.8967,-3.034,-2.9525,-2.9679,-3.0321,-2.9506,-2.9698,-3.0283,-2.941,-2.914,-2.9179,0.0,0.0,0.0,0.0,0.0,0.0,0.0,0.0,0.0,0.0,0.0,0.0,0.0,0.0,0.0,0.0,0.0,0.0,0.0,0.0,0.0,0.0,0.0,0.0,0.0,-1.5193,-1.5207,-1.5189,-1.5195,-1.5195,-1.5209,-1.5158,-1.5114,-1.5113,-1.5119,-1.5092,-1.5099,-1.5114,-1.5159,-1.5203,-1.5218,-1.5199,0.0,0.0,0.0,0.0,-1.5193,-1.5193,0.0,0.0,0.0,0.0,0.0,0.0,0.0,0.0,-1.9213,-1.9903,-2.0075,0.0,-2.0198,-2.0406,-2.0335,0.0,0.0,0.0,0.0,0.0,0.0,0.0,0.0,-2.0188,-2.0217,-2.0227,-2.0328,0.0,0.0,0.0,0.0,0.0,0.0,0.0,-2.8637,-2.9937,-3.0312,-2.9004,-3.0156,-3.0605,-2.9941,-3.0547,-3.0898,-3.0898,-3.0898,-3.0898,-3.0898,-3.0234,-3.0137,-3.0586,-2.9166,-2.8622,-2.8873,-2.889,-2.8904,-2.8925,-2.955,-3.0044,-3.0379,-3.0179,-3.0217,-3.0379,-3.0179,-3.0217,-3.0283,-2.941,-2.9525,-3.0006,0.0,0.0,0.0,0.0,0.0,0.0,0.0,0.0,0.0,0.0,0.0,0.0,0.0,0.0,0.0,0.0,0.0,0.0,0.0,0.0,0.0,0.0,0.0,0.0,-1.5193,-1.5193,-1.5207,-1.5189,-1.5189,-1.5183,-1.5146,-1.5127,-1.5087,-1.5057,-1.5049,-1.5049,-1.5071,-1.512,-1.5172,-1.5197,-1.5199,0.0,0.0,0.0,0.0,0.0,-1.5209,-1.5189,0.0,-1.5664,-1.6051,-1.6346,0.0,0.0,0.0,0.0,-1.8595,-1.9341,-1.9707,-1.9825,-1.9854,-1.98,-1.9866,-1.9938,0.0,0.0,0.0,0.0,0.0,0.0,0.0,0.0,0.0,0.0,-2.1242,0.0,0.0,0.0,0.0,0.0,0.0,0.0,0.0,-2.989,-2.9879,-2.8965,-2.9394,-2.9687,-2.9609,-3.0059,-3.0488,-3.0898,-3.0508,-3.0293,-3.0293,-2.9844,-2.9434,-2.9101,-2.8121,-2.7878,-2.8318,-2.8603,-2.8936,-2.9336,-3.0139,-3.0463,-3.0451,-3.0451,-3.0428,-3.0398,-3.0398,-3.0398,-3.034,-2.9871,-2.9737,-2.9737,0.0,0.0,0.0,0.0,0.0,0.0,0.0,0.0,0.0,0.0,0.0,0.0,0.0,0.0,0.0,0.0,0.0,0.0,0.0,0.0,0.0,0.0,0.0,-1.5201,-1.5195,-1.5195,-1.5195,-1.5195,-1.5195,-1.5177,-1.5101,-1.5101,-1.5052,-1.4976,-1.4968,-1.492,-1.481,-1.5062,-1.5101,-1.5018,-1.5155,0.0,0.0,0.0,0.0,0.0,0.0,0.0,0.0,-1.5076,-1.5546,-1.5987,-1.5161,0.0,0.0,0.0,0.0,0.0,-1.9582,-1.9849,-1.9877,-1.9835,-1.9911,-2.0004,0.0,0.0,0.0,0.0,0.0,0.0,0.0,0.0,0.0,0.0,0.0,0.0,0.0,0.0,0.0,0.0,0.0,0.0,-3.0267,-2.9704,-2.9287,-2.9219,-2.8633,-2.8555,-2.918,-2.9336,-2.9746,-3.0488,-2.9785,-2.9336,-2.9199,-2.9199,-2.8535,-2.7207,-2.7051,-2.7107,-2.7347,-2.8062,-2.8837,-2.9635,-3.0308,0.0,-3.0498,-3.05,-3.0442,-3.0398,-3.0398,-3.0398,-3.0398,-3.0398,-2.9852,-2.9102,0.0,0.0,0.0,0.0,0.0,0.0,0.0,0.0,0.0,0.0,0.0,0.0,0.0,0.0,0.0,0.0,0.0,0.0,0.0,0.0,0.0,0.0,-1.5193,-1.519,-1.5199,-1.5199,-1.5199,-1.5199,-1.5201,-1.5178,-1.5105,-1.5106,-1.5038,-1.4919,-1.4921,-1.4541,-1.394,-1.4703,-1.4665,-1.4162,-1.4902,0.0,0.0,0.0,0.0,0.0,0.0,0.0,0.0,-1.4865,-1.5184,-1.525,-1.506,0.0,0.0,0.0,0.0,0.0,-1.9582,-1.9813,-1.9835,-1.9945,-2.0029,-2.0069,0.0,0.0,0.0,0.0,0.0,0.0,0.0,0.0,0.0,0.0,0.0,0.0,0.0,0.0,0.0,0.0,0.0,-2.9249,-2.865,-2.853,-2.8183,-2.7441,-2.7969,-2.8047,-2.7422,-2.8105,-2.8555,-2.8691,-2.8574,-2.8144,-2.7402,-2.7402,-2.7637,-2.8086,-2.7344,-2.7773,-2.9199,-2.9262,-2.9734,-3.0505,0.0,-3.0516,-3.049,-3.043,-3.0402,-3.0398,-3.0398,-3.0398,-3.0398,-3.0398,-2.9852,-2.9102,0.0,0.0,0.0,0.0,0.0,0.0,0.0,0.0,0.0,0.0,0.0,0.0,0.0,0.0,0.0,0.0,0.0,0.0,0.0,0.0,0.0,-1.5203,-1.5199,-1.5204,-1.5201,-1.5207,-1.5207,-1.5207,-1.5189,-1.5165,-1.509,-1.5027,-1.4952,-1.4875,-1.4447,-1.4054,-1.3728,-1.4166,-1.3902,-1.3263,0.0,0.0,0.0,0.0,0.0,0.0,0.0,0.0,0.0,0.0,-1.4737,-1.5085,-1.5027,0.0,0.0,0.0,0.0,0.0,-1.8887,-1.9444,-1.9717,-1.943,-1.9697,0.0,0.0,0.0,0.0,0.0,0.0,0.0,0.0,0.0,0.0,0.0,0.0,0.0,0.0,0.0,0.0,0.0,0.0,-2.8154,-2.8198,-2.7828,-2.7422,-2.7031,-2.6934,-2.6934,-2.6992,-2.7383,-2.7812,-2.8281,-2.7832,-2.7402,-2.6992,-2.6523,-2.6504,-2.6894,-2.6973,-2.7676,-2.8906,-2.9353,-3.0014,-3.0793,0.0,-3.0691,-3.0617,-3.0575,-3.0513,-3.0452,-3.0452,-3.013,-2.964,-2.9217,-2.8794,-2.8506,0.0,0.0,0.0,0.0,0.0,0.0,0.0,0.0,0.0,0.0,0.0,0.0,0.0,0.0,0.0,0.0,0.0,0.0,0.0,0.0,-1.522,-1.5209,-1.5207,-1.5207,-1.5197,-1.5203,-1.5189,-1.5209,-1.5177,-1.5133,-1.5076,-1.4938,-1.4886,-1.4876,-1.4254,-1.388,-1.3705,-1.3767,-1.3335,-1.2659,0.0,0.0,0.0,0.0,0.0,0.0,0.0,0.0,0.0,0.0,0.0,0.0,0.0,0.0,0.0,-1.5903,-1.6544,-1.7232,-1.8241,-1.9023,-1.9477,-1.9173,0.0,0.0,0.0,0.0,0.0,0.0,0.0,0.0,0.0,0.0,0.0,0.0,0.0,0.0,0.0,-2.7832,-2.7537,-2.814,-2.7495,-2.7323,-2.8149,-2.7301,-2.6777,-2.6973,-2.6191,-2.5996,-2.666,-2.6699,-2.6992,-2.7676,-2.7031,-2.6699,-2.6699,-2.6035,-2.5703,-2.5703,-2.6582,-2.7344,-2.8027,-2.8906,-2.9766,-3.0586,-3.0585,-3.0618,-3.0674,-3.0469,-3.0417,-3.046,-3.0072,-2.9574,-2.8986,-2.8198,-2.8025,-2.8236,0.0,0.0,0.0,0.0,0.0,0.0,0.0,0.0,0.0,0.0,0.0,0.0,0.0,0.0,0.0,0.0,0.0,0.0,0.0,0.0,-1.5273,-1.5197,-1.5209,-1.5209,-1.5197,-1.5203,-1.5209,-1.5197,-1.514,-1.5068,-1.5003,-1.4867,-1.4841,-1.4896,-1.4847,-1.4392,-1.3705,-1.3771,-1.3335,-1.2609,-1.266,0.0,0.0,0.0,0.0,0.0,0.0,0.0,0.0,0.0,0.0,0.0,0.0,0.0,-1.5166,-1.5965,-1.614,-1.6455,-1.8135,-1.868,-1.896,-1.9732,0.0,0.0,0.0,0.0,0.0,0.0,0.0,0.0,0.0,0.0,0.0,0.0,0.0,0.0,0.0,0.0,-2.8201,-2.8198,-2.7495,-2.7344,-2.8203,-2.6777,-2.6133,-2.6934,-2.6191,-2.5723,-2.5781,-2.5781,-2.582,-2.5898,-2.582,-2.5781,-2.5781,-2.5723,-2.5703,-2.5703,-2.6582,-2.7031,-2.7129,-2.8008,-2.8867,-2.9687,-2.9636,-3.0013,-3.0635,-2.9762,-2.9836,-3.0344,-2.8786,-2.856,-2.8986,-2.8198,-2.8371,-2.8909,0.0,0.0,0.0,0.0,0.0,0.0,0.0,0.0,0.0,0.0,0.0,0.0,0.0,0.0,0.0,0.0,0.0,0.0,0.0,0.0,-1.4637,-1.5121,-1.5171,-1.5159,-1.5085,-1.5172,-1.5184,-1.514,-1.5026,-1.4957,-1.4917,-1.4323,-1.4362,-1.4857,-1.3853,-1.3524,-1.3678,-1.3245,-1.2566,-1.1834,-1.238,-1.2462,0.0,0.0,0.0,0.0,0.0,0.0,0.0,0.0,-1.3656,-1.4437,-1.4934,-1.5078,-1.5118,-1.5383,-1.5742,-1.6214,-1.6872,-1.8129,-1.9094,-1.8429,0.0,0.0,0.0,0.0,0.0,0.0,0.0,0.0,0.0,0.0,0.0,0.0,0.0,0.0,-2.8667,-2.8027,-2.748,-2.7457,-2.6718,-2.6328,-2.6641,-2.6094,-2.584,-2.6172,-2.5898,-2.5703,-2.5703,-2.5703,-2.5703,-2.5703,-2.5703,-2.5703,-2.5703,-2.5703,-2.5703,-2.5703,-2.6582,-2.6992,-2.7031,-2.7891,-2.8476,-2.8789,-2.8767,-2.8921,-2.9175,-2.8815,-2.8828,-2.8948,-2.7731,-2.7726,-2.8309,-2.7459,-2.7673,-2.8313,0.0,0.0,0.0,0.0,0.0,0.0,0.0,0.0,0.0,0.0,0.0,0.0,0.0,0.0,0.0,0.0,0.0,0.0,0.0,-1.3459,-1.4269,-1.5101,-1.5159,-1.5133,-1.5038,-1.512,-1.5146,-1.5078,-1.4936,-1.4867,-1.4849,-1.4232,-1.4297,-1.4857,-1.3758,-1.358,-1.4065,-1.3302,-1.2477,-1.1702,-1.2055,-1.1836,0.0,0.0,0.0,0.0,0.0,0.0,0.0,0.0,-1.3218,-1.4063,-1.4878,-1.512,-1.5099,-1.5049,-1.5548,-1.613,-1.612,-1.7689,-1.9,0.0,0.0,0.0,0.0,0.0,0.0,0.0,0.0,0.0,0.0,0.0,0.0,0.0,-2.7022,-2.7557,-2.7851,-2.7148,-2.6582,-2.6582,-2.6055,-2.5703,-2.5703,-2.5703,-2.5703,-2.5703,-2.5703,-2.5703,-2.5703,-2.5703,-2.5703,-2.5703,-2.5703,-2.5703,-2.5703,-2.5703,-2.5703,-2.5703,-2.6309,-2.6582,-2.6602,-2.7207,-2.7637,-2.7891,-2.7891,-2.8047,-2.8281,-2.8008,-2.7691,-2.7332,-2.6943,-2.7136,-2.7547,-2.6946,-2.7058,-2.7528,0.0,0.0,0.0,0.0,0.0,0.0,0.0,0.0,0.0,0.0,0.0,0.0,0.0,0.0,0.0,0.0,0.0,0.0,-1.2647,-1.344,-1.4286,-1.5151,-1.5121,-1.5094,-1.5094,-1.5099,-1.5076,-1.4998,-1.4859,-1.4813,-1.4803,-1.4724,-1.4764,-1.4896,-1.4896,-1.4931,-1.4942,-1.4137,-1.3296,-1.2446,-1.1643,-1.132,-1.1216,0.0,0.0,0.0,0.0,0.0,0.0,0.0,-1.3263,-1.413,-1.4945,-1.5152,-1.5101,-1.5094,-1.5609,-1.6208,-1.6204,-1.7425,0.0,0.0,0.0,0.0,0.0,0.0,0.0,0.0,0.0,0.0,0.0,0.0,0.0,-2.559,-2.5593,-2.5924,-2.6855,-2.623,-2.5703,-2.5703,-2.5703,-2.5703,-2.5703,-2.5703,-2.5703,-2.5703,-2.5703,-2.5703,-2.5703,-2.5703,-2.5703,-2.5703,-2.5703,-2.5703,-2.5703,-2.5703,-2.5703,-2.5703,-2.5703,-2.5703,-2.5703,-2.5703,-2.6172,-2.6992,-2.6992,-2.748,-2.8203,-2.7344,-2.6442,-2.5676,-2.6481,-2.6801,-2.6801,-2.6801,-2.6754,-2.6695,0.0,0.0,0.0,0.0,0.0,0.0,0.0,0.0,0.0,0.0,0.0,0.0,0.0,0.0,0.0,0.0,0.0,0.0,0.0,-1.3191,-1.3633,-1.5075,-1.5078,-1.5015,-1.4968,-1.4963,-1.4957,-1.493,-1.4804,-1.4718,-1.4727,-1.4071,-1.4157,-1.4794,-1.425,-1.4331,-1.4873,-1.4076,-1.3576,-1.3263,-1.2477,-1.1815,-1.1282,0.0,0.0,0.0,0.0,0.0,0.0,0.0,0.0,0.0,-1.475,-1.5568,-1.5901,-1.5274,-1.5617,-1.6221,-1.6255,-1.6933,0.0,0.0,0.0,0.0,0.0,0.0,0.0,0.0,0.0,0.0,0.0,0.0,0.0,-2.559,-2.5634,-2.5761,-2.6055,-2.5859,-2.5703,-2.5703,-2.5703,-2.5703,-2.5703,-2.5703,-2.5703,-2.5703,-2.5703,-2.5703,-2.5703,-2.5703,-2.5703,-2.5703,-2.5703,-2.5703,-2.5703,-2.5703,-2.5703,-2.5703,-2.5703,-2.5703,-2.5703,-2.5703,-2.584,-2.6094,-2.6094,-2.623,-2.6445,-2.6191,-2.5918,-2.5681,-2.593,-2.6364,-2.6805,-2.6185,-2.6305,-2.6689,0.0,0.0,0.0,0.0,0.0,0.0,0.0,0.0,0.0,0.0,-1.0038,0.0,0.0,0.0,0.0,0.0,0.0,0.0,0.0,0.0,-1.3347,-1.504,-1.4725,-1.4483,-1.4395,-1.4051,-1.4016,-1.4307,-1.4549,-1.4658,-1.4656,-1.4103,-1.418,-1.4744,-1.4251,-1.4335,-1.4822,-1.4341,-1.3942,-1.3599,-1.2787,-1.1983,-1.1269,0.0,0.0,0.0,0.0,0.0,0.0,0.0,0.0,0.0,-1.4299,0.0,-1.5831,-1.5287,-1.5445,-1.5808,-1.5823,0.0,0.0,0.0,0.0,0.0,0.0,0.0,0.0,0.0,0.0,0.0,0.0,-2.5098,0.0,-2.5551,-2.5629,-2.5662,-2.5703,-2.5391,-2.5176,-2.5176,-2.5176,-2.5176,-2.5176,-2.5508,-2.5703,-2.5703,-2.5703,-2.5703,-2.5703,-2.5703,-2.5703,-2.5703,-2.5703,-2.5703,-2.5703,-2.5703,-2.5703,-2.5703,-2.5703,-2.5703,-2.5703,-2.5703,-2.5703,-2.5703,-2.5703,-2.5703,-2.5703,-2.5703,-2.5703,-2.5703,-2.5703,-2.5994,-2.6357,-2.5831,-2.593,-2.6256,0.0,0.0,0.0,0.0,0.0,0.0,0.0,0.0,0.0,0.0,-1.0391,-1.0945,0.0,0.0,0.0,0.0,0.0,0.0,0.0,0.0,-1.3226,-1.4892,-1.4128,-1.3595,-1.3478,-1.2699,-1.2613,-1.3268,-1.399,-1.4397,-1.4467,-1.4412,-1.4501,-1.4672,-1.4701,-1.4724,-1.4775,-1.4794,-1.4363,-1.3616,-1.2746,-1.1988,-1.13,-1.0435,0.0,0.0,0.0,0.0,0.0,0.0,0.0,0.0,-1.3706,-1.4549,-1.5193,-1.5201,-1.5247,-1.5254,0.0,0.0,0.0,0.0,0.0,0.0,0.0,0.0,0.0,0.0,0.0,0.0,0.0,-2.5258,-2.5369,-2.5279,-2.5398,-2.5475,-2.5468,-2.4785,-2.4297,-2.4277,-2.4277,-2.4277,-2.4297,-2.5,-2.5469,-2.5469,-2.5469,-2.5469,-2.5469,-2.5469,-2.5469,-2.5469,-2.5469,-2.5508,-2.5586,-2.5586,-2.5625,-2.5703,-2.5703,-2.5703,-2.5703,-2.5703,-2.5703,-2.5703,-2.5703,-2.5703,-2.5703,-2.5703,-2.5703,-2.5703,-2.5703,-2.5703,-2.5703,-2.5703,-2.566,-2.5605,0.0,0.0,0.0,0.0,0.0,0.0,0.0,0.0,0.0,0.0,0.0,0.0,0.0,0.0,0.0,0.0,0.0,0.0,0.0,0.0,-1.2223,-1.386,-1.3085,-1.2579,-1.2497,-1.2261,-1.2188,-1.2305,-1.247,-1.2874,-1.3494,-1.3483,-1.3857,-1.4541,0.0,-1.4624,-1.4645,-1.4703,-1.4614,-1.4336,-1.2901,-1.2252,-1.2007,-1.0578,-1.0049,0.0,0.0,0.0,0.0,0.0,0.0,0.0,-1.3517,-1.4514,-1.5133,-1.5182,-1.5534,-1.5801,0.0,0.0,0.0,0.0,0.0,0.0,0.0,0.0,0.0,0.0,0.0,0.0,-2.3527,-2.4498,-2.4974,-2.3663,-2.409,-2.4354,-2.3758,-2.3533,-2.3437,-2.3398,-2.3379,-2.3398,-2.3457,-2.3574,-2.3652,-2.3652,-2.3668,-2.3686,-2.373,-2.3687,-2.3687,-2.373,-2.373,-2.4043,-2.4668,-2.4687,-2.5019,-2.5703,-2.5703,-2.5703,-2.5703,-2.5703,-2.5703,-2.5703,-2.5703,-2.5703,-2.5703,-2.5703,-2.5703,-2.5703,-2.5703,-2.5703,-2.5703,-2.5703,-2.5683,-2.5683,0.0,0.0,0.0,0.0,0.0,0.0,0.0,0.0,0.0,0.0,0.0,0.0,0.0,0.0,0.0,0.0,0.0,0.0,0.0,0.0,0.0,-1.2338,-1.1916,-1.162,-1.1489,-1.1068,-1.0977,-1.1232,-1.0861,0.0,0.0,0.0,0.0,-1.4446,0.0,-1.4519,-1.4552,-1.4592,-1.4635,-1.4585,-1.3328,-1.2651,-1.2219,-1.1024,-1.0353,-1.0058,-1.0049,0.0,0.0,0.0,0.0,0.0,0.0,0.0,-1.452,-1.4538,-1.4781,-1.4958,0.0,0.0,0.0,0.0,0.0,0.0,0.0,0.0,0.0,0.0,0.0,0.0,-2.2932,-2.3562,-2.3891,-2.303,-2.332,-2.3486,-2.3101,-2.273,-2.2463,-2.2424,-2.2424,-2.2468,-2.2515,-2.2886,-2.3101,-2.3101,-2.3095,-2.3107,-2.3109,-2.3076,-2.3074,-2.3109,-2.3137,-2.3356,-2.3766,-2.3788,-2.4219,-2.5078,-2.5078,-2.5293,-2.5703,-2.5703,-2.5703,-2.5703,-2.5703,-2.5703,-2.5703,-2.5703,-2.5703,-2.5703,-2.5703,-2.5703,-2.5703,-2.5703,-2.5703,-2.5703,0.0,0.0,0.0,0.0,0.0,0.0,0.0,0.0,0.0,0.0,0.0,0.0,0.0,0.0,0.0,0.0,0.0,0.0,0.0,0.0,0.0,0.0,-1.0737,-1.0638,-1.0465,-0.9789,-0.9698,-1.0189,0.0,0.0,0.0,0.0,0.0,-1.4367,0.0,-1.452,-1.4474,-1.4632,-1.4678,-1.4577,-1.3716,-1.303,-1.2402,-1.167,-1.0986,-1.0406,-1.0421,-1.0404,-1.0401,-1.0326,0.0,0.0,0.0,0.0,-1.3683,-1.3786,-1.3946,-1.406,0.0,0.0,0.0,0.0,0.0,0.0,0.0,0.0,0.0,0.0,0.0,-2.2581,-2.2581,-2.2581,-2.25,-2.2268,-2.2353,-2.2363,-2.2138,-2.1741,-2.1372,-2.1083,-2.1177,-2.123,-2.1147,-2.1776,-2.2264,-2.2418,-2.2413,-2.2458,-2.2547,-2.2535,-2.2535,-2.2543,-2.2617,-2.2713,-2.2873,-2.2887,-2.3398,-2.4394,-2.4551,-2.5,-2.5703,-2.5703,-2.5703,-2.5703,-2.5703,-2.5703,-2.5703,-2.5703,-2.5703,-2.5703,-2.5703,-2.5703,-2.5703,-2.5703,-2.5703,-2.5703,0.0,0.0,0.0,0.0,0.0,0.0,0.0,0.0,0.0,0.0,0.0,0.0,0.0,0.0,0.0,0.0,0.0,0.0,0.0,0.0,0.0,0.0,-0.973,-0.9636,-0.948,-0.9318,-0.9286,-0.9366,0.0,0.0,0.0,0.0,0.0,-1.4247,0.0,0.0,-1.438,-1.5127,-1.5068,-1.4378,-1.3624,-1.3288,-1.317,-1.2433,-1.2124,-1.2083,-1.2079,-1.2069,-1.1971,-1.1354,-1.1212,0.0,0.0,0.0,-1.2917,-1.3664,-1.4386,0.0,0.0,0.0,0.0,0.0,0.0,0.0,0.0,0.0,0.0,0.0,0.0,-2.1677,-2.1677,-2.1677,-2.1205,-1.9764,-2.0154,-2.0144,-1.8698,-1.969,-2.0025,-1.8582,-1.9062,-1.9237,-1.8493,-1.8532,-1.8919,-1.965,-1.9666,-1.9963,-2.0702,-2.0692,-2.0686,-2.0741,-2.0768,-2.1143,-2.1973,-2.1977,-2.2787,-2.4414,-2.5176,-2.5586,-2.5703,-2.5703,-2.5703,-2.5703,-2.5703,-2.5703,-2.5703,-2.5703,-2.5703,-2.5703,-2.5703,-2.5703,-2.5703,-2.5703,-2.5703,-2.5703,0.0,0.0,0.0,0.0,0.0,0.0,0.0,0.0,0.0,0.0,0.0,0.0,0.0,0.0,0.0,0.0,0.0,0.0,0.0,0.0,0.0,0.0,-0.9491,-0.9421,-0.9249,-0.9243,-0.9194,0.0,0.0,0.0,0.0,-1.1873,-1.3022,0.0,0.0,0.0,0.0,0.0,-1.5447,-1.4411,-1.4538,-1.4084,-1.3313,-1.3021,-1.2685,-1.2389,-1.2723,-1.2636,-1.2354,-1.2444,-1.1897,-1.1194,-1.1269,0.0,0.0,0.0,0.0,0.0,0.0,0.0,0.0,0.0,0.0,0.0,0.0,0.0,0.0,0.0,-1.8144,-1.9369,-1.9369,-1.9369,-1.9119,-1.8395,-1.8583,-1.8763,-1.8519,-1.8722,-1.8797,-1.8551,-1.8415,-1.8218,-1.7874,-1.7839,-1.7991,-1.8395,-1.8387,-1.8517,-1.8875,-1.9323,-1.9587,-1.9604,-2.0089,-2.0551,-2.0966,-2.0997,-2.1642,-2.2908,-2.4718,-2.5371,-2.4995,-2.5443,-2.5661,-2.5703,-2.5703,-2.5703,-2.5703,-2.5703,-2.5703,-2.5703,-2.5703,-2.5703,-2.5703,-2.5703,-2.5703,-2.5703,0.0,0.0,0.0,0.0,0.0,0.0,0.0,0.0,0.0,0.0,0.0,0.0,0.0,0.0,0.0,0.0,0.0,0.0,0.0,0.0,0.0,0.0,0.0,-0.9357,-0.9168,-0.9222,0.0,0.0,0.0,0.0,-1.0967,-1.169,-1.3001,0.0,-1.6008,0.0,0.0,0.0,0.0,0.0,0.0,-1.4939,0.0,-1.4007,-1.3624,-1.2966,-1.375,-1.3647,-1.3179,-1.3569,-1.2927,0.0,-1.139,-1.1994,0.0,0.0,0.0,0.0,0.0,0.0,0.0,0.0,0.0,0.0,0.0,0.0,0.0,0.0,-1.5994,-1.6644,-1.6465,-1.6971,-1.7388,-1.7388,-1.7388,-1.7549,-1.7972,-1.7837,-1.7779,-1.801,-1.7664,-1.7324,-1.7161,-1.7147,-1.7224,-1.7456,-1.7476,-1.7545,-1.7683,-1.853,-1.8895,-1.8684,-1.9729,-2.0192,-2.0003,-2.0482,-2.1056,-2.1722,-2.3844,-2.4585,-2.4074,-2.489,-2.5315,-2.539,-2.5605,-2.5703,-2.5703,-2.5703,-2.5703,-2.5703,-2.5703,-2.5703,-2.5703,-2.5703,-2.5703,-2.5703,0.0,0.0,0.0,0.0,0.0,0.0,0.0,0.0,0.0,0.0,0.0,0.0,0.0,0.0,-1.2002,-1.2867,-1.16,-1.0457,-0.9722,-0.9562,-0.9465,0.0,0.0,0.0,-0.9109,-0.9109,0.0,0.0,0.0,0.0,-0.9995,-1.0729,-1.2006,-1.3779,-1.6186,-1.6448,-1.5227,0.0,0.0,0.0,0.0,0.0,0.0,0.0,0.0,0.0,0.0,0.0,0.0,0.0,0.0,0.0,0.0,0.0,0.0,0.0,0.0,0.0,0.0,0.0,0.0,0.0,0.0,0.0,0.0,0.0,0.0,0.0,-1.3334,-1.3786,-1.3094,-1.4932,-1.6561,-1.6561,-1.6561,-1.6292,-1.5503,-1.6734,-1.7119,-1.558,-1.6099,-1.6234,-1.5413,-1.5336,-1.5682,-1.6516,-1.6573,-1.6894,-1.7664,-1.853,-1.8626,-1.7799,-1.9415,-1.994,-1.917,-2.0798,-2.1664,-2.1702,-2.266,-2.3112,-2.3097,-2.3969,-2.4404,-2.4518,-2.5331,-2.5703,-2.5703,-2.5703,-2.5703,-2.5703,-2.5703,-2.5703,-2.5703,-2.5703,-2.5703,-2.5703,0.0,0.0,0.0,0.0,0.0,0.0,0.0,0.0,0.0,0.0,0.0,0.0,0.0,-1.2322,-1.2674,-1.3511,-1.2169,-1.078,-0.9618,-0.9475,-0.9421,-0.9393,0.0,-0.9251,-0.9168,0.0,0.0,0.0,0.0,-0.921,-0.9979,-1.0634,-1.161,-1.2928,-1.5332,-1.6203,-1.597,-1.7595,0.0,0.0,0.0,0.0,0.0,0.0,0.0,0.0,0.0,0.0,0.0,0.0,0.0,0.0,0.0,0.0,0.0,0.0,0.0,0.0,0.0,0.0,0.0,0.0,0.0,0.0,0.0,0.0,0.0,-1.238,-1.2699,-1.282,-1.256,-1.4245,-1.5484,-1.492,-1.5311,-1.5753,-1.6003,-1.608,-1.608,-1.6042,-1.583,-1.5541,-1.5228,-1.5189,-1.533,-1.5638,-1.5676,-1.5792,-1.608,-1.6926,-1.7491,-1.7702,-1.8857,-1.9603,-1.9882,-2.0997,-2.1307,-2.0824,-2.2204,-2.2895,-2.2968,-2.3836,-2.4554,-2.5118,-2.5444,-2.5629,-2.5703,-2.5703,-2.5703,-2.5703,-2.5703,-2.5703,-2.5703,-2.5703,-2.5703,-2.5703,0.0,0.0,0.0,0.0,0.0,0.0,0.0,0.0,0.0,0.0,0.0,0.0,0.0,0.0,-1.3152,-1.3443,-1.2322,-1.1092,-0.9877,-0.9536,-0.9356,-0.9327,-0.9298,-0.9222,-0.913,-0.9092,0.0,0.0,0.0,0.0,0.0,-0.9908,-1.0622,-1.1664,-1.3717,-1.4934,0.0,0.0,0.0,-1.4991,0.0,0.0,-1.5276,0.0,0.0,0.0,0.0,0.0,0.0,0.0,0.0,0.0,0.0,0.0,0.0,0.0,0.0,0.0,0.0,0.0,0.0,0.0,0.0,0.0,0.0,0.0,0.0,-1.2,-1.1988,-1.188,-1.161,-1.3043,-1.4162,-1.3912,-1.437,-1.5074,-1.5945,-1.558,-1.5407,-1.5984,-1.5561,-1.5189,-1.5189,-1.5189,-1.5189,-1.5189,-1.5189,0.0,-1.5189,-1.6022,-1.7003,-1.8107,-1.8703,-1.9415,-2.0292,-2.0831,-2.0831,-2.0312,-2.1427,-2.1968,-2.2061,-2.3202,-2.4064,-2.4666,-2.5224,-2.5535,-2.5634,-2.5634,-2.5657,-2.5661,-2.5661,-2.5683,-2.5703,-2.5703,-2.5703,-2.5703,0.0,0.0,0.0,0.0,0.0,0.0,0.0,0.0,0.0,0.0,0.0,0.0,0.0,0.0,0.0,-1.2652,-1.1986,-1.1282,-1.0485,-0.9733,-0.93,-0.9246,-0.9216,-0.9147,-0.9011,-0.8996,0.0,0.0,0.0,0.0,0.0,0.0,-0.898,-0.9935,-1.1477,-1.2663,-1.3639,0.0,-1.5372,-1.4341,0.0,-1.7063,-1.5439,0.0,0.0,0.0,-1.6637,-1.6433,0.0,-1.5204,0.0,0.0,0.0,0.0,0.0,0.0,0.0,0.0,0.0,0.0,0.0,0.0,0.0,0.0,-1.3105,0.0,-1.1008,-1.1131,-1.1119,-1.085,-1.005,-1.1226,-1.2642,-1.359,-1.3804,-1.4165,-1.503,-1.5145,-1.5164,-1.5183,-1.5189,-1.5189,-1.5189,-1.5189,-1.5189,-1.5189,-1.5189,-1.5189,-1.5189,-1.6042,-1.7279,-1.8915,-1.9011,-1.9434,-2.0292,-2.0312,-2.0312,-2.0312,-2.0312,-2.0312,-2.0389,-2.2023,-2.2821,-2.3037,-2.4658,-2.5415,-2.5484,-2.5508,-2.5543,-2.5601,-2.5601,-2.5636,-2.5703,-2.5703,-2.5703,-2.5703,0.0,0.0,0.0,0.0,0.0,0.0,0.0,0.0,0.0,0.0,0.0,0.0,0.0,0.0,-1.3332,-1.2586,-1.231,-1.1888,-1.1239,-1.0464,-1.0037,-1.0072,-0.9505,-0.9147,-0.9011,-0.8992,0.0,0.0,0.0,0.0,0.0,0.0,0.0,0.0,-1.0636,-1.1523,-1.2055,-1.4914,0.0,0.0,-1.6624,-1.6621,0.0,0.0,0.0,0.0,0.0,-1.4779,-1.509,0.0,-1.5606,-1.655,0.0,0.0,0.0,0.0,0.0,0.0,-1.4718,0.0,0.0,0.0,0.0,0.0,-1.3926,-1.3343,-1.2641,-1.2373,-1.163,-1.0766,-0.9909,-1.0177,-1.0995,-1.2486,-1.2773,-1.3093,-1.3923,-1.4037,-1.4277,-1.4901,-1.5026,-1.5068,-1.5068,-1.514,-1.5189,0.0,-1.5189,-1.5189,-1.5189,-1.658,-1.7587,-1.8049,-1.9273,-2.0062,-2.0312,-2.0312,-2.0312,-2.0312,-2.0312,-2.06,-2.1177,-2.1658,-2.2568,-2.3796,-2.4259,-2.4808,-2.5363,-2.5465,-2.5503,-2.5539,-2.5573,-2.5607,-2.5633,-2.5633,-2.5633,-2.5629,0.0,0.0,0.0,0.0,0.0,0.0,0.0,0.0,0.0,0.0,0.0,0.0,0.0,0.0,-1.3391,-1.2944,-1.2603,-1.2118,-1.1456,-1.0689,-1.0129,-0.9828,-0.9372,-0.905,-0.8913,-0.8914,0.0,0.0,0.0,0.0,0.0,0.0,0.0,0.0,0.0,0.0,0.0,0.0,0.0,0.0,-1.6738,0.0,0.0,-1.671,-1.619,0.0,0.0,0.0,-1.4873,-1.426,-1.4928,0.0,0.0,0.0,0.0,0.0,0.0,0.0,0.0,0.0,0.0,0.0,0.0,0.0,-1.3504,-1.2938,-1.2372,0.0,-1.1359,-1.039,-0.9846,-1.0098,-1.0695,-1.161,-1.2102,-1.2791,-1.3977,-1.4128,-1.4336,-1.4847,-1.4925,-1.4962,-1.5007,-1.5075,-1.514,-1.5209,-1.5189,-1.5368,-1.5715,-1.733,-1.8241,-1.8241,-1.9581,-2.0312,-2.0312,-2.0312,-2.0312,-2.0312,-2.0312,-2.0562,-2.1023,-2.1716,-2.2601,-2.361,-2.4293,-2.487,-2.5322,-2.5383,-2.5434,-2.5465,-2.5508,-2.5539,-2.5558,-2.5558,-2.5558,-2.5554,0.0,0.0,0.0,0.0,0.0,0.0,0.0,0.0,0.0,0.0,0.0,0.0,0.0,0.0,0.0,0.0,-1.2899,-1.2233,-1.1593,-1.0766,-0.9995,-0.9264,-0.9093,-0.8936,-0.8794,-0.8794,0.0,0.0,0.0,0.0,0.0,0.0,0.0,0.0,0.0,0.0,0.0,0.0,0.0,-1.4951,-1.6904,-1.7425,0.0,0.0,-1.7484,-1.6038,-1.4778,-1.4574,-1.4784,-1.3898,-1.4024,0.0,0.0,0.0,0.0,0.0,-1.4577,0.0,0.0,0.0,0.0,0.0,0.0,0.0,-1.2365,-1.1669,-1.1206,-1.15,-1.0747,-0.998,-0.9843,-1.049,-1.1049,-1.1001,-1.1708,-1.283,-1.4502,-1.4718,-1.4718,-1.4718,-1.4802,-1.4873,-1.4844,-1.4935,-1.5047,-1.5159,-1.5267,-1.5625,-1.6311,-1.8049,-1.8953,-1.8857,-1.9792,-2.0312,-2.0312,-2.0312,-2.0312,-2.0312,-2.0312,-2.0312,-2.035,-2.1831,-2.262,-2.287,-2.4389,-2.513,-2.5303,-2.5303,-2.533,-2.5383,-2.5398,-2.5434,-2.5479,-2.5479,-2.5498,-2.5498,-1.2887,0.0,0.0,0.0,0.0,0.0,0.0,0.0,0.0,0.0,0.0,0.0,0.0,0.0,0.0,0.0,-1.3294,-1.3174,-1.3085,-1.1773,-1.0923,-1.0787,-0.9623,-0.8936,-0.8805,-0.8748,0.0,0.0,0.0,0.0,0.0,0.0,0.0,0.0,0.0,0.0,0.0,0.0,0.0,-1.4657,-1.4936,0.0,-1.6639,-1.5258,-1.4304,-1.3681,-1.34,-1.3219,-1.3294,-1.4529,-1.4336,-1.3922,0.0,0.0,0.0,0.0,0.0,0.0,0.0,0.0,0.0,0.0,0.0,0.0,-1.1882,-1.1976,-1.1835,-1.1364,-1.1069,-1.0658,-1.0,-0.9982,-1.0294,-1.0975,-1.158,-1.236,-1.3463,-1.3602,-1.3602,-1.3602,-1.4277,-1.4494,-1.3848,-1.448,-1.4928,-1.4963,-1.5659,-1.5905,-1.5478,-1.7708,-1.8677,-1.7991,-1.9485,-2.0312,-2.0312,-2.0312,-2.0312,-2.0312,-2.0312,-2.0312,-2.0312,-2.0639,-2.1523,-2.2812,-2.3139,-2.4043,-2.5303,-2.5303,-2.5303,-2.5312,-2.5376,-2.5401,-2.5421,-2.5421,-2.5415,-2.542,-1.2901,0.0,0.0,0.0,0.0,0.0,0.0,0.0,0.0,0.0,0.0,0.0,0.0,0.0,0.0,0.0,0.0,0.0,0.0,0.0,-1.1711,-1.0595,-0.9494,-0.8818,-0.8652,-0.8624,0.0,0.0,0.0,0.0,0.0,0.0,0.0,0.0,0.0,0.0,0.0,0.0,-1.4541,-1.5808,-1.523,0.0,-1.6038,-1.5018,-1.4091,-1.3268,-1.3074,-1.2906,-1.3076,-1.4941,-1.4866,0.0,0.0,-1.6217,-1.5678,0.0,-1.5024,-1.4767,0.0,0.0,0.0,-1.2658,0.0,0.0,0.0,-1.1278,-1.0964,-1.0667,-1.0603,-1.0478,-1.0025,-1.0307,-1.0719,-1.1099,-1.1745,-1.249,-1.3328,-1.329,-1.3048,-1.2737,-1.3471,-1.3874,-1.3533,-1.4279,-1.485,-1.4942,-1.6192,-1.6797,-1.6458,-1.8477,-1.9439,-1.9004,-1.985,-2.0312,-2.0312,-2.0312,-2.0312,-2.0312,-2.0312,-2.0312,-2.0312,-2.0716,-2.1581,-2.2812,-2.3263,-2.4139,-2.5303,-2.5303,-2.5303,-2.5293,-2.5339,-2.5346,-2.5346,-2.5346,-2.5346,-2.5348,-1.2867,0.0,0.0,0.0,0.0,0.0,0.0,0.0,0.0,0.0,0.0,0.0,0.0,0.0,0.0,0.0,0.0,0.0,0.0,0.0,0.0,0.0,-0.9592,-0.8965,-0.8906,-0.8747,0.0,0.0,0.0,0.0,0.0,0.0,0.0,0.0,0.0,0.0,0.0,0.0,0.0,-1.6368,0.0,-1.5539,-1.5839,-1.5275,-1.4546,-1.3716,-1.3012,-1.2894,-1.3303,-1.5103,-1.5251,-1.4902,-1.6129,-1.6396,0.0,0.0,0.0,0.0,0.0,0.0,0.0,0.0,0.0,-1.1136,0.0,0.0,0.0,-1.0003,-1.0039,0.0,0.0,0.0,0.0,0.0,0.0,0.0,0.0,-1.2713,0.0,-1.216,-1.297,-1.3471,-1.3244,-1.4109,-1.4747,-1.492,-1.6413,-1.7347,-1.7437,-1.9092,-2.0042,-2.0042,-2.0215,-2.0312,-2.0312,-2.0312,-2.0312,-2.0312,-2.0312,-2.0389,-2.0562,-2.1196,-2.2062,-2.309,-2.3783,-2.4562,-2.5303,-2.5303,-2.5303,-2.5303,-2.5303,-2.5303,-2.5303,-2.5303,-2.5303,-2.5303,-1.2722,-1.2662,0.0,0.0,0.0,0.0,0.0,0.0,0.0,0.0,0.0,0.0,0.0,0.0,0.0,0.0,0.0,0.0,-1.6063,0.0,0.0,0.0,0.0,0.0,-1.035,-0.9663,-0.9558,0.0,0.0,0.0,0.0,0.0,0.0,0.0,-1.1709,0.0,0.0,0.0,-1.4083,0.0,-1.3916,-1.513,0.0,-1.4101,-1.3719,-1.4333,-1.2574,-1.247,-1.3392,0.0,-1.5051,-1.4994,0.0,-1.6706,-1.5924,-1.5363,0.0,0.0,0.0,0.0,0.0,0.0,-1.2876,0.0,0.0,0.0,-1.0647,-1.0112,0.0,0.0,0.0,0.0,0.0,0.0,0.0,0.0,-1.0468,-1.0778,-1.1323,-1.2095,-1.353,-1.3869,-1.2398,-1.3629,-1.4571,-1.4718,-1.5697,-1.6343,-1.6453,-1.8179,-1.9146,-1.9146,-1.9908,-2.0312,-2.0312,-2.0312,-2.0312,-2.0312,-2.0312,-2.0677,-2.137,-2.1466,-2.2389,-2.3956,-2.4052,-2.4562,-2.5303,-2.5303,-2.5303,-2.5303,-2.5303,-2.5303,-2.5303,-2.5303,-2.5303,-2.5303,-1.2642,0.0,0.0,0.0,0.0,0.0,0.0,0.0,0.0,0.0,0.0,0.0,0.0,0.0,0.0,0.0,0.0,-1.7129,0.0,0.0,0.0,0.0,0.0,0.0,0.0,-1.0473,-1.0064,0.0,-1.0264,0.0,0.0,0.0,0.0,0.0,-1.2565,0.0,-1.418,0.0,-1.5483,0.0,0.0,0.0,0.0,-1.4013,-1.3155,-1.3749,-1.3182,-1.3312,-1.3875,0.0,-1.4996,0.0,0.0,0.0,0.0,0.0,0.0,0.0,0.0,0.0,0.0,0.0,0.0,0.0,-1.2553,0.0,-1.0851,0.0,0.0,0.0,0.0,0.0,0.0,0.0,-1.0255,0.0,0.0,0.0,-1.096,0.0,0.0,0.0,-1.3421,-1.405,-1.4488,-1.4589,-1.5455,-1.6045,-1.6183,-1.7901,-1.8877,-1.8877,-1.9807,-2.0312,-2.0312,-2.0312,-2.0312,-2.0312,-2.0773,-2.1177,-2.1515,-2.1905,-2.2815,-2.4082,-2.3985,-2.4455,-2.5303,-2.5303,-2.5303,-2.5303,-2.5303,-2.5303,-2.5303,-2.5303,-2.5303,-2.5303,0.0,0.0,0.0,0.0,0.0,0.0,0.0,0.0,0.0,0.0,0.0,0.0,-1.6797,-1.7141,0.0,0.0,-1.7413,-1.7674,0.0,0.0,-1.54,0.0,0.0,0.0,0.0,0.0,0.0,0.0,0.0,0.0,0.0,0.0,0.0,0.0,0.0,-1.3737,-1.4491,0.0,0.0,-1.6611,-1.6713,-1.6924,-1.6879,-1.4515,-1.3515,-1.3405,-1.3705,-1.4041,-1.4404,-1.4698,-1.5268,0.0,-1.6266,0.0,0.0,0.0,0.0,0.0,-1.5174,0.0,0.0,0.0,0.0,0.0,0.0,0.0,0.0,0.0,0.0,0.0,0.0,0.0,0.0,0.0,0.0,-1.0283,0.0,-1.0915,0.0,0.0,0.0,0.0,0.0,-1.3954,-1.4093,-1.4169,-1.5014,-1.5785,-1.6365,-1.7728,-1.8667,-1.9059,-1.9818,-2.0197,-2.0162,-2.0162,-2.0162,-2.0162,-2.0986,-2.1493,-2.1742,-2.2448,-2.3328,-2.4279,-2.4148,-2.4484,-2.516,-2.516,-2.516,-2.516,-2.5203,-2.5214,-2.5224,-2.5274,-2.5303,-2.5303,-1.3463,-1.2998,0.0,0.0,0.0,0.0,0.0,0.0,0.0,0.0,0.0,0.0,0.0,0.0,0.0,0.0,0.0,-1.8935,-1.7697,0.0,-1.657,0.0,0.0,-1.4553,0.0,0.0,0.0,0.0,0.0,0.0,0.0,0.0,0.0,0.0,0.0,-1.3309,-1.4098,-1.3725,-1.4092,-1.4824,-1.4184,-1.3929,-1.41,0.0,-1.5189,-1.378,-1.381,0.0,0.0,-1.5529,-1.5994,0.0,0.0,0.0,0.0,0.0,0.0,0.0,0.0,0.0,0.0,-1.6251,0.0,0.0,0.0,0.0,-1.2777,0.0,0.0,0.0,0.0,0.0,0.0,0.0,0.0,0.0,0.0,0.0,0.0,0.0,0.0,0.0,0.0,-1.2814,-1.3263,-1.3335,-1.4148,-1.5383,-1.706,-1.7473,-1.8279,-1.9726,-1.9924,-1.9953,-1.9832,-1.9821,-1.9821,-1.9821,-2.062,-2.145,-2.2312,-2.3097,-2.3959,-2.478,-2.478,-2.4799,-2.4818,-2.4818,-2.4818,-2.4832,-2.4949,-2.501,-2.5034,-2.5224,-2.5303,-2.5303,0.0,0.0,0.0,0.0,0.0,0.0,0.0,-1.626,0.0,0.0,0.0,0.0,0.0,-1.9211,-1.9197,0.0,0.0,-1.8146,-1.712,-1.6576,0.0,0.0,0.0,-1.5756,0.0,0.0,0.0,0.0,0.0,0.0,0.0,0.0,0.0,0.0,0.0,-1.3146,0.0,0.0,0.0,0.0,0.0,-1.6228,-1.6676,0.0,-1.495,-1.4513,-1.4947,-1.5289,0.0,-1.5724,-1.6142,-1.6486,-1.6104,-1.6342,-1.662,-1.5977,-1.6266,-1.6744,0.0,0.0,-1.6992,-1.7013,0.0,0.0,0.0,0.0,0.0,0.0,0.0,0.0,0.0,0.0,0.0,0.0,0.0,0.0,0.0,0.0,0.0,0.0,0.0,0.0,0.0,0.0,-1.2555,-1.2939,-1.3413,-1.4423,-1.6128,-1.6877,-1.7796,-1.8971,-1.9563,-1.989,-1.9924,-1.9847,-2.0073,-2.0608,-2.1457,-2.2286,-2.3121,-2.3851,-2.4407,-2.479,-2.4654,-2.467,-2.4804,-2.4804,-2.4804,-2.4804,-2.4855,-2.4883,-2.4891,-2.5182,-2.5303,-2.5303,-1.4643,0.0,0.0,0.0,0.0,0.0,0.0,0.0,0.0,0.0,-1.8455,0.0,-1.9653,0.0,-1.9409,0.0,-1.8208,-1.7968,-1.71,-1.6909,0.0,-1.7324,-1.7046,0.0,0.0,0.0,0.0,0.0,0.0,-1.36,0.0,0.0,0.0,0.0,0.0,-1.3398,-1.3864,0.0,-1.5515,0.0,0.0,-1.7197,0.0,0.0,-1.5542,-1.5684,0.0,-1.5799,-1.5799,-1.5799,-1.6054,-1.6323,-1.5933,-1.6215,-1.6618,-1.6174,-1.6512,-1.6965,-1.6766,-1.7119,0.0,-1.7114,-1.668,0.0,-1.6264,0.0,-1.481,0.0,0.0,0.0,0.0,0.0,0.0,0.0,0.0,0.0,0.0,-0.9941,0.0,0.0,0.0,0.0,0.0,-1.1487,-1.2134,-1.2487,-1.3209,-1.4362,0.0,-1.6785,-1.7708,-1.8929,-1.9503,-1.9813,-1.9858,-1.9976,-2.0316,-2.084,-2.1998,-2.2821,-2.3347,-2.4055,-2.4461,-2.4575,-2.4444,-2.4461,-2.4594,-2.4594,-2.4594,-2.4591,-2.467,-2.47,-2.4727,-2.5072,-2.5253,-2.5284,0.0,0.0,0.0,0.0,-1.4292,0.0,0.0,0.0,-1.8763,0.0,-2.041,-2.0439,-2.1147,-2.1063,-2.0318,-1.8717,-1.8672,-1.8403,-1.7697,-1.7953,0.0,0.0,-1.7636,-1.7681,-1.6664,0.0,0.0,0.0,0.0,0.0,0.0,0.0,0.0,0.0,-1.3183,0.0,-1.5056,-1.4433,-1.4847,-1.5945,-1.6443,-1.6682,-1.6712,-1.6682,-1.6894,-1.7087,-1.6155,-1.5799,-1.5799,-1.5799,-1.5799,-1.5799,-1.5799,-1.5799,-1.5814,-1.5844,-1.5873,-1.5888,-1.5888,-1.6925,-1.7715,-1.6635,-1.6948,0.0,0.0,0.0,-1.4953,0.0,0.0,0.0,0.0,0.0,0.0,0.0,0.0,0.0,0.0,0.0,-0.9894,0.0,0.0,0.0,0.0,-1.1013,-1.1913,-1.1988,-1.3411,0.0,0.0,-1.7116,-1.7986,-1.9559,-1.9713,-1.9732,-1.967,-2.0228,-2.0521,-2.0576,-2.2208,-2.3033,-2.3088,-2.3859,-2.419,-2.419,-2.419,-2.419,-2.419,-2.419,-2.419,-2.4209,-2.441,-2.4495,-2.4543,-2.4872,-2.5099,-2.5253,-1.5012,-1.4472,-1.4285,0.0,-1.554,-1.6261,0.0,0.0,0.0,0.0,-1.9599,-1.9025,-2.0162,-2.0125,-1.9281,-1.7369,-1.81,0.0,0.0,0.0,0.0,-1.7473,-1.8137,-1.8115,-1.7202,-1.684,0.0,-1.7384,0.0,0.0,-1.5227,0.0,0.0,0.0,0.0,0.0,-1.5019,-1.5042,-1.5448,-1.607,-1.6036,-1.6457,-1.6999,0.0,-1.6531,-1.7087,-1.6155,-1.5799,-1.5799,-1.5799,-1.5799,-1.5799,-1.5799,-1.5799,-1.5903,-1.6353,-1.6801,-1.7221,-1.7221,-1.7492,-1.7704,-1.7422,-1.6965,-1.6592,-1.6806,0.0,0.0,0.0,0.0,0.0,0.0,0.0,0.0,0.0,0.0,0.0,0.0,0.0,0.0,-0.9973,0.0,0.0,-0.9632,-0.9982,-1.0676,-1.1762,-1.2281,0.0,0.0,0.0,-1.7728,-1.9467,-1.9448,-1.9773,-2.0494,-2.0504,-2.0831,-2.1473,-2.252,-2.3309,-2.3896,-2.4116,-2.419,-2.419,-2.419,-2.419,-2.419,-2.419,-2.419,-2.4227,-2.4266,-2.4375,-2.4528,-2.4771,-2.4883,-2.491,-1.5022,0.0,0.0,-1.5662,0.0,0.0,-1.7898,-1.8265,0.0,-2.0895,-1.9747,0.0,-1.9864,-1.9542,-1.8807,-1.7667,-1.8268,0.0,-1.8059,0.0,0.0,-1.8179,-1.8508,-1.8186,-1.7104,-1.7208,0.0,-1.7597,0.0,0.0,-1.5923,0.0,0.0,0.0,0.0,-1.4683,0.0,-1.5851,-1.6355,-1.6833,-1.6683,-1.7105,0.0,-1.6939,-1.697,-1.7303,-1.6488,-1.6009,-1.5799,-1.5799,-1.5799,-1.5799,-1.5799,-1.5799,-1.5933,-1.6517,-1.698,-1.7324,-1.7608,-1.7697,-1.7623,-1.7339,-1.706,-1.6817,-1.6635,-1.6642,-1.6654,0.0,-1.6496,-1.6568,0.0,0.0,0.0,0.0,0.0,0.0,0.0,0.0,0.0,0.0,-1.022,0.0,-0.9654,-1.0212,-1.0937,-1.1736,-1.2454,0.0,0.0,0.0,-1.7082,-1.8915,-1.922,-1.9475,-1.9699,-2.0949,-2.1657,-2.1821,-2.2978,-2.3768,-2.419,-2.419,-2.419,-2.419,-2.419,-2.419,-2.419,-2.419,-2.419,-2.419,-2.419,-2.4266,-2.4375,-2.4495,-2.4654,-2.479,0.0,0.0,0.0,0.0,0.0,0.0,0.0,-1.9015,0.0,-2.117,0.0,-1.9662,-1.9838,-1.926,-1.8732,-1.8463,0.0,-1.9031,-1.9525,-1.963,-1.9435,-1.8867,-1.8747,-1.81,-1.6768,-1.7467,-1.7636,0.0,0.0,-1.674,-1.6146,0.0,0.0,0.0,0.0,0.0,0.0,-1.6729,-1.7362,-1.7829,-1.7747,-1.8041,-1.8508,-1.7906,-1.7697,-1.7608,-1.704,-1.6473,-1.6023,-1.5858,-1.5858,-1.5933,-1.5933,-1.5933,-1.6054,-1.6756,-1.6965,-1.7115,-1.7772,-1.7891,-1.7667,-1.701,-1.7204,-1.7249,-1.6083,-1.6219,-1.6428,-1.5918,-1.6039,-1.6246,-1.6301,0.0,0.0,0.0,0.0,0.0,0.0,0.0,0.0,0.0,0.0,0.0,-1.0023,-1.114,-1.1866,-1.1774,0.0,0.0,0.0,0.0,-1.6321,-1.817,-1.8976,-1.9175,-1.8753,-2.1578,-2.2648,-2.1986,-2.3474,-2.419,-2.419,-2.419,-2.419,-2.419,-2.419,-2.419,-2.419,-2.419,-2.419,-2.419,-2.419,-2.419,-2.419,-2.419,-2.4428,-2.47,0.0,0.0,0.0,0.0,0.0,-1.8437,-1.8557,-1.845,-1.9186,-2.1546,-2.0156,-1.8985,-1.9103,-1.9341,-1.8867,-1.7204,-1.8568,0.0,0.0,0.0,0.0,-1.951,-1.9001,-1.8193,-1.7044,-1.6969,-1.6982,0.0,-1.6741,-1.6746,-1.713,-1.6189,0.0,0.0,0.0,0.0,-1.6743,-1.75,0.0,-1.8049,-1.7794,-1.7757,-1.7847,-1.7727,-1.7697,-1.7667,-1.7563,-1.7443,-1.7221,-1.6158,-1.6129,-1.6547,-1.6547,-1.6547,-1.6771,-1.7981,-1.8358,-1.8508,-1.9166,-1.8957,-1.8373,-1.7682,-1.7204,-1.6682,-1.5978,-1.5888,-1.5933,-1.5829,-1.5856,-1.5983,-1.6246,0.0,0.0,0.0,0.0,0.0,0.0,0.0,0.0,0.0,0.0,-1.2705,0.0,0.0,0.0,0.0,0.0,0.0,0.0,0.0,-1.6117,0.0,-1.876,-1.9863,0.0,0.0,-2.2942,-2.2813,-2.3749,-2.419,-2.419,-2.419,-2.419,-2.419,-2.419,-2.419,-2.419,-2.419,-2.419,-2.419,-2.419,-2.419,-2.419,-2.419,-2.4247,-2.4303,0.0,0.0,0.0,0.0,0.0,0.0,0.0,-1.8976,-1.9351,-2.0632,-1.9918,-1.9161,-1.8816,-1.9021,-1.8792,-1.7817,-1.8627,-1.9181,-1.9211,-1.951,-1.969,-1.969,-1.9375,-1.8827,-1.7954,-1.7378,-1.7444,-1.8101,-1.7727,-1.7512,-1.7437,-1.6684,0.0,0.0,0.0,-1.6814,0.0,0.0,0.0,-1.8452,-1.8272,-1.8433,-1.8702,-1.8358,-1.8448,-1.8687,-1.8343,-1.8448,-1.8538,-1.7221,-1.6997,-1.7219,-1.7219,-1.7219,-1.7413,-1.8418,-1.8702,-1.8852,-1.951,-1.9211,-1.8627,-1.8313,-1.7999,-1.7563,-1.6937,-1.6787,-1.6682,-1.6338,-1.6009,-1.587,-1.6176,-1.6085,0.0,0.0,0.0,0.0,0.0,0.0,0.0,0.0,0.0,0.0,0.0,0.0,0.0,0.0,0.0,0.0,0.0,0.0,-1.5511,0.0,0.0,0.0,-1.9762,0.0,-2.296,-2.166,-2.3382,-2.419,-2.419,-2.419,-2.419,-2.419,-2.419,-2.419,-2.419,-2.419,-2.419,-2.419,-2.419,-2.419,-2.419,-2.419,-2.419,-2.419,0.0,-1.6365,0.0,0.0,-1.8051,-1.8565,-1.9538,-1.9707,-1.969,-1.969,-1.969,-1.9435,-1.8777,-1.8837,-1.8852,-1.8717,-1.8837,-1.9136,-1.966,-1.969,-1.969,-1.969,-1.969,-1.934,-1.8599,-1.8045,-1.8115,-1.8898,-1.8745,-1.8299,-1.7693,-1.7135,-1.6543,0.0,0.0,0.0,0.0,0.0,-1.8946,-1.8996,-1.8912,-1.9226,-1.963,-1.9106,-1.9226,-1.9615,-1.9091,-1.9241,-1.9525,-1.8493,-1.8044,-1.7891,-1.7891,-1.7891,-1.8026,-1.8717,-1.8912,-1.9031,-1.9555,-1.9301,-1.8882,-1.8747,-1.8702,-1.8523,-1.7832,-1.7697,-1.7503,-1.6846,-1.6219,-1.587,-1.608,-1.5842,-1.5567,0.0,0.0,0.0,0.0,0.0,0.0,0.0,0.0,0.0,-1.331,-1.3174,0.0,0.0,0.0,0.0,-1.5327,0.0,0.0,0.0,0.0,-1.8569,-1.8851,0.0,-2.2832,-2.1223,-2.3235,-2.419,-2.419,-2.419,-2.419,-2.419,-2.419,-2.419,-2.419,-2.419,-2.419,-2.419,-2.419,-2.419,-2.419,-2.419,-2.419,-2.419,0.0,0.0,0.0,0.0,0.0,-2.0264,-2.0398,-2.0005,-1.969,-1.969,-1.969,-1.9435,-1.8777,-1.9226,-1.9346,-1.8747,-1.9256,-1.9615,-1.969,-1.969,-1.969,-1.969,-1.969,-1.9218,-1.8185,-1.8451,-1.8563,0.0,-1.8707,-1.864,-1.8299,-1.8127,-1.76,0.0,0.0,0.0,-1.8534,-1.9275,-1.96,-1.9636,-1.96,-1.963,-1.9675,-1.9615,-1.963,-1.9675,-1.9615,-1.963,-1.966,-1.954,-1.9106,-1.8612,-1.8612,-1.8612,-1.8747,-1.9405,-1.96,-1.9615,-1.9675,-1.963,-1.945,-1.8852,-1.8702,-1.8523,-1.7832,-1.7697,-1.7503,-1.6846,-1.6219,-1.5799,-1.5827,-1.595,-1.5945,0.0,0.0,0.0,0.0,0.0,-1.3939,-1.3581,0.0,0.0,-1.5025,-1.3938,-1.3532,-1.4105,-1.3261,0.0,0.0,0.0,0.0,-1.9422,-1.7595,-1.8289,-2.1931,-2.1897,-2.252,-2.3859,-2.4098,-2.419,-2.419,-2.419,-2.419,-2.419,-2.419,-2.419,-2.419,-2.419,-2.419,-2.419,-2.419,-2.419,-2.419,-2.419,-2.419,-2.419,0.0,0.0,0.0,0.0,0.0,0.0,0.0,-2.005,-1.969,-1.969,-1.969,-1.9585,-1.9316,-1.9525,-1.957,-1.9316,-1.954,-1.969,-1.969,-1.969,-1.969,-1.969,-1.969,-1.9519,-1.9057,-1.9215,-1.9346,0.0,0.0,-1.9421,-1.8721,-1.8789,-1.8534,-1.8129,-1.8803,-1.9234,-1.9478,-1.9641,-1.969,-1.969,-1.969,-1.969,-1.969,-1.969,-1.969,-1.969,-1.969,-1.969,-1.969,-1.969,-1.951,-1.9286,-1.9286,-1.9286,-1.9346,-1.9615,-1.969,-1.969,-1.969,-1.969,-1.963,-1.9361,-1.9286,-1.9226,-1.8957,-1.8597,-1.8238,-1.7969,-1.7055,-1.6353,-1.6353,-1.6127,-1.6098,-1.6696,0.0,0.0,0.0,0.0,0.0,0.0,0.0,0.0,0.0,-1.4318,-1.3599,-1.4466,0.0,0.0,0.0,0.0,0.0,-1.8856,0.0,-2.0005,-2.1601,-2.2488,-2.2827,-2.2648,-2.3712,-2.419,-2.419,-2.419,-2.419,-2.419,-2.419,-2.419,-2.419,-2.419,-2.419,-2.419,-2.419,-2.419,-2.419,-2.419,-2.419,-2.419,-1.9131,0.0,-1.8853,0.0,-1.9419,-1.9456,-2.0368,-2.005,-1.969,-1.969,-1.969,-1.969,-1.969,-1.969,-1.969,-1.969,-1.969,-1.969,-1.969,-1.969,-1.969,-1.969,-1.969,0.0,-1.969,-1.969,-1.9804,-2.0,-2.0151,0.0,-1.895,-1.9202,-1.9199,-1.9011,-1.9299,-1.966,-1.9971,-1.9775,-1.969,-1.969,-1.969,-1.969,-1.969,-1.969,-1.969,-1.969,-1.969,-1.969,-1.969,-1.969,-1.969,-1.969,-1.969,-1.969,-1.969,-1.969,-1.969,-1.969,-1.969,-1.969,-1.969,-1.969,-1.969,-1.969,-1.969,-1.9331,-1.8942,-1.8747,-1.7772,-1.6995,-1.6995,-1.6473,-1.6411,-1.751,0.0,0.0,0.0,-1.6532,0.0,0.0,-1.599,-1.6083,-1.6691,-1.5253,-1.4546,-1.5077,0.0,0.0,0.0,0.0,0.0,0.0,0.0,0.0,-2.152,-2.2518,-2.2743,-2.2225,-2.3545,-2.419,-2.419,-2.419,-2.419,-2.419,-2.419,-2.419,-2.419,-2.419,-2.419,-2.419,-2.419,-2.419,-2.419,-2.419,-2.419,-2.419,-1.9929,-2.0646,-2.1243,-2.0605,-2.0487,-2.0487,-2.0502,-2.005,-1.969,-1.969,-1.969,-1.969,-1.969,-1.969,-1.969,-1.969,-1.969,-1.969,-1.969,-1.969,-1.969,0.0,0.0,-1.969,-1.969,-1.969,-1.969,-1.969,0.0,0.0,-1.9116,-1.9373,-1.9409,-1.9236,-1.9817,-1.9965,-1.969,-1.969,-1.969,-1.969,-1.969,-1.969,-1.969,-1.969,-1.969,-1.969,-1.969,-1.969,-1.969,-1.969,-1.969,-1.969,-1.969,-1.969,-1.969,-1.969,-1.969,-1.969,-1.969,-1.969,-1.969,-1.969,-1.969,-1.969,-1.969,-1.9675,-1.9495,-1.8837,-1.8179,-1.7682,-1.7682,-1.7145,-1.6983,-1.7927,0.0,0.0,0.0,-1.6793,0.0,-1.6068,-1.6629,-1.7142,-1.7273,-1.7072,0.0,0.0,0.0,0.0,0.0,0.0,0.0,-2.0263,-1.8671,0.0,-2.2539,-2.1622,-2.2001,-2.3696,-2.4036,-2.419,-2.419,-2.419,-2.419,-2.419,-2.419,-2.419,-2.419,-2.419,-2.419,-2.419,-2.419,-2.419,-2.419,-2.419,-2.419,-2.419,-1.9869,-1.9997,-2.0221,-2.0012,-1.9967,-1.9967,-1.9967,-1.9824,-1.969,-1.969,-1.969,-1.969,-1.969,-1.969,-1.969,0.0,-1.969,-1.969,0.0,-1.969,-1.969,-1.969,-1.969,-1.969,-1.969,-1.969,-1.969,-1.969,0.0,-1.9807,-1.9657,-1.9631,-1.9612,-1.953,-1.9753,-1.9775,-1.969,-1.969,-1.969,-1.969,-1.969,-1.969,-1.969,-1.969,-1.969,-1.969,-1.969,-1.969,-1.969,-1.969,-1.969,-1.969,-1.969,-1.969,-1.969,-1.969,-1.969,-1.969,-1.969,-1.969,-1.969,-1.969,-1.969,-1.969,-1.969,-1.969,-1.963,-1.942,-1.8852,-1.8388,-1.8388,-1.7817,-1.7657,-1.8579,-1.7894,0.0,-1.7708,0.0,-1.6433,-1.6709,-1.6297,-1.6544,-1.791,-1.7486,0.0,0.0,0.0,0.0,0.0,0.0,0.0,-2.0067,-2.0845,0.0,-2.2652,-2.2443,-2.2792,-2.3692,-2.3816,-2.3876,-2.3876,-2.3876,-2.3876,-2.3876,-2.4094,-2.419,-2.419,-2.419,-2.419,-2.419,-2.419,-2.419,-2.419,-2.419,-2.419,-2.419,-1.9765,-1.969,-1.969,-1.969,-1.969,-1.969,-1.969,-1.969,-1.969,-1.969,-1.969,-1.969,-1.969,-1.969,-1.969,-1.969,-1.969,-1.969,-1.969,-1.969,-1.969,-1.969,-1.969,-1.969,-1.969,-1.969,-1.969,-1.969,-1.9767,-1.9806,-1.983,-1.9745,-1.969,-1.969,-1.969,-1.969,-1.969,-1.969,-1.969,-1.969,-1.969,-1.969,-1.969,-1.969,-1.969,-1.969,-1.969,-1.969,-1.969,-1.969,-1.969,-1.969,-1.969,-1.969,-1.969,-1.969,-1.969,-1.969,-1.969,-1.969,-1.969,-1.969,-1.969,-1.969,-1.969,-1.969,-1.969,-1.969,-1.9361,-1.9076,-1.9076,-1.8538,-1.8347,-1.9125,-1.838,-1.787,-1.8371,0.0,-1.7273,0.0,0.0,-1.7634,-1.8625,-1.8438,-1.8115,0.0,0.0,0.0,0.0,0.0,-1.9188,-1.9968,-2.166,-2.2563,-2.2563,-2.2747,-2.3007,-2.3323,-2.3437,-2.3522,-2.3522,-2.3522,-2.3522,-2.3522,-2.3876,-2.4016,-2.4016,-2.4151,-2.4373,-2.4612,-2.4318,-2.4373,-2.4612,-2.43,-2.419,-2.419,-1.969,-1.969,-1.969,-1.969,-1.969,-1.969,-1.969,-1.969,-1.969,-1.969,-1.969,-1.969,-1.969,-1.969,-1.969,-1.969,-1.969,-1.969,-1.969,-1.969,-1.969,-1.969,-1.969,-1.969,-1.969,-1.969,-1.969,-1.969,-1.969,-1.969,-1.969,-1.969,-1.969,-1.969,-1.969,-1.969,-1.969,-1.969,-1.969,-1.969,-1.969,-1.969,-1.969,-1.969,-1.969,-1.969,-1.969,-1.969,-1.969,-1.969,-1.969,-1.969,-1.969,-1.969,-1.969,-1.969,-1.969,-1.969,-1.969,-1.969,-1.969,-1.969,-1.969,-1.969,-1.969,-1.969,-1.969,-1.969,-1.969,-1.969,-1.969,-1.9181,-1.8972,-1.9585,-1.8612,-1.8017,-1.8758,-1.8811,-1.8702,-1.8499,-1.9399,-1.9859,-1.9302,-1.968,-1.9821,0.0,0.0,0.0,0.0,0.0,-1.9946,-2.0154,-2.1378,-2.2118,-2.231,-2.2537,-2.2669,-2.2695,-2.3021,-2.3165,-2.3165,-2.3165,-2.3165,-2.3189,-2.3522,-2.3689,-2.3783,-2.4087,-2.4681,-2.5342,-2.4554,-2.4702,-2.5252,-2.4464,-2.417,-2.417,-1.969,-1.969,-1.969,-1.969,-1.969,-1.969,-1.969,-1.969,-1.969,-1.969,-1.969,-1.969,-1.969,-1.969,-1.969,-1.969,-1.969,-1.969,-1.969,-1.969,-1.969,-1.969,-1.969,-1.969,-1.969,-1.969,-1.969,-1.969,-1.969,-1.969,-1.969,-1.969,-1.969,-1.969,-1.969,-1.969,-1.969,-1.969,-1.969,-1.969,-1.969,-1.969,-1.969,-1.969,-1.969,-1.969,-1.969,-1.969,-1.969,-1.969,-1.969,-1.969,-1.969,-1.969,-1.969,-1.969,-1.969,-1.969,-1.969,-1.969,-1.969,-1.969,-1.969,-1.969,-1.969,-1.969,-1.969,-1.969,-1.969,-1.969,-1.969,-1.9555,-1.951,-1.966,-1.9001,-1.8428,-1.839,-1.7868,-1.7712,-1.8192,-1.8455,-1.8869,-1.9521,-1.9707,-1.9527,0.0,0.0,-1.9825,-1.9829,-2.0668,-2.1337,-2.1742,-2.2051,-2.2237,-2.231,-2.236,-2.25,-2.2695,-2.2772,-2.2822,-2.2822,-2.2822,-2.2822,-2.2848,-2.3165,-2.3638,-2.4164,-2.4236,-2.4741,-2.5426,-2.4874,-2.4765,-2.4838,-2.4085,-2.3816,-2.3816,-1.969,-1.969,-1.969,-1.969,-1.969,-1.969,-1.969,-1.969,-1.969,-1.969,-1.969,-1.969,-1.969,-1.969,-1.969,-1.969,-1.969,-1.969,-1.969,-1.969,-1.969,-1.969,-1.969,-1.969,-1.969,-1.969,-1.969,-1.969,-1.969,-1.969,-1.969,-1.969,-1.969,-1.969,-1.969,-1.969,-1.969,-1.969,-1.969,-1.969,-1.969,-1.969,-1.969,-1.969,-1.969,-1.969,-1.969,-1.969,-1.969,-1.969,-1.969,-1.969,-1.969,-1.969,-1.969,-1.969,-1.969,-1.969,-1.969,-1.969,-1.969,-1.969,-1.969,-1.969,-1.969,-1.969,-1.969,-1.969,-1.969,-1.969,-1.969,-1.969,-1.969,-1.969,-1.8661,-1.7904,-1.8082,-1.7622,-1.7483,-1.8053,-1.8714,-1.9241,-1.9651,-1.969,-1.9632,-1.9497,-2.0061,-2.0426,-2.0509,-2.1264,-2.1811,-2.2049,-2.2209,-2.231,-2.231,-2.231,-2.236,-2.2527,-2.2527,-2.2527,-2.2527,-2.2527,-2.2527,-2.2537,-2.284,-2.3403,-2.4138,-2.4249,-2.4784,-2.5482,-2.5227,-2.5122,-2.504,-2.4254,-2.395,-2.3937,-1.9839,-1.975,-1.969,-1.969,-1.969,-1.969,-1.969,-1.969,-1.969,-1.969,-1.969,-1.969,-1.969,-1.969,-1.969,-1.969,-1.969,-1.969,-1.969,-1.969,-1.969,-1.969,-1.969,-1.969,-1.969,-1.969,-1.969,-1.969,-1.969,-1.969,-1.969,-1.969,-1.969,-1.969,-1.969,-1.969,-1.969,-1.969,-1.969,-1.969,-1.969,-1.969,-1.969,-1.969,-1.969,-1.969,-1.969,-1.969,-1.969,-1.969,-1.969,-1.969,-1.969,-1.969,-1.969,-1.969,-1.969,-1.969,-1.969,-1.969,-1.969,-1.969,-1.969,-1.969,-1.969,-1.969,-1.969,-1.969,-1.969,-1.969,-1.969,-1.969,-1.969,-1.9654,-1.8245,-1.7362,-1.8031,-1.7899,-1.7835,-1.8141,-1.9387,-2.007,-1.9711,-1.969,-1.9839,-2.0177,-2.0296,-2.0665,-2.129,-2.1477,-2.1615,-2.1691,-2.2077,-2.231,-2.231,-2.231,-2.231,-2.231,-2.231,-2.231,-2.231,-2.231,-2.231,-2.231,-2.2657,-2.3273,-2.4016,-2.4357,-2.4963,-2.5702,-2.5614,-2.5588,-2.5491,-2.4707,-2.4425,-2.4302,-2.0557,-2.0094,-1.969,-1.969,-1.969,-1.969,-1.969,-1.969,-1.969,-1.969,-1.969,-1.969,-1.969,-1.969,-1.969,-1.969,-1.969,-1.969,-1.969,-1.969,-1.969,-1.969,-1.969,-1.969,-1.969,-1.969,-1.969,-1.969,-1.969,-1.969,-1.969,-1.969,-1.969,-1.969,-1.969,-1.969,-1.969,-1.969,-1.969,-1.969,-1.969,-1.969,-1.969,-1.969,-1.969,-1.969,-1.969,-1.969,-1.969,-1.969,-1.969,-1.969,-1.969,-1.969,-1.969,-1.969,-1.969,-1.969,-1.969,-1.969,-1.969,-1.969,-1.969,-1.969,-1.969,-1.969,-1.969,-1.969,-1.969,-1.969,-1.969,-1.969,-1.9654,-1.9487,-1.8957,-1.8637,-1.8746,-1.8718,-1.8783,-1.8973,-1.9489,-1.9782,-1.9726,-1.969,-1.9726,-1.9782,-1.9818,-1.9889,-2.005,-2.0364,-2.0748,-2.1197,-2.1915,-2.231,-2.231,-2.231,-2.231,-2.231,-2.231,-2.231,-2.231,-2.231,-2.231,-2.2344,-2.2994,-2.3718,-2.4479,-2.5139,-2.5819,-2.648,-2.6126,-2.6004,-2.5929,-2.5166,-2.4899,-2.4795,-2.0722,-2.0154,-1.969,-1.969,-1.9989,-2.0124,-1.975,-2.0004,-2.0109,-1.9735,-1.969,-1.969,-1.969,-1.969,-1.969,-1.969,-1.969,-1.969,-1.969,-1.969,-1.969,-1.969,-1.969,-1.969,-1.969,-1.969,-1.969,-1.969,-1.969,-1.969,-1.969,-1.969,-1.969,-1.969,-1.969,-1.969,-1.969,-1.969,-1.969,-1.969,-1.969,-1.969,-1.969,-1.969,-1.969,-1.969,-1.969,-1.969,-1.969,-1.969,-1.969,-1.969,-1.969,-1.969,-1.969,-1.969,-1.969,-1.969,-1.969,-1.969,-1.969,-1.969,-1.969,-1.969,-1.969,-1.969,-1.969,-1.969,-1.969,-1.969,-1.969,-1.969,-1.9603,-1.9347,-1.8718,-1.8263,-1.8167,-1.8248,-1.8362,-1.8539,-1.9235,-1.969,-1.969,-1.969,-1.969,-1.969,-1.9909,-2.0035,-2.007,-2.0649,-2.1118,-2.1352,-2.1974,-2.231,-2.231,-2.231,-2.231,-2.231,-2.2699,-2.2682,-2.2327,-2.2716,-2.2885,-2.2919,-2.3241,-2.4036,-2.5118,-2.5456,-2.5812,-2.6116,-2.6345,-2.6187,-2.5794,-2.5453,-2.5316,-2.5145,-2.1171,-2.0498,-1.9974,-2.0124,-2.0333,-2.0348,-1.9989,-2.0243,-2.0288,-1.975,-1.969,-1.969,-1.969,-1.969,-1.969,-1.969,-1.969,-1.969,-1.969,-1.969,-1.969,-1.969,-1.969,-1.969,-1.969,-1.969,-1.969,-1.969,-1.969,-1.969,-1.969,-1.969,-1.969,-1.969,-1.969,-1.969,-1.969,-1.969,-1.969,-1.969,-1.969,-1.969,-1.969,-1.969,-1.969,-1.969,-1.969,-1.969,-1.969,-1.969,-1.969,-1.969,-1.969,-1.969,-1.969,-1.969,-1.969,-1.969,-1.969,-1.969,-1.969,-1.969,-1.969,-1.969,-1.969,-1.969,-1.969,-1.969,-1.969,-1.969,-1.969,-1.969,-1.9603,-1.9295,-1.8599,-1.8032,-1.7948,-1.8011,-1.8145,-1.8377,-1.9181,-1.969,-1.969,-1.969,-1.969,-1.969,-2.0117,-2.0404,-2.0404,-2.1193,-2.173,-2.1936,-2.2337,-2.2649,-2.2818,-2.2649,-2.2564,-2.2564,-2.3122,-2.3004,-2.2344,-2.3241,-2.3562,-2.341,-2.3765,-2.4458,-2.5372,-2.571,-2.5761,-2.5676,-2.6404,-2.6353,-2.5862,-2.5862,-2.5862,-2.5676,-2.2532,-2.1515,-2.0827,-2.144,-2.0557,-1.9959,-2.0557,-2.0139,-1.975,-1.969,-1.969,-1.969,-1.969,-1.969,-1.969,-1.969,-1.969,-1.969,-1.969,-1.969,-1.969,-1.969,-1.969,-1.969,-1.969,-1.969,-1.969,-1.969,-1.969,-1.969,-1.969,-1.969,-1.969,-1.969,-1.969,-1.969,-1.969,-1.969,-1.969,-1.969,-1.969,-1.969,-1.969,-1.969,-1.969,-1.969,-1.969,-1.969,-1.969,-1.969,-1.969,-1.969,-1.969,-1.969,-1.969,-1.969,-1.969,-1.969,-1.969,-1.969,-1.969,-1.969,-1.969,-1.969,-1.969,-1.969,-1.969,-1.969,-1.969,-1.969,-1.969,-1.969,-1.9617,-1.9413,-1.9091,-1.8925,-1.9214,-1.9016,-1.9008,-1.9501,-1.9666,-1.969,-1.969,-1.969,-1.969,-1.969,-2.031,-2.067,-2.067,-2.1317,-2.2079,-2.2959,-2.3202,-2.3646,-2.4337,-2.3646,-2.3325,-2.3325,-2.3376,-2.3004,-2.2361,-2.3765,-2.4066,-2.3477,-2.4847,-2.5101,-2.4709,-2.6048,-2.6218,-2.5676,-2.6404,-2.6657,-2.6623,-2.6623,-2.6623,-2.6505,-2.2724,-2.1949,-2.1395,-2.165,-2.1605,-2.135,-2.0797,-2.1186,-2.1096,-1.9854,-2.0064,-2.0168,-1.9735,-1.969,-1.969,-1.969,-1.969,-1.969,-1.969,-1.969,-1.969,-1.969,-1.969,-1.9884,-2.0318,-1.9899,-1.9884,-2.0318,-1.9884,-1.969,-1.969,-1.969,-1.969,-1.969,-1.969,-1.969,-1.969,-1.969,-1.969,-1.969,-1.969,-1.969,-1.969,-1.969,-1.969,-1.969,-1.969,-1.969,-1.969,-1.969,-1.969,-1.969,-1.969,-1.969,-1.969,-1.969,-1.969,-1.969,-1.969,-1.969,-1.969,-1.969,-1.969,-1.969,-1.969,-1.969,-1.969,-1.969,-1.969,-1.969,-1.969,-1.969,-1.9603,-1.931,-1.9358,-1.9355,-1.9266,-1.9343,-1.9461,-1.9696,-2.0064,-2.0318,-2.0318,-2.0318,-2.0498,-2.0902,-2.0797,-2.0902,-2.1306,-2.1803,-2.2592,-2.3686,-2.3786,-2.405,-2.4492,-2.4205,-2.4069,-2.4069,-2.4543,-2.4374,-2.3697,-2.4712,-2.5033,-2.4797,-2.5372,-2.5693,-2.5896,-2.6454,-2.6522,-2.6302,-2.659,-2.6691,-2.6691,-2.6691,-2.6691,-2.659,-2.2966,-2.2443,-2.2054,-2.2263,-2.2338,-2.2143,-2.144,-2.1919,-2.1874,-2.0498,-2.0557,-2.0528,-2.0064,-2.0004,-2.0004,-2.0004,-2.0198,-2.0318,-2.0318,-2.0124,-2.0004,-2.0004,-2.0004,-2.0333,-2.1006,-2.0363,-2.0348,-2.1021,-2.0348,-2.0004,-2.0004,-2.0004,-1.9884,-1.969,-1.969,-1.969,-1.969,-1.969,-1.969,-1.969,-1.969,-1.969,-1.969,-1.969,-1.969,-1.969,-1.969,-1.969,-1.969,-1.969,-1.969,-1.969,-1.969,-1.969,-1.969,-1.969,-1.969,-1.969,-1.969,-1.969,-1.969,-1.969,-1.969,-1.969,-1.969,-1.969,-1.969,-1.969,-1.969,-1.969,-1.969,-1.969,-1.9603,-1.9406,-1.9566,-1.9603,-1.9406,-1.9566,-1.9765,-1.9989,-2.0228,-2.0557,-2.0976,-2.0842,-2.0991,-2.165,-2.147,-2.162,-2.2263,-2.2546,-2.3149,-2.416,-2.4214,-2.437,-2.4713,-2.466,-2.4688,-2.4831,-2.5372,-2.5203,-2.454,-2.5507,-2.5828,-2.5625,-2.5845,-2.6099,-2.637,-2.659,-2.6556,-2.637,-2.6607,-2.6691,-2.6691,-2.6691,-2.6691,-2.6623,-2.3595,-2.3101,-2.2918,-2.349,-2.2547,-2.1934,-2.2619,-2.2128,-2.171,-2.1695,-2.1126,-2.0722,-2.0722,-2.0722,-2.0722,-2.0722,-2.1321,-2.1695,-2.1695,-2.1081,-2.0722,-2.0737,-2.0722,-2.1021,-2.168,-2.1051,-2.1051,-2.171,-2.1036,-2.0722,-2.0722,-2.0669,-2.0348,-1.969,-1.969,-1.969,-1.969,-1.969,-1.969,-1.969,-1.969,-1.969,-1.969,-1.969,-1.969,-1.969,-1.969,-1.969,-1.969,-1.969,-1.969,-1.969,-1.969,-1.969,-1.969,-1.969,-1.969,-1.969,-1.969,-1.969,-1.969,-1.969,-1.969,-1.969,-1.969,-1.969,-1.969,-1.969,-1.969,-1.969,-1.969,-1.969,-1.969,-1.969,-1.969,-1.969,-1.969,-1.969,-1.9944,-2.0632,-2.0124,-2.0228,-2.1575,-2.1111,-2.0991,-2.1665,-2.2323,-2.2951,-2.3565,-2.3595,-2.3837,-2.4389,-2.4389,-2.4657,-2.5182,-2.4935,-2.5095,-2.5609,-2.5625,-2.522,-2.4574,-2.6015,-2.6302,-2.5659,-2.6387,-2.6285,-2.5676,-2.6404,-2.6268,-2.5693,-2.6404,-2.6691,-2.6691,-2.6691,-2.6691,-2.6691,-2.3684,-2.3445,-2.3385,-2.3565,-2.3295,-2.2951,-2.2753,-2.2877,-2.2712,-2.1814,-2.153,-2.1395,-2.1395,-2.0991,-2.0902,-2.1365,-2.1575,-2.1695,-2.1695,-2.1515,-2.1605,-2.2069,-2.1201,-2.1231,-2.2368,-2.1739,-2.1724,-2.2383,-2.1261,-2.0722,-2.0707,-2.0228,-1.9884,-1.969,-1.969,-1.969,-1.969,-1.969,-1.969,-1.969,-1.969,-1.969,-1.969,-1.969,-1.9989,-2.0348,-1.9854,-2.0288,-2.1021,-2.0557,-2.0707,-2.1021,-2.0557,-2.0408,-2.0318,-1.9824,-1.969,-1.969,-1.969,-1.969,-1.969,-1.969,-1.969,-1.969,-1.969,-1.969,-1.969,-1.969,-1.969,-1.9824,-2.0318,-2.0019,-1.9839,-2.0333,-2.0004,-1.969,-1.969,-1.969,-1.9944,-2.0632,-2.0946,-2.144,-2.2308,-2.2203,-2.2353,-2.2981,-2.3206,-2.34,-2.3595,-2.3595,-2.3681,-2.3837,-2.3837,-2.4116,-2.4617,-2.5313,-2.5719,-2.5876,-2.6219,-2.6251,-2.6048,-2.6488,-2.6573,-2.6387,-2.659,-2.6573,-2.6387,-2.6607,-2.6573,-2.6387,-2.6607,-2.6691,-2.6691,-2.6691,-2.6691,-2.6691,-2.4477,-2.4388,-2.4388,-2.4388,-2.4178,-2.3879,-2.3505,-2.3535,-2.3325,-2.2547,-2.2233,-2.2084,-2.2084,-2.1724,-2.165,-2.2054,-2.2308,-2.2443,-2.2443,-2.2218,-2.2368,-2.3011,-2.2039,-2.1979,-2.3011,-2.2413,-2.2398,-2.3041,-2.1994,-2.1485,-2.1485,-2.0797,-2.0348,-2.0079,-1.9809,-1.969,-1.969,-1.969,-1.9839,-2.0094,-2.0094,-2.0243,-2.0483,-2.0483,-2.0737,-2.1051,-2.0632,-2.1006,-2.1635,-2.1231,-2.1201,-2.1231,-2.0842,-2.0528,-2.0288,-2.0139,-2.0094,-2.0094,-2.0094,-2.0288,-2.0423,-2.0154,-1.9884,-1.969,-1.969,-1.9899,-2.0094,-2.0094,-2.0303,-2.0602,-2.1021,-2.0767,-2.0617,-2.1036,-2.0752,-2.0483,-2.0483,-2.0483,-2.0737,-2.141,-2.1605,-2.2054,-2.2951,-2.2858,-2.2936,-2.355,-2.3595,-2.3595,-2.3595,-2.3595,-2.3595,-2.3595,-2.3864,-2.4158,-2.4487,-2.5607,-2.5992,-2.5689,-2.6175,-2.6401,-2.6401,-2.6401,-2.6505,-2.6691,-2.628,-2.6315,-2.6657,-2.628,-2.6245,-2.6401,-2.621,-2.6123,-2.6123,-2.635,-2.6401,-2.6436,-2.5615,-2.5615,-2.5615,-2.5615,-2.5076,-2.4582,-2.4582,-2.4044,-2.3595,-2.3595,-2.3056,-2.2739,-2.2757,-2.2753,-2.2739,-2.2798,-2.3266,-2.3595,-2.3595,-2.3071,-2.3011,-2.358,-2.3056,-2.3026,-2.3595,-2.3041,-2.3041,-2.3595,-2.2981,-2.2694,-2.2619,-2.1979,-2.1321,-2.0602,-2.0094,-1.9794,-1.969,-1.9809,-2.0198,-2.0722,-2.0782,-2.1156,-2.1695,-2.1695,-2.1739,-2.1784,-2.1724,-2.1769,-2.1859,-2.1799,-2.138,-2.0872,-2.0827,-2.0363,-1.9989,-2.0617,-2.0797,-2.0797,-2.0797,-2.1246,-2.1545,-2.0946,-2.0333,-1.9869,-1.9869,-2.0348,-2.0797,-2.0797,-2.1276,-2.171,-2.1769,-2.1739,-2.1724,-2.1769,-2.1739,-2.1695,-2.1695,-2.1695,-2.1934,-2.2607,-2.2143,-2.2263,-2.3475,-2.3086,-2.2996,-2.355,-2.3595,-2.3595,-2.3595,-2.3595,-2.3595,-2.3595,-2.4268,-2.4582,-2.4582,-2.5741,-2.6002,-2.532,-2.5847,-2.6122,-2.6122,-2.6122,-2.6338,-2.6706,-2.5712,-2.5807,-2.6589,-2.5668,-2.5524,-2.5888,-2.5449,-2.5259,-2.5259,-2.5742,-2.5924,-2.5997,-2.5704,-2.5615,-2.5615,-2.5615,-2.5076,-2.4582,-2.4582,-2.4044,-2.3595,-2.3595,-2.3056,-2.2862,-2.334,-2.2966,-2.2877,-2.3355,-2.352,-2.3595,-2.3595,-2.3475,-2.346,-2.3595,-2.3475,-2.346,-2.3595,-2.3475,-2.346,-2.3595,-2.2981,-2.2413,-2.1904,-2.1754,-2.1051,-1.9944,-2.0857,-2.0677,-1.975,-2.0812,-2.1051,-2.0767,-2.1276,-2.1575,-2.1695,-2.1695,-2.2024,-2.2398,-2.1874,-2.2338,-2.3116,-2.2622,-2.2368,-2.2158,-2.165,-2.138,-2.1291,-2.144,-2.1485,-2.1485,-2.1485,-2.159,-2.1665,-2.1515,-2.1365,-2.1261,-2.1261,-2.138,-2.1485,-2.1485,-2.1605,-2.1859,-2.2368,-2.2039,-2.1859,-2.2383,-2.2024,-2.1695,-2.1695,-2.1695,-2.1934,-2.2607,-2.2547,-2.2757,-2.3535,-2.3475,-2.3445,-2.3595,-2.3595,-2.3595,-2.3595,-2.3595,-2.3595,-2.3595,-2.4268,-2.4582,-2.4582,-2.5363,-2.5895,-2.6146,-2.6681,-2.6944,-2.6944,-2.6944,-2.6985,-2.7058,-2.631,-2.611,-2.6257,-2.5971,-2.5652,-2.5411,-2.5689,-2.5577,-2.5221,-2.5335,-2.5373,-2.5449,-2.6617,-2.6542,-2.6542,-2.6542,-2.6004,-2.5465,-2.5151,-2.4792,-2.4448,-2.4133,-2.3804,-2.3729,-2.4059,-2.3505,-2.3251,-2.3565,-2.3595,-2.3595,-2.3595,-2.3909,-2.3939,-2.361,-2.3924,-2.3939,-2.361,-2.3595,-2.3595,-2.3595,-2.3266,-2.2936,-2.2592,-2.2293,-2.1784,-2.1126,-2.1515,-2.1306,-2.0692,-2.1395,-2.168,-2.168,-2.2024,-2.2338,-2.2607,-2.2607,-2.2817,-2.3071,-2.2727,-2.3026,-2.355,-2.3236,-2.2712,-2.2203,-2.2173,-2.1739,-2.135,-2.1979,-2.2158,-2.2158,-2.2158,-2.2383,-2.2607,-2.2607,-2.2607,-2.2443,-2.1844,-2.1934,-2.2158,-2.2158,-2.2398,-2.2712,-2.3056,-2.3101,-2.3206,-2.355,-2.358,-2.3565,-2.3565,-2.3295,-2.334,-2.3999,-2.3505,-2.3236,-2.3565,-2.3894,-2.4088,-2.4088,-2.4088,-2.4223,-2.4537,-2.4552,-2.4552,-2.4552,-2.5211,-2.5555,-2.5555,-2.6213,-2.6672,-2.6976,-2.6865,-2.68,-2.68,-2.68,-2.6799,-2.6691,-2.6154,-2.5848,-2.5703,-2.5433,-2.5131,-2.4816,-2.4871,-2.4657,-2.4471,-2.4736,-2.4973,-2.5259,-2.7625,-2.7625,-2.7625,-2.7625,-2.6931,-2.6273,-2.5839,-2.5585,-2.5285,-2.4852,-2.4746,-2.4746,-2.4746,-2.4283,-2.3939,-2.3939,-2.3939,-2.3939,-2.3939,-2.4477,-2.4537,-2.3969,-2.4492,-2.4477,-2.3789,-2.3774,-2.3714,-2.3595,-2.3595,-2.355,-2.343,-2.3026,-2.2727,-2.2488,-2.2173,-2.1904,-2.171,-2.1934,-2.2278,-2.2724,-2.2787,-2.3131,-2.3595,-2.3595,-2.3595,-2.3595,-2.3595,-2.3595,-2.358,-2.3475,-2.2742,-2.1964,-2.2503,-2.1934,-2.1291,-2.2488,-2.2832,-2.2832,-2.2832,-2.3206,-2.3595,-2.3595,-2.3595,-2.3325,-2.2263,-2.2443,-2.2877,-2.2981,-2.3415,-2.3804,-2.3924,-2.4418,-2.4746,-2.4746,-2.5255,-2.5615,-2.5615,-2.5136,-2.5001,-2.554,-2.4627,-2.3939,-2.3939,-2.4462,-2.4746,-2.4746,-2.4746,-2.5031,-2.5585,-2.5615,-2.5615,-2.5615,-2.6243,-2.6587,-2.6587,-2.7245,-2.7625,-2.761,-2.69,-2.6596,-2.6596,-2.6596,-2.6479,-2.6241,-2.5925,-2.5588,-2.5266,-2.4887,-2.462,-2.4394,-2.3925,-2.3681,-2.3638,-2.4116,-2.4645,-2.5211,-2.7625,-2.7625,-2.7625,-2.7625,-2.6557,-2.5899,-2.6378,-2.5495,-2.4881,-2.542,-2.548,-2.548,-2.548,-2.539,-2.533,-2.533,-2.533,-2.533,-2.533,-2.542,-2.5435,-2.533,-2.5435,-2.5166,-2.4462,-2.4448,-2.4193,-2.3595,-2.3595,-2.3325,-2.2817,-2.3266,-2.2892,-2.1874,-2.2892,-2.2727,-2.1769,-2.2877,-2.3086,-2.2768,-2.3266,-2.3535,-2.3595,-2.3595,-2.3595,-2.3595,-2.3595,-2.3595,-2.352,-2.2981,-2.2724,-2.2604,-2.2694,-2.2604,-2.2547,-2.3266,-2.3475,-2.3475,-2.3475,-2.3535,-2.3595,-2.3595,-2.3595,-2.355,-2.3385,-2.3415,-2.364,-2.4238,-2.4388,-2.4657,-2.5226,-2.542,-2.548,-2.548,-2.5555,-2.5615,-2.5615,-2.554,-2.551,-2.56,-2.545,-2.533,-2.533,-2.542,-2.548,-2.548,-2.548,-2.551,-2.5615,-2.5615,-2.5615,-2.5615,-2.6243,-2.6587,-2.6587,-2.7245,-2.7625,-2.7625,-2.748,-2.744,-2.744,-2.744,-2.7127,-2.6542,-2.6504,-2.6129,-2.5515,-2.5356,-2.5024,-2.4551,-2.4346,-2.3991,-2.3595,-2.3681,-2.4264,-2.4999,-2.7625,-2.7625,-2.7625,-2.7625,-2.7096,-2.6677,-2.6602,-2.6408,-2.6243,-2.6168,-2.6153,-2.6153,-2.6153,-2.5824,-2.5615,-2.5615,-2.5615,-2.5615,-2.5615,-2.5959,-2.5989,-2.563,-2.5959,-2.5674,-2.4612,-2.4582,-2.4283,-2.3595,-2.3595,-2.346,-2.3191,-2.3475,-2.3295,-2.2787,-2.3355,-2.3295,-2.2802,-2.3355,-2.3445,-2.3221,-2.349,-2.3595,-2.3595,-2.3595,-2.3595,-2.3595,-2.3595,-2.3595,-2.355,-2.3281,-2.2966,-2.2783,-2.3086,-2.2951,-2.2802,-2.3415,-2.3879,-2.4178,-2.4178,-2.4448,-2.4807,-2.5181,-2.4986,-2.4717,-2.4717,-2.4717,-2.4702,-2.4597,-2.4881,-2.527,-2.5555,-2.5914,-2.6153,-2.6153,-2.6467,-2.6707,-2.6707,-2.6393,-2.6019,-2.5659,-2.6258,-2.6422,-2.5674,-2.5944,-2.6153,-2.6153,-2.6153,-2.6318,-2.6692,-2.6707,-2.6707,-2.6707,-2.6976,-2.7141,-2.7141,-2.7475,-2.7625,-2.7625,-2.7625,-2.7625,-2.7625,-2.7625,-2.7215,-2.6617,-2.6976,-2.6557,-2.5615,-2.5954,-2.55,-2.4627,-2.4941,-2.47,-2.4178,-2.4178,-2.4178,-2.4192]},{"header":{"parameterUnit":"m.s-1","parameterCategory":1,"la1":30.6,"la2":28.766,"lo1":-90.7593,"lo2":-88.6598,"dy":0.0162,"dx":0.0183,"nx":116,"ny":114,"refTime":"2023-10-22T06:00:00:Z","depth":0,"parameterNumber":3,"parameterNumberName":"V-component_of_WINDS"},"data":[0.0,0.0,0.0,0.0,0.0,0.0,0.0,0.0,0.0,0.0,0.0,0.0,0.0,0.0,0.0,0.0,0.0,0.0,0.0,0.0,0.0,0.0,0.0,0.0,0.0,0.0,0.0,0.0,0.0,0.0,0.0,0.0,0.0,0.0,0.0,0.0,0.0,0.0,0.0,0.0,0.0,0.0,0.0,0.0,0.0,0.0,0.0,0.0,0.0,0.0,0.0,0.0,0.0,0.0,0.0,0.0,0.0,0.0,0.0,0.0,0.0,0.0,0.0,0.0,0.0,0.0,0.0,0.0,0.0,0.0,0.0,0.0,0.0,0.0,0.0,0.0,0.0,0.0,0.0,0.0,0.0,0.0,0.0,0.0,0.0,0.0,0.0,0.0,0.0,0.0,0.0,0.0,0.0,0.0,0.0,0.0,0.0,0.0,0.0,0.0,0.0,0.0,0.0,0.0,0.0,0.0,0.0,0.0,0.0,0.0,0.0,0.0,0.0,0.0,0.0,0.0,0.0,0.0,0.0,0.0,0.0,0.0,0.0,0.0,0.0,0.0,0.0,0.0,0.0,0.0,0.0,0.0,0.0,0.0,0.0,0.0,0.0,0.0,0.0,0.0,0.0,0.0,0.0,0.0,0.0,0.0,0.0,0.0,0.0,0.0,0.0,0.0,0.0,0.0,0.0,0.0,0.0,0.0,0.0,0.0,0.0,0.0,0.0,0.0,0.0,0.0,0.0,0.0,0.0,0.0,0.0,0.0,0.0,0.0,0.0,0.0,0.0,0.0,0.0,0.0,0.0,0.0,0.0,0.0,0.0,0.0,0.0,0.0,0.0,0.0,0.0,0.0,0.0,0.0,0.0,0.0,0.0,0.0,0.0,0.0,0.0,0.0,0.0,0.0,0.0,0.0,0.0,0.0,0.0,0.0,0.0,0.0,0.0,0.0,0.0,0.0,0.0,0.0,0.0,0.0,0.0,0.0,0.0,0.0,0.0,0.0,0.0,0.0,0.0,0.0,0.0,0.0,0.0,0.0,0.0,0.0,0.0,0.0,0.0,0.0,0.0,0.0,0.0,0.0,0.0,0.0,0.0,0.0,0.0,0.0,0.0,0.0,0.0,0.0,0.0,0.0,0.0,0.0,0.0,0.0,0.0,0.0,0.0,0.0,0.0,0.0,0.0,0.0,0.0,0.0,0.0,0.0,0.0,0.0,0.0,0.0,0.0,0.0,0.0,0.0,0.0,0.0,0.0,0.0,0.0,0.0,0.0,0.0,0.0,0.0,0.0,0.0,0.0,0.0,0.0,0.0,0.0,0.0,0.0,0.0,0.0,0.0,0.0,0.0,0.0,0.0,0.0,0.0,0.0,0.0,0.0,0.0,0.0,0.0,0.0,0.0,0.0,0.0,0.0,0.0,0.0,0.0,0.0,0.0,0.0,0.0,0.0,0.0,0.0,0.0,0.0,0.0,0.0,0.0,0.0,0.0,0.0,0.0,0.0,0.0,0.0,0.0,0.0,0.0,0.0,0.0,0.0,0.0,0.0,0.0,0.0,0.0,0.0,0.0,0.0,0.0,0.0,0.0,0.0,0.0,0.0,0.0,0.0,0.0,0.0,0.0,0.0,0.0,0.0,0.0,0.0,0.0,0.0,0.0,0.0,0.0,0.0,0.0,0.0,0.0,0.0,0.0,0.0,0.0,0.0,0.0,0.0,0.0,0.0,0.0,0.0,0.0,0.0,0.0,0.0,0.0,0.0,0.0,0.0,0.0,0.0,0.0,0.0,0.0,0.0,0.0,0.0,0.0,0.0,0.0,0.0,0.0,0.0,0.0,0.0,0.0,0.0,0.0,0.0,0.0,0.0,0.0,0.0,0.0,0.0,0.0,0.0,0.0,0.0,0.0,0.0,0.0,0.0,0.0,0.0,0.0,0.0,0.0,0.0,0.0,0.0,0.0,0.0,0.0,0.0,0.0,0.0,0.0,0.0,0.0,0.0,0.0,0.0,0.0,0.0,0.0,0.0,0.0,0.0,0.0,0.0,0.0,0.0,0.0,0.0,0.0,0.0,0.0,0.0,0.0,0.0,0.0,0.0,0.0,0.0,0.0,0.0,0.0,0.0,0.0,0.0,0.0,0.0,0.0,0.0,0.0,0.0,0.0,0.0,0.0,0.0,0.0,0.0,0.0,0.0,0.0,0.0,0.0,0.0,0.0,0.0,0.0,0.0,0.0,0.0,0.0,0.0,0.0,0.0,0.0,0.0,0.0,0.0,0.0,0.0,0.0,0.0,0.0,0.0,0.0,0.0,0.0,0.0,0.0,0.0,0.0,0.0,0.0,0.0,0.0,0.0,0.0,0.0,0.0,0.0,0.0,0.0,0.0,0.0,0.0,0.0,0.0,0.0,0.0,0.0,0.0,0.0,0.0,0.0,0.0,0.0,0.0,0.0,0.0,0.0,0.0,0.0,0.0,0.0,0.0,0.0,0.0,0.0,0.0,0.0,0.0,0.0,0.0,0.0,0.0,0.0,0.0,0.0,0.0,0.0,0.0,0.0,0.0,0.0,0.0,0.0,0.0,0.0,0.0,0.0,0.0,0.0,0.0,0.0,0.0,0.0,0.0,0.0,0.0,0.0,0.0,0.0,0.0,0.0,0.0,0.0,0.0,0.0,0.0,0.0,0.0,0.0,0.0,0.0,0.0,0.0,0.0,0.0,0.0,0.0,0.0,0.0,0.0,0.0,0.0,0.0,0.0,0.0,0.0,0.0,0.0,0.0,0.0,0.0,0.0,0.0,0.0,0.0,0.0,0.0,0.0,0.0,0.0,0.0,0.0,0.0,0.0,0.0,0.0,0.0,0.0,0.0,0.0,0.0,0.0,0.0,0.0,0.0,0.0,0.0,0.0,0.0,0.0,0.0,0.0,0.0,0.0,0.0,0.0,0.0,0.0,0.0,0.0,0.0,0.0,0.0,0.0,0.0,0.0,0.0,0.0,0.0,0.0,0.0,0.0,0.0,0.0,0.0,0.0,0.0,0.0,0.0,0.0,0.0,0.0,0.0,0.0,0.0,0.0,0.0,0.0,0.0,0.0,0.0,0.0,0.0,0.0,0.0,0.0,0.0,0.0,0.0,0.0,0.0,0.0,0.0,0.0,0.0,0.0,0.0,0.0,0.0,0.0,0.0,0.0,0.0,0.0,0.0,0.0,0.0,0.0,0.0,0.0,0.0,0.0,0.0,0.0,0.0,0.0,0.0,0.0,0.0,0.0,0.0,0.0,0.0,0.0,0.0,0.0,0.0,0.0,0.0,0.0,0.0,0.0,0.0,0.0,0.0,0.0,0.0,0.0,0.0,0.0,0.0,0.0,0.0,0.0,0.0,0.0,0.0,0.0,0.0,0.0,0.0,0.0,0.0,0.0,0.0,0.0,0.0,0.0,0.0,0.0,0.0,0.0,0.0,0.0,0.0,0.0,0.0,0.0,0.0,0.0,0.0,0.0,0.0,0.0,0.0,0.0,0.0,0.0,0.0,0.0,0.0,0.0,0.0,0.0,0.0,0.0,0.0,0.0,0.0,0.0,0.0,0.0,0.0,0.0,0.0,0.0,0.0,0.0,0.0,0.0,0.0,0.0,0.0,0.0,0.0,0.0,0.0,0.0,0.0,0.0,0.0,0.0,0.0,0.0,0.0,0.0,0.0,0.0,0.0,0.0,0.0,0.0,0.0,0.0,0.0,0.0,0.0,0.0,0.0,0.0,0.0,0.0,0.0,0.0,0.0,0.0,0.0,0.0,0.0,0.0,0.0,0.0,0.0,0.0,0.0,0.0,0.0,0.0,0.0,0.0,0.0,0.0,0.0,0.0,0.0,0.0,0.0,0.0,0.0,0.0,0.0,0.0,0.0,0.0,0.0,0.0,0.0,0.0,0.0,0.0,0.0,0.0,0.0,0.0,0.0,0.0,0.0,0.0,0.0,0.0,0.0,0.0,0.0,0.0,0.0,0.0,0.0,0.0,0.0,0.0,0.0,0.0,0.0,0.0,0.0,0.0,0.0,0.0,0.0,0.0,0.0,0.0,0.0,0.0,0.0,0.0,0.0,0.0,0.0,0.0,0.0,0.0,0.0,0.0,0.0,0.0,0.0,0.0,0.0,0.0,0.0,0.0,0.0,0.0,0.0,0.0,0.0,0.0,0.0,0.0,0.0,0.0,0.0,0.0,0.0,0.0,0.0,0.0,0.0,0.0,0.0,0.0,0.0,0.0,0.0,0.0,0.0,0.0,0.0,0.0,0.0,0.0,0.0,0.0,0.0,0.0,0.0,0.0,0.0,0.0,0.0,0.0,0.0,0.0,0.0,0.0,0.0,0.0,0.0,0.0,0.0,0.0,0.0,0.0,0.0,0.0,0.0,0.0,0.0,0.0,0.0,0.0,0.0,0.0,0.0,0.0,0.0,0.0,0.0,0.0,0.0,0.0,0.0,0.0,0.0,0.0,0.0,0.0,0.0,0.0,0.0,0.0,0.0,0.0,0.0,0.0,0.0,0.0,0.0,0.0,0.0,0.0,0.0,0.0,0.0,0.0,0.0,0.0,0.0,0.0,0.0,0.0,0.0,0.0,0.0,0.0,0.0,0.0,0.0,0.0,0.0,0.0,0.0,0.0,0.0,0.0,0.0,0.0,0.0,0.0,0.0,0.0,0.0,0.0,0.0,0.0,0.0,0.0,0.0,0.0,0.0,0.0,0.0,0.0,0.0,0.0,0.0,0.0,0.0,0.0,0.0,0.0,0.0,0.0,0.0,0.0,0.0,0.0,0.0,0.0,0.0,0.0,0.0,0.0,0.0,0.0,0.0,0.0,0.0,0.0,0.0,0.0,0.0,0.0,0.0,0.0,0.0,0.0,0.0,0.0,0.0,0.0,0.0,0.0,0.0,0.0,0.0,0.0,0.0,0.0,0.0,0.0,0.0,0.0,0.0,0.0,0.0,0.0,0.0,0.0,0.0,0.0,0.0,0.0,0.0,0.0,0.0,0.0,0.0,0.0,0.0,0.0,0.0,0.0,0.0,0.0,0.0,0.0,0.0,0.0,0.0,0.0,0.0,0.0,0.0,0.0,0.0,0.0,0.0,0.0,0.0,0.0,0.0,0.0,0.0,0.0,0.0,0.0,0.0,0.0,0.0,0.0,0.0,0.0,0.0,0.0,0.0,0.0,0.0,0.0,0.0,0.0,0.0,0.0,0.0,0.0,0.0,0.0,0.0,0.0,0.0,0.0,0.0,0.0,0.0,0.0,0.0,0.0,0.0,0.0,0.0,0.0,0.0,0.0,0.0,0.0,0.0,0.0,0.0,0.0,0.0,0.0,0.0,0.0,0.0,0.0,0.0,0.0,0.0,0.0,0.0,0.0,0.0,0.0,0.0,0.0,0.0,0.0,0.0,0.0,0.0,0.0,0.0,0.0,0.0,0.0,0.0,0.0,0.0,0.0,0.0,0.0,0.0,0.0,0.0,0.0,0.0,0.0,0.0,0.0,0.0,0.0,0.0,0.0,0.0,0.0,0.0,0.0,0.0,0.0,0.0,0.0,0.0,0.0,0.0,0.0,0.0,0.0,0.0,0.0,0.0,0.0,0.0,0.0,0.0,0.0,0.0,0.0,0.0,0.0,0.0,0.0,0.0,0.0,0.0,0.0,0.0,0.0,0.0,0.0,0.0,0.0,0.0,0.0,0.0,0.0,0.0,0.0,0.0,0.0,0.0,0.0,0.0,0.0,0.0,0.0,0.0,0.0,0.0,0.0,0.0,0.0,0.0,0.0,0.0,0.0,0.0,0.0,0.0,0.0,0.0,0.0,0.0,0.0,0.0,0.0,0.0,0.0,0.0,0.0,0.0,0.0,0.0,0.0,0.0,0.0,0.0,0.0,0.0,0.0,0.0,0.0,0.0,0.0,0.0,0.0,0.0,0.0,0.0,0.0,0.0,0.0,0.0,0.0,0.0,0.0,0.0,0.0,0.0,0.0,0.0,0.0,0.0,0.0,0.0,0.0,0.0,0.0,0.0,0.0,0.0,0.0,0.0,0.0,0.0,0.0,0.0,0.0,0.0,0.0,0.0,0.0,-0.2774,0.0,0.0,0.0,0.0,0.0,0.0,0.0,0.0,0.0,0.0,0.0,0.0,0.0,0.0,0.0,0.0,0.0,0.0,0.0,0.0,0.0,0.0,0.0,0.0,0.0,0.0,0.0,0.0,0.0,0.0,0.0,0.0,0.0,0.0,0.0,0.0,0.0,0.0,0.0,0.0,0.0,0.0,0.0,0.0,0.0,0.0,0.0,0.0,0.0,0.0,0.0,0.0,0.0,0.0,0.0,0.0,0.0,0.0,0.0,0.0,0.0,0.0,0.0,0.0,0.0,0.0,0.0,0.0,0.0,0.0,0.0,0.0,0.0,0.0,0.0,0.0,0.0,0.0,0.0,0.0,0.0,0.0,0.0,0.0,0.0,0.0,0.0,0.0,0.0,0.0,0.0,0.0,0.0,0.0,0.0,0.0,0.0,0.0,0.0,0.0,0.0,0.0,0.0,0.0,0.0,0.0,0.0,0.0,0.0,0.0,0.0,0.0,0.0,0.0,0.0,0.0,-0.3404,0.0,0.0,0.0,0.0,0.0,0.0,0.0,0.0,0.0,0.0,0.0,0.0,0.0,0.0,0.0,0.0,0.0,0.0,0.0,0.0,0.0,0.0,0.0,0.0,0.0,0.0,0.0,0.0,0.0,0.0,0.0,0.0,0.0,0.0,0.0,0.0,0.0,0.0,0.0,0.0,0.0,0.0,0.0,0.0,0.0,0.0,0.0,0.0,0.0,0.0,0.0,0.0,0.0,0.0,0.0,0.0,0.0,0.0,0.0,0.0,0.0,0.0,0.0,0.0,0.0,0.0,0.0,0.0,0.0,0.0,0.0,0.0,0.0,0.0,0.0,0.0,0.0,0.0,0.0,0.0,0.0,0.0,0.0,0.0,0.0,0.0,0.0,0.0,0.0,0.0,0.0,0.0,0.0,0.0,0.0,0.0,0.0,0.0,0.0,0.0,0.0,0.0,0.0,0.0,0.0,0.0,0.0,0.0,-0.494,-0.5196,-0.6021,-0.5477,-0.5331,-0.5498,-0.4898,-0.4209,-0.358,-0.3725,0.0,0.0,0.0,0.0,0.0,0.0,0.0,0.0,0.0,0.0,0.0,0.0,0.0,0.0,0.0,0.0,0.0,0.0,0.0,0.0,0.0,0.0,0.0,0.0,0.0,0.0,0.0,0.0,0.0,0.0,0.0,0.0,0.0,0.0,0.0,0.0,0.0,0.0,0.0278,0.0389,0.0456,0.0469,0.0814,0.0,0.0,0.0,0.0,0.0,0.0,0.0,0.0,0.0,0.0,0.0,0.0,0.0,0.0,0.0,0.0,0.0,0.0,0.0,0.0,0.0,0.0,0.0,0.0,0.0,0.0,0.0,0.0,0.0,0.0,0.0,0.0,0.0,0.0,0.0,0.0,0.0,0.0,0.0,0.0,0.0,0.0,0.0,0.063,-0.0049,0.0,0.0,0.0,0.0,0.0,0.0,0.0,0.0,0.0,0.0,0.0,0.0,0.0,-0.5061,-0.5244,-0.6041,-0.6331,-0.6092,-0.6019,-0.5778,-0.5416,-0.5043,-0.4887,-0.492,-0.4746,0.0,-0.4554,-0.372,0.0,0.0,0.0,0.0,0.0,0.0,0.0,0.0,0.0,0.0,0.0,0.0,0.0,0.0,0.0,0.0,0.0,0.0,0.0,0.0,0.0,0.0,0.0,0.0,0.0,0.0,0.0,0.0,0.0,0.0,0.0,0.0,0.0,0.0,0.0,0.0,0.0,0.0104,0.0111,0.0176,0.0183,0.0187,0.0354,0.0681,0.109,0.1109,0.0,0.0,0.0,0.0,0.0,0.0,0.0,0.0,0.0,0.0,0.0,0.0,0.0,0.0,0.0,0.0,0.0,0.0,0.0,0.0,0.0,0.0,0.0,0.0,0.0,0.0,0.0,0.0,0.0,0.0,0.0,0.0,0.0,0.0,0.0,0.0,0.0,0.0,0.0,0.0887,-0.028,-0.0938,-0.0923,-0.0978,0.0,0.0,0.0,0.0,0.0,0.0,0.0,0.0,0.0,-0.4868,-0.5726,-0.6291,-0.662,-0.6679,-0.6779,-0.6928,-0.6431,-0.623,-0.6246,-0.5785,-0.5665,-0.5792,-0.5266,-0.5053,-0.5043,-0.4375,-0.4225,-0.4349,0.0,0.0,0.0,0.0,-0.3749,-0.4127,0.0,0.0,0.0,0.0,0.0,0.0,0.0,0.0,0.0,0.0,0.0,0.0,0.0,0.0,0.0,-0.2133,0.0,0.0,0.0,0.0,0.0,0.0,0.0,0.0,0.0,0.0,0.0,-0.1094,-0.0344,0.0,0.0,0.0,0.0,0.0,0.0,0.0252,0.0753,0.0818,0.1011,0.0,0.0,0.0,0.0,0.0,0.0,0.0,0.0,0.0,0.0,0.0,0.0,0.0,0.0,0.0,0.0,0.0,0.0,0.0,0.0,0.0,0.0,0.0,0.0,0.0,0.0,0.0,0.0,0.0,0.0,0.0,0.0,0.0,0.0,0.0,0.0,0.0,0.0,0.0311,-0.093,-0.1561,-0.1785,-0.1973,0.0,0.0,0.0,0.0,0.0,0.0,-0.3593,-0.423,-0.4939,-0.5807,-0.634,-0.6922,-0.7458,-0.6993,-0.7087,-0.7735,-0.7002,-0.6794,-0.7121,-0.6727,-0.6566,-0.6553,-0.5898,-0.5531,-0.5357,-0.4844,-0.4602,-0.4529,-0.4192,-0.42,-0.435,-0.4023,-0.4248,-0.4673,0.0,0.0,0.0,0.0,0.0,0.0,0.0,0.0,0.0,0.0,0.0,0.0,0.0,0.0,-0.2957,-0.3283,-0.3229,-0.2802,0.0,0.0,0.0,0.0,0.0,0.0,0.0,0.0,0.0,-0.1276,-0.0442,0.0,0.0,0.0,0.0,0.0,0.0,0.0212,0.0524,0.0449,0.0997,0.1931,0.0,0.0,0.0,0.0,0.0,0.0,0.0,0.0,0.0,0.0,0.0,0.0,0.0,0.0,0.0,0.0,0.0,0.0,0.0,0.0,0.0,0.0,0.0,0.0,0.0,0.0,0.0,0.0,0.0,0.0,0.0,0.0,0.0,0.0,0.0,0.0,0.0,0.0,0.0,-0.1182,-0.2158,0.0,0.0,0.0,0.0,-0.2678,-0.2792,-0.3271,-0.431,-0.4628,-0.496,-0.5322,-0.5917,-0.6558,-0.73,-0.7277,-0.7635,-0.8373,-0.7996,-0.7702,-0.7486,-0.7459,-0.715,-0.6587,-0.654,-0.6206,-0.5625,-0.4776,-0.4548,-0.481,-0.4975,-0.5182,-0.5403,-0.5116,-0.5006,-0.4952,0.0,0.0,0.0,0.0,0.0,0.0,0.0,0.0,0.0,0.0,0.0,0.0,0.0,-0.3409,-0.4326,-0.4399,-0.4995,-0.4572,-0.2703,0.0,0.0,0.0,0.0,0.0,0.0,0.0,-0.1231,-0.2191,-0.0738,0.0,0.0,0.0,0.0,0.0,0.0,0.0078,0.0213,0.0772,0.1261,0.1708,0.2054,0.2297,0.0,0.0,0.0,0.0,0.0,0.0,0.0,0.0,0.0,0.0,0.0,0.0,0.0,0.0,0.0,0.0,0.0,0.0,0.0,0.0,0.0,0.0,0.0,0.0,0.0,0.0,0.0,0.0,0.0,0.0,0.0,0.0,0.0,0.0,0.0,0.0,0.0,-0.2245,-0.2793,0.0,-0.3474,-0.2965,-0.2877,-0.3571,-0.381,-0.4282,-0.5047,-0.5335,-0.5641,-0.613,-0.633,-0.6574,-0.6844,-0.6685,-0.6708,-0.6963,-0.7114,-0.7036,-0.682,-0.7282,-0.7248,-0.6854,-0.6667,-0.6466,-0.6226,-0.5531,-0.5053,-0.4807,-0.4865,-0.497,-0.5048,-0.4929,-0.4997,-0.5124,0.0,0.0,0.0,0.0,0.0,0.0,0.0,0.0,0.0,0.0,0.0,-0.2177,-0.2923,-0.4374,-0.532,-0.5512,-0.5703,-0.5045,-0.3131,0.0,0.0,0.0,0.0,0.0,0.0,-0.1827,-0.1684,-0.2244,-0.0726,0.0,0.0,0.0,0.0,0.0,0.0,0.0,0.0081,0.0953,0.1445,0.1798,0.219,0.2581,0.2941,0.0,0.0,0.0,0.0,0.0,0.0,0.0,0.0,0.0,0.0,0.0,0.0,0.0,0.0,0.0,0.0,0.0,0.0,0.0,0.0,0.0,0.0,0.0,0.0,0.0,0.0,0.0,0.0,0.0,0.0,0.0,0.0,0.0,0.0,0.0,-0.2473,-0.2948,-0.35,-0.3947,-0.429,-0.3887,-0.3779,-0.4346,-0.4562,-0.4816,-0.5202,-0.5368,-0.5575,-0.5887,-0.5882,-0.5987,-0.6204,-0.6057,-0.6091,-0.6353,-0.6614,-0.6613,-0.6376,-0.7193,-0.7268,-0.6817,-0.6947,-0.6867,-0.656,-0.6172,-0.5665,-0.5093,-0.4993,-0.4947,-0.4941,-0.4995,-0.5113,-0.5269,0.0,0.0,0.0,0.0,0.0,0.0,0.0,0.0,0.0,0.0,-0.1867,-0.3061,-0.4446,-0.5322,-0.5996,-0.6434,-0.5264,-0.4088,-0.3049,-0.1614,0.0,0.0,0.0,0.0,-0.2582,-0.2021,-0.1553,-0.1302,-0.0417,0.0,0.0,0.0,0.0,0.0,0.0,0.0,0.0087,0.0915,0.1577,0.2124,0.1935,0.2629,0.3701,0.0,0.0,0.0,0.0,0.0,0.0,0.0,0.0,0.0,0.0,0.0,0.0,0.0,0.0,0.0,0.0,0.0,0.0,0.0,0.0,0.0,0.0,0.0,0.0,0.0,0.0,0.0,0.0,0.0,0.0,0.0,0.0,0.0,-0.1098,-0.2279,-0.3091,-0.3252,-0.4253,-0.4874,-0.4724,-0.4843,-0.4928,-0.4935,-0.4935,-0.4863,-0.4707,-0.4697,-0.4626,-0.4522,-0.4519,-0.4787,-0.5487,-0.5487,-0.5814,-0.6534,-0.6588,-0.6468,-0.6196,-0.722,-0.7232,-0.6469,-0.7448,-0.7364,-0.6587,-0.6587,-0.6239,-0.5685,-0.5404,-0.5256,-0.5211,-0.5347,-0.5386,-0.5399,0.0,0.0,0.0,0.0,0.0,0.0,0.0,0.0,0.0,0.0,-0.1954,-0.3219,-0.455,-0.5656,-0.6097,-0.5568,-0.4966,-0.3898,-0.2116,0.0,0.0,0.0,0.0,0.0,-0.3098,-0.1894,-0.1309,-0.1533,-0.0531,0.0,0.0,0.0,0.0,0.0,0.0,0.0,0.0,0.0269,0.0852,0.1632,0.2717,0.3664,0.447,0.0,0.0,0.0,0.0,0.0,0.0,0.0,0.0,0.0,0.0,0.0,0.0,0.0,0.0,0.0,0.0,0.0,0.0,0.0,0.0,0.0,0.0,0.0,0.0,0.0,0.0,0.0,0.0,0.0,0.0,0.0,0.0,-0.2536,-0.2788,-0.3607,-0.4293,-0.4734,-0.5098,-0.5223,-0.5182,-0.5114,-0.5118,-0.5233,-0.524,-0.5128,-0.487,-0.4857,-0.4735,-0.4525,-0.4519,-0.457,-0.4787,-0.4787,-0.4897,-0.5062,-0.61,-0.6202,-0.5423,-0.6783,-0.7014,-0.6412,-0.6671,-0.6724,-0.6587,-0.6587,-0.6239,-0.5705,-0.5625,-0.545,-0.5274,-0.5304,-0.5311,-0.5254,0.0,0.0,0.0,0.0,0.0,0.0,0.0,0.0,0.0,0.0,-0.2219,-0.3407,-0.4823,-0.544,-0.5545,-0.4952,-0.3968,-0.2884,-0.157,0.0,0.0,0.0,0.0,-0.2755,-0.3095,-0.19,-0.1227,-0.0903,-0.0278,0.0,0.0,0.0,0.0,0.0,0.0,0.0,0.0,0.0,0.0548,0.1477,0.2408,0.313,0.3729,0.4596,0.4397,0.3781,0.4357,0.4513,0.4398,0.4167,0.0,0.0,0.0,0.0,0.0,0.0,0.0,0.0,0.0,0.0,0.0,0.0,0.0,0.0,0.0,0.0,0.0,0.0,0.0,0.0,0.0,0.0,0.0,0.0,-0.263,-0.3814,-0.4484,-0.4827,-0.5138,-0.5538,-0.5494,-0.5457,-0.5457,-0.5318,-0.5264,-0.5422,-0.5428,-0.5233,-0.4935,-0.4918,-0.4779,-0.4529,-0.4519,-0.4519,-0.4519,-0.4519,-0.4519,-0.4519,-0.5336,-0.5387,-0.4911,-0.602,-0.6299,-0.5899,-0.6374,-0.6562,-0.651,-0.6566,-0.6386,0.0,0.0,0.0,0.0,0.0,-0.5443,-0.5289,0.0,0.0,0.0,0.0,0.0,0.0,0.0,0.0,0.0,0.0,0.0,-0.3441,-0.4929,-0.4855,-0.4537,-0.4359,-0.2673,-0.1547,0.0,0.0,0.0,-0.3749,-0.3364,-0.2943,-0.2778,-0.1855,-0.0921,0.0,0.0,0.0,0.0,0.0,0.0,0.0,0.0,0.0,0.0,0.0,0.0569,0.1394,0.1581,0.1855,0.2417,0.4395,0.427,0.328,0.4389,0.4638,0.4448,0.4552,0.0,0.0,0.0,0.0,0.0,0.0,0.0,0.0,0.0,0.0,0.0,0.0,0.0,0.0,0.0,0.0,0.0,0.0,0.0,0.0,0.0,0.0,0.0,0.0,-0.332,-0.4643,-0.5841,-0.583,-0.5698,-0.5789,-0.5691,-0.5599,-0.5566,-0.5457,-0.5449,-0.5428,-0.5446,-0.5257,-0.4958,0.0,0.0,0.0,0.0,-0.4519,-0.4519,-0.4519,-0.4519,-0.4519,-0.457,-0.457,-0.4515,-0.5218,-0.5333,-0.5155,-0.6279,-0.6601,-0.6383,-0.6591,-0.6647,-0.6533,-0.5945,-0.5538,-0.534,-0.5703,-0.5653,-0.5393,0.0,0.0,0.0,0.0,0.0,0.0,0.0,0.0,0.0,-0.0959,-0.1927,-0.2714,-0.3316,-0.394,-0.3806,-0.2481,-0.1918,-0.1576,0.0,0.0,-0.3387,-0.3232,-0.305,-0.2583,-0.1853,-0.0843,-0.0192,0.0,0.0,0.0,0.0,0.0,0.0,0.0,0.0,0.0,0.0,0.0,0.0099,0.0388,0.1357,0.2173,0.2753,0.3207,0.3106,0.279,0.3795,0.4121,0.4218,0.4761,0.4523,0.3843,0.3651,0.0,0.0,0.0,0.0,0.0,0.0,0.0,0.0,0.0,0.0,0.0,0.0,0.0,0.0,0.0,0.0,0.0,0.0,0.0,0.0,-0.2421,-0.4095,-0.561,-0.6169,-0.6166,-0.6047,-0.5827,-0.5776,-0.5667,-0.543,-0.5491,-0.5494,-0.5435,-0.5477,-0.5413,-0.5104,-0.4982,-0.4833,-0.4653,-0.4584,-0.4519,-0.4519,-0.4519,-0.4519,-0.4519,0.0,0.0,-0.4515,-0.5218,-0.5333,-0.5164,-0.5937,-0.6235,-0.6157,-0.698,-0.7056,-0.6533,-0.5945,-0.5538,-0.5316,-0.5372,-0.539,-0.5313,0.0,0.0,0.0,0.0,0.0,0.0,0.0,0.0,0.0,0.0,-0.1387,-0.1974,-0.2477,-0.2687,-0.2429,-0.1487,-0.1291,0.0,0.0,-0.3467,-0.4093,-0.3895,-0.3406,-0.2665,-0.1685,-0.058,0.0,0.0,0.0,0.0,0.0,0.0,0.0,0.0,0.0,0.0,0.0,0.0,0.0,0.01,0.0696,0.1153,0.154,0.2718,0.2677,0.2215,0.3616,0.4006,0.4056,0.4843,0.4398,0.3487,0.3195,0.28,0.2509,0.0,0.0,0.0,0.0,0.0,0.0,0.0,0.0,0.0,0.0,0.0,0.0,0.0,0.0,0.0554,0.0,0.0,-0.203,-0.205,-0.3434,-0.4535,-0.4675,-0.4686,-0.5045,-0.5962,-0.5895,-0.5772,-0.5701,-0.5633,-0.5589,-0.5583,-0.5586,-0.5491,-0.5257,-0.5036,-0.485,-0.4697,-0.4597,-0.4519,-0.4519,-0.4519,-0.4519,-0.4519,-0.4842,-0.4842,-0.4519,-0.4842,-0.4903,-0.4824,-0.541,-0.5552,-0.554,-0.6464,-0.6567,-0.6165,-0.6153,-0.5885,-0.5478,-0.5337,-0.519,-0.5037,0.0,0.0,0.0,0.0,0.0,0.0,0.0,0.0,0.0,0.0,-0.0826,-0.1207,-0.1654,-0.143,-0.1141,0.0,0.0,0.0,0.0,-0.4078,-0.4599,-0.4468,-0.3732,-0.2796,-0.1469,-0.0492,0.0,0.0,0.0,0.0,0.0,0.0,0.0,0.0,0.0,0.0,0.0,0.0,0.0,0.0,0.0,0.0,0.0196,0.1937,0.2127,0.1459,0.3142,0.3663,0.3636,0.4394,0.3972,0.3022,0.2466,0.1975,0.1672,0.1643,0.1598,0.0,0.0,0.0,0.0,0.0,0.0,0.0,0.0,0.0,0.0288,0.061,0.0369,0.0166,0.012,-0.0783,-0.1453,-0.1556,-0.2409,-0.3115,-0.3107,-0.3095,-0.3709,-0.5509,-0.5539,-0.5506,-0.5593,-0.5641,-0.5627,-0.5708,-0.5637,-0.5521,-0.5435,-0.5081,-0.4863,-0.4738,-0.4558,-0.4519,-0.4519,-0.4519,-0.4519,-0.4519,-0.4519,-0.4519,-0.4519,-0.4519,-0.4519,-0.4508,-0.493,-0.5136,-0.522,-0.5832,-0.5919,-0.5721,-0.6234,-0.611,-0.567,-0.5524,-0.5264,-0.498,0.0,0.0,0.0,0.0,0.0,0.0,0.0,0.0,0.0,0.0,0.0,0.0,0.0,0.0,0.0,0.0,0.0,0.0,-0.3392,-0.4904,-0.5101,-0.3622,-0.3665,-0.2624,-0.0294,-0.01,0.0,0.0,0.0,0.0,0.0,0.0,0.0,0.0,0.0,0.0,0.0,0.0,0.0,0.0,0.0,0.0,0.0,0.0283,0.027,0.0345,0.1443,0.2236,0.2704,0.3017,0.2907,0.2427,0.1656,0.1365,0.1299,0.1406,0.0,0.2435,0.3093,0.2961,0.2531,0.2027,0.1491,0.1049,0.0,0.0,0.0227,0.0128,0.0065,0.0,0.0,-0.0865,-0.1568,-0.1573,-0.2421,-0.3096,-0.3114,-0.3095,-0.3194,-0.3413,-0.4009,-0.4309,-0.4217,-0.5043,-0.5542,-0.542,-0.5521,-0.5521,-0.5435,-0.5081,-0.4911,-0.4894,-0.4613,-0.4519,-0.4519,-0.4519,-0.4519,-0.4519,-0.4519,-0.4519,-0.4519,-0.4519,-0.4519,-0.4508,-0.493,-0.5461,-0.602,-0.5689,-0.5545,-0.553,-0.5719,-0.5756,-0.5713,-0.6018,-0.5872,-0.5611,0.0,0.0,0.0,0.0,0.0,0.0,0.0,0.0,0.0,0.0,0.0,0.0,0.0,0.0,0.0,0.0,0.0,0.0,-0.3307,-0.4285,-0.44,-0.3438,-0.2863,-0.1772,0.0,0.0,0.0,0.0,0.0,0.0,0.0,0.0,0.0,0.0,0.0,0.0,0.0,0.0,0.0,0.0,0.0,0.0,0.0099,0.0558,0.0697,0.065,0.1882,0.2309,0.0,0.0,0.3272,0.2269,0.1831,0.1406,0.1121,0.1597,0.1868,0.0,0.2394,0.2421,0.0,0.0,0.1085,0.0676,0.0377,0.0198,0.0068,0.0,0.0,0.0,0.0,-0.0381,-0.0695,0.0,-0.1021,-0.1329,-0.1265,-0.1314,-0.1277,-0.1276,-0.2035,-0.2965,-0.4172,-0.458,-0.5018,-0.561,-0.5599,-0.5562,-0.5498,-0.5206,-0.5003,-0.4921,-0.4707,-0.4551,-0.4519,-0.4519,-0.4519,-0.4519,-0.4519,-0.4519,-0.4519,-0.4519,-0.4519,-0.4508,-0.457,-0.4759,-0.5039,-0.5018,-0.5047,-0.5061,-0.5336,-0.568,-0.6008,-0.6136,-0.6115,-0.6008,0.0,0.0,0.0,0.0,0.0,0.0,0.0,0.0,0.0,0.0,0.0,0.0,0.0,0.0,0.0,0.0,0.0,0.0,0.0,-0.3396,-0.3488,-0.2946,-0.2257,-0.1269,0.0,0.0,0.0,0.0,0.0,0.0,0.0,0.0,0.0,0.0,0.0,0.0,0.0,0.0,0.0,0.0,0.0,0.0098,0.0381,0.0977,0.1221,0.1476,0.2435,0.2645,0.0,0.0,0.3391,0.2415,0.2048,0.1605,0.1281,0.1806,0.1917,0.1862,0.1781,0.0,0.0,0.117,0.0646,0.0331,0.0071,0.0,0.0,0.0,0.0,0.0,0.0,0.0,0.0,0.0,0.0,0.0,0.0,0.0,0.0,0.0,-0.0558,-0.1621,-0.3449,-0.3916,-0.459,-0.559,-0.5586,-0.5528,-0.5528,-0.5274,-0.5084,-0.4982,-0.4792,-0.4636,-0.458,-0.4539,-0.4519,-0.4519,-0.4519,-0.4519,-0.4519,-0.4519,-0.4519,-0.4512,-0.4351,-0.4307,-0.4287,-0.4469,-0.4562,-0.4546,-0.5127,-0.5581,-0.6004,-0.631,-0.6384,-0.631,0.0,0.0,0.0,0.0,0.0,0.0,0.0,0.0,0.0,0.0,0.0,0.0,0.0,0.0,0.0,0.0,0.0,0.0,0.0,-0.2592,-0.2744,-0.1921,-0.197,-0.1414,0.0,0.0,0.0,0.0,0.0,0.0,0.0,0.0,0.0,0.0,0.0,0.0,0.0,0.0,0.0,0.0,0.0,0.0474,0.107,0.0979,0.1528,0.2386,0.2702,0.0,0.0,0.0,0.277,0.3083,0.2108,0.1862,0.0,0.182,0.2061,0.0,0.0,0.0,0.1368,0.0818,0.0342,0.0,0.0,0.0,0.0,0.0,0.0,0.0,0.0,0.0,0.0,0.0,0.0,0.0,0.0,0.0,0.0,0.0,0.0,-0.0413,0.0,-0.2983,-0.442,-0.5362,-0.5435,-0.5435,-0.5435,-0.5216,-0.5128,-0.5125,-0.4843,-0.4687,-0.4684,-0.4591,-0.4519,-0.4519,-0.4519,-0.4519,-0.4519,-0.4519,-0.4519,-0.4519,-0.4512,-0.4512,-0.4498,-0.4294,-0.4148,-0.4094,-0.511,-0.541,-0.5475,-0.6573,-0.6814,-0.6573,0.0,0.0,0.0,0.0,0.0,0.0,0.0,0.0,0.0,0.0,0.0,0.0,0.0,0.0,0.0,0.0,0.0,0.0,0.0,-0.1592,-0.1702,-0.152,-0.0982,-0.0441,0.0,0.0,0.0,0.0,0.0,0.0,0.0,0.0,0.0,0.0,0.0,0.0,0.0,0.0,0.0293,0.0855,0.0735,0.1308,0.2197,0.277,0.3135,0.3454,0.0,0.0,0.0,0.3491,0.3337,0.297,0.2332,0.2228,0.2324,0.2244,0.228,0.2143,0.0,0.0,0.1045,0.1321,0.0701,0.0242,0.0982,0.0579,0.0,0.0,0.0149,0.0291,0.0276,0.0605,0.0743,0.0357,0.0362,0.0365,0.0073,0.0,0.0,0.0,0.0,0.0,0.0,0.0,0.0,-0.3565,-0.4164,-0.4463,-0.448,-0.4979,-0.5237,-0.5135,-0.5033,-0.4938,-0.4843,-0.4691,-0.4613,-0.4613,-0.4567,-0.4519,-0.4519,-0.4519,-0.4519,-0.4519,-0.4519,-0.4519,-0.4508,-0.4307,-0.4167,-0.4196,-0.4749,-0.5139,-0.551,-0.6194,-0.6626,-0.688,0.0,0.0,0.0,0.0,0.0,0.0,0.0,0.0,0.0,0.0,0.0,0.0,0.0,0.0,0.0,0.0,0.0,0.0,0.0,0.0,-0.0739,-0.0866,-0.0282,0.0076,0.0079,0.0165,0.017,0.0171,0.0177,0.009,0.0089,0.0,0.0,0.0,0.0,0.019,0.0474,0.0372,0.0816,0.1583,0.16,0.2062,0.2947,0.363,0.4009,0.0,0.0,0.0,0.0,0.4132,0.3872,0.3299,0.2652,0.2403,0.2305,0.2165,0.2168,0.1999,0.1049,0.1078,0.1388,0.1702,0.1503,0.1343,0.2095,0.1408,0.056,0.0512,0.0632,0.0675,0.0696,0.1044,0.1178,0.0729,0.0609,0.0414,0.0072,0.0,0.0,0.0,0.0,-0.0194,0.0,0.0,0.0,-0.3071,-0.369,-0.4137,-0.448,-0.509,-0.5315,-0.5216,-0.5159,-0.5087,-0.4996,-0.4792,-0.4663,-0.4609,-0.4567,-0.4519,-0.4519,-0.4519,-0.4519,-0.4519,-0.4519,-0.4519,-0.4512,-0.4362,-0.4241,-0.4282,-0.496,-0.54,-0.5794,-0.6519,-0.7039,-0.7271,0.0,0.0,0.0,0.0,0.0,0.0,0.0,0.0,0.0,0.0,0.0,0.0,0.0,0.0,0.0,0.0,0.0,0.0,0.0,0.0,0.0,0.0,0.0056,0.0181,0.032,0.0405,0.048,0.0469,0.0435,0.0372,0.0291,0.0157,0.0081,0.0081,0.0083,0.0501,0.1333,0.1221,0.1528,0.2075,0.2433,0.278,0.3234,0.3547,0.0,0.0,0.0,0.0,0.0,0.0,0.0,0.0,0.0,0.2392,0.2015,0.1641,0.1757,0.1721,0.0916,0.1522,0.2403,0.1968,0.2562,0.327,0.3173,0.2413,0.1657,0.1535,0.1363,0.1211,0.0,0.0,0.1295,0.1162,0.0632,0.0198,0.0,0.0,0.0,0.0,0.0,0.0,0.0,0.0,0.0,-0.3677,0.0,-0.4287,-0.5236,-0.5299,-0.5359,-0.5428,-0.522,-0.5142,-0.5142,-0.485,-0.4626,-0.4529,-0.4522,-0.4519,-0.4519,-0.4519,-0.4519,-0.4519,-0.4519,-0.4519,-0.4519,-0.4519,-0.4382,-0.4362,-0.5629,-0.6067,-0.6136,-0.7398,-0.7882,-0.7802,0.0,0.0,0.0,0.0,0.0,0.0,0.0,0.0,0.0,0.0,0.0,0.0,0.0,0.0,0.0,0.0,0.0,0.0,0.0,0.0,0.0,0.0,0.0,0.0,0.0,0.0,0.0,0.0,0.0,0.0553,0.055,0.0511,0.06,0.0826,0.0905,0.121,0.151,0.1618,0.2061,0.2793,0.0,0.3484,0.432,0.0,0.0,0.0,0.0,0.0,0.0,0.0,0.0,0.0,0.0,0.1767,0.1474,0.1036,0.0994,0.0939,0.0318,0.1091,0.2182,0.297,0.3266,0.356,0.4185,0.3413,0.2535,0.2079,0.238,0.2615,0.0,0.0,0.0,0.1746,0.1073,0.0,0.0071,0.0,0.0,0.0,0.0,0.0,0.0,0.0,0.0,0.0,-0.1957,-0.2432,-0.3309,-0.3994,-0.4686,-0.5362,-0.5321,-0.5304,-0.5304,-0.5009,-0.4782,-0.4629,-0.4573,-0.4519,-0.4519,-0.4519,-0.4519,-0.4519,-0.4519,-0.4519,-0.4519,-0.4519,-0.4494,-0.4504,-0.5117,-0.5701,-0.6238,-0.6855,-0.7433,-0.7862,0.0,0.0,0.0,0.0,0.0,0.0,0.0,0.0,0.0,0.0,0.0,0.0,0.0,0.0,0.0,0.0,0.0,0.0,0.0,0.0,0.0,0.0,0.0,0.0,0.0,0.0,0.0,0.0,0.0,0.0,0.0,0.0725,0.0756,0.0946,0.1085,0.1485,0.2018,0.2058,0.0,0.0,0.0,0.0,0.0,0.0,0.0,0.0,0.0,0.0,0.0,0.0,0.0,0.1947,0.1461,0.1165,0.0904,0.0485,0.0,0.0477,0.0085,0.1338,0.2848,0.3405,0.4255,0.4931,0.5169,0.4356,0.3448,0.3168,0.3253,0.0,0.0,0.0,0.0,0.0,0.0,0.0,0.0068,0.0,0.0,0.0,0.0,0.0,0.0,0.0,-0.0225,0.0,-0.1054,-0.1717,-0.2649,-0.3533,-0.4217,-0.4755,-0.516,-0.5328,-0.526,-0.5094,-0.4904,-0.4691,-0.4602,-0.4584,-0.4519,-0.4519,-0.4519,-0.4519,-0.4519,-0.4519,-0.4519,-0.4519,-0.4519,-0.4563,-0.5057,-0.5703,-0.643,-0.6968,-0.7641,-0.8297,0.0,0.0,0.0,0.0,0.0,0.0,0.0,0.0,0.0,0.0,0.0,0.0,0.0,0.0,0.0,0.0,0.0,0.0,0.0,0.0,0.0,0.0,0.0,0.0,0.0,0.0,0.0,0.0,0.0,0.0,0.0,0.0,0.0,0.0,0.0,0.0,0.0,0.0,0.0,0.0,0.0,0.0,0.0,0.0,0.0,0.0,0.0,0.0,0.0,0.0,0.1531,0.0939,0.08,0.0557,0.029,0.0078,0.0162,0.0336,0.0268,0.1949,0.3791,0.3798,0.5259,0.6508,0.6033,0.514,0.4436,0.43,0.0,0.376,0.3125,0.2779,0.2313,0.1323,0.0,0.0175,0.0,0.0,0.0,0.0,0.0,0.0,0.0,0.0,0.0,0.0,-0.0733,-0.1551,-0.2455,-0.3199,-0.3747,-0.4015,-0.4888,-0.5298,-0.5162,-0.5142,-0.5003,-0.4748,-0.4728,-0.4643,-0.4549,-0.4549,-0.4536,-0.4519,-0.4519,-0.4519,-0.4519,-0.4519,-0.4519,-0.457,-0.5164,-0.5819,-0.6529,-0.7289,-0.8049,-0.8613,0.0,0.0,0.0,0.0,0.0,0.0,0.0,0.0,0.0,0.0,0.0,0.0,0.0,0.0,0.0,0.0,0.0,0.0,0.0,0.0,0.0,0.0,0.0,0.0,0.0,0.0,0.0,0.0,0.0,0.0,0.0,0.0,0.0,0.0,0.0,0.0,0.0,0.0,0.0,0.0,0.0,0.0,0.0,0.0,0.0,0.0,0.0,0.0,0.0,0.0,0.1734,0.1035,0.0351,0.0151,0.008,0.0,0.0,0.0273,0.1404,0.268,0.405,0.4835,0.5809,0.6325,0.5672,0.5398,0.0,0.0,0.0,0.4924,0.4113,0.3554,0.0,0.1681,0.0,0.0,0.0,0.0,0.0,0.0,0.0,0.0,0.0,0.0,0.0,0.0,-0.0149,-0.0591,-0.1517,-0.1653,-0.2476,-0.3949,-0.4888,-0.5415,-0.5321,-0.5196,-0.5104,-0.5053,-0.4935,-0.4799,-0.465,-0.465,-0.4582,-0.4519,-0.4519,0.0,-0.4519,-0.4519,-0.4519,-0.4519,-0.4625,-0.5113,-0.576,-0.6529,-0.7235,-0.7984,0.0,0.0,0.0,0.0,0.0,0.0,0.0,0.0,0.0,0.0,0.0,0.0,0.0,0.0,0.0,0.0,0.0,0.0,0.0,0.0,0.0,0.0,0.0,0.0,0.0,0.0,0.1481,0.1613,0.0,0.0,0.0,0.1656,0.1721,0.0,0.0,0.0,0.0,0.0,0.0,0.0,0.0,0.0,0.0,0.0,0.0,0.0,0.0,0.0,0.0,0.0,0.2178,0.1319,0.0286,0.0307,0.0637,0.0628,0.1179,0.1904,0.2417,0.364,0.4936,0.5303,0.5917,0.6242,0.5617,0.0,0.0,0.0,0.0,0.5242,0.4333,0.0,0.0,0.0,0.0,0.0,0.0,0.0,0.0,0.0,0.0,0.0,0.0,0.0,0.0,0.0,0.0,-0.0217,-0.0572,-0.1029,-0.1941,-0.328,-0.4217,-0.4686,-0.4686,-0.5088,-0.5209,-0.5128,-0.4986,-0.484,-0.4687,-0.4609,-0.4587,-0.4519,-0.4519,-0.4519,-0.4519,-0.4519,-0.4519,-0.4519,-0.4519,-0.4893,-0.5542,-0.5873,-0.6475,-0.7235,0.0,0.0,0.0,0.0,0.0,0.0,0.0,0.0,0.0,0.0,0.0,0.0,0.0,0.0,0.0,0.0,0.0,0.0,0.0,0.0,0.0,0.0,0.0,0.0,0.0,0.0,0.0,0.1914,0.18,0.0,0.0,0.0,0.0,0.0,0.2147,0.0,0.0,0.0,0.0,0.0,0.0,0.0,0.0,0.0,0.0,0.0,0.0,0.0,0.0,0.0,0.2713,0.1928,0.0887,0.0958,0.152,0.1395,0.232,0.3421,0.3592,0.4632,0.5767,0.5731,0.5978,0.6046,0.5578,0.5393,0.0,0.0,0.5318,0.5198,0.4252,0.0,0.0,0.0,0.0,0.0,0.0,0.0,0.0,0.0,0.0,0.0,0.0,0.0,0.0,0.0,0.0,0.0,0.0,-0.0815,-0.1608,-0.2409,-0.328,-0.3747,-0.3747,-0.4619,-0.5032,-0.4852,-0.4938,-0.4918,-0.4735,-0.4616,-0.458,-0.4519,-0.4519,-0.4519,-0.4519,-0.4519,-0.4519,-0.4519,-0.4519,-0.4842,-0.5324,-0.5433,-0.5869,-0.6475,0.0,0.0,0.0,0.0,0.0,0.0,0.0,0.0,0.0,0.0,0.0,0.0,0.0,0.0,0.0,0.0,0.0,0.0,0.0,0.0,0.0,0.0,0.0,0.0,0.0,0.0,0.0,0.1981,0.1976,0.0,0.0,0.0,0.0,0.0,0.0,0.2244,0.2444,0.0,0.0,0.0,0.0,0.0,0.0,0.0,0.0,0.0,0.0,0.0,0.0,0.0,0.0,0.2992,0.2465,0.222,0.2194,0.2237,0.0,0.0,0.4837,0.5418,0.5837,0.6693,0.6414,0.5751,0.5502,0.0,0.0,0.5232,0.5318,0.5071,0.423,0.4051,0.3514,0.0,0.0,0.0,0.0,0.0,0.0,0.0,0.0,0.0,0.0,0.0,0.0,0.0,0.0,0.0,0.0,-0.0807,-0.134,-0.1407,-0.2344,-0.2811,-0.2811,-0.368,-0.4143,-0.4132,-0.4923,-0.5172,-0.4897,-0.4884,-0.4724,-0.4519,-0.4519,-0.4519,0.0,-0.4519,-0.4519,-0.4519,-0.4519,-0.4519,-0.468,-0.5273,-0.5542,-0.5706,0.0,0.0,0.0,0.0,0.0,0.0,0.0,0.0,0.0,0.0,0.0,0.0,0.0,0.0,0.0,0.0,0.0,0.0,0.0,0.0,0.0,0.0,0.0,0.0,0.0,0.0,0.2026,0.2014,0.2131,0.0,0.0,0.0,0.0,0.0,0.0,0.2438,0.2616,0.0,0.0,0.0,0.0,0.0,0.0,0.0,0.0,0.0,0.0,0.0,0.0,0.0,0.0,0.0,0.3557,0.3706,0.0,0.0,0.3706,0.4385,0.5567,0.5676,0.5706,0.6668,0.62,0.5536,0.5427,0.0,0.0,0.5232,0.5366,0.5261,0.4719,0.4498,0.3917,0.0,0.0,0.0,0.0,0.0,0.0,0.0,0.0,0.0,0.0,0.0,0.0,0.0,0.0,0.0,0.0,-0.0337,-0.0538,-0.0538,-0.1408,-0.1876,-0.1876,-0.2744,-0.348,-0.4013,-0.4204,-0.4525,-0.4911,-0.4728,-0.4579,-0.4519,-0.4519,-0.457,0.0,-0.4556,-0.4573,-0.4589,-0.4553,-0.4519,-0.4515,-0.4787,-0.4893,-0.5003,0.0,0.0,0.0,0.0,0.0,0.0,0.0,0.0,0.0,0.0,0.0,0.0,0.0,0.0,0.0,0.0,0.0,0.0,0.0,0.0,0.0,0.0,0.0,0.0,0.0,0.0,0.2183,0.2147,0.2253,0.2219,0.0,0.0,0.2194,0.2172,0.0,0.0,0.0,0.0,0.0,0.0,0.0,0.0,0.0,0.0,0.0,0.0,0.0,0.0,0.0,0.0,0.0,0.0,0.0,0.0,0.0,0.0,0.4632,0.5264,0.5977,0.5925,0.5773,0.6288,0.5864,0.5377,0.0,0.0,0.5101,0.5358,0.5371,0.528,0.498,0.4635,0.4056,0.3075,0.0,0.1884,0.0,0.0,0.0,0.0,0.0,0.0,0.0,0.0,0.0,0.0,0.0,0.0,0.0,0.0,0.0,0.0,-0.0605,-0.094,-0.094,-0.1809,-0.2611,-0.3209,-0.3535,-0.3998,-0.4543,-0.4578,-0.4572,-0.4584,-0.4536,-0.4575,0.0,-0.4592,-0.4619,-0.4745,-0.4589,-0.4558,-0.4592,-0.4548,-0.4584,-0.464,0.0,0.0,0.0,0.0,0.0,0.0,0.0,0.0,0.0,0.0,0.0,0.0,0.0,0.0,0.0,0.0,0.0,0.0,0.0,0.0,0.0,0.0,0.0,0.0,0.0,0.0,0.2507,0.251,0.2375,0.2305,0.2289,0.2443,0.2437,0.2295,0.0,0.0,0.0,0.0,0.0,0.0,0.0,0.0,0.0,0.0,0.0,0.0,0.0,0.0,0.0,0.0,0.0,0.0,0.0,0.0,0.0,0.0,0.5628,0.6158,0.5952,0.6011,0.6037,0.5844,0.551,0.5285,0.0,0.0,0.5193,0.5593,0.5333,0.4985,0.4845,0.4412,0.3792,0.2851,0.2588,0.0,0.0,0.0,0.0,0.0,0.0,0.0,0.0,0.0,0.0,0.0,0.0,0.0,0.0,0.0,0.0,0.0,0.0,0.0,0.0,-0.0873,-0.134,-0.134,-0.3143,-0.3831,-0.3625,-0.4482,-0.483,-0.468,-0.4584,-0.4633,0.0,-0.4752,-0.4779,-0.4901,-0.4748,-0.4779,-0.4897,-0.4745,-0.4687,-0.4691,0.0,0.0,0.0,0.0,0.0,0.0,0.0,0.0,0.0,0.0,0.0,0.0,0.0,0.0,0.0,0.0,0.0,0.0,0.0,0.0,0.0,0.0,0.0,0.0,0.0,0.0,0.2592,0.251,0.2457,0.2389,0.2286,0.2423,0.245,0.238,0.2629,0.2754,0.0,0.0,0.0,0.0,0.0,0.0,0.0,0.0,0.0,0.0,0.0,0.0,0.0,0.0,0.0,0.0,0.0,0.0,0.0,0.5181,0.4911,0.0,0.5546,0.535,0.5055,0.5627,0.5549,0.5354,0.5575,0.0,0.514,0.5496,0.5241,0.4941,0.4845,0.4587,0.41,0.3202,0.2807,0.0,0.0,0.0,0.0,0.0,0.0,0.0,0.0,0.0,0.0,0.0,0.0,0.0,0.0,0.0,0.0,0.0,0.0,0.0,0.0,-0.0269,-0.0739,-0.134,-0.2432,-0.3189,-0.3625,-0.4485,-0.4833,-0.4694,-0.4752,-0.4884,-0.5053,-0.4908,-0.4935,-0.505,-0.4904,-0.4877,-0.4901,-0.4748,-0.4758,-0.483,0.0,0.0,0.0,0.0,0.0,0.0,0.0,0.0,0.0,0.0,0.0,0.0,0.0,0.0,0.0,0.0,0.0,0.0,0.0,0.0,0.0,0.0,0.0,0.0,0.0,0.2679,0.2679,0.2577,0.251,0.2444,0.2383,0.2444,0.251,0.2543,0.2742,0.2878,0.0,0.0,0.0,0.0,0.0,0.0,0.2477,0.0,0.0,0.0,0.0,0.0,0.0,0.0,0.0,0.0,0.0,0.0,0.0,0.0,0.4852,0.4636,0.0,0.5091,0.4768,0.5402,0.5386,0.0,0.0,0.0,0.5101,0.5096,0.4884,0.4631,0.4272,0.4008,0.3653,0.3158,0.2716,0.0,0.0,0.0,0.0,0.0,0.0,0.0,0.0,0.0268,0.0337,0.0,0.0,0.0,0.0,0.0,0.0,0.0,0.0,0.0,0.0,0.0,-0.0268,-0.0793,-0.1622,-0.239,-0.3079,-0.4033,-0.4562,-0.4782,-0.4877,-0.5033,0.0,-0.5057,-0.5084,-0.5203,-0.5057,-0.5033,-0.5067,-0.4911,-0.4918,-0.4986,0.0,0.0,0.0,0.0,0.0,0.0,0.0,0.0,0.0,0.0,0.0,0.0,0.0,0.0,0.0,0.0,0.0,0.0,0.0,0.0,0.0,0.0,0.0,0.0,0.0,0.2749,0.2749,0.2712,0.2577,0.251,0.251,0.251,0.2643,0.2815,0.2907,0.3003,0.3072,0.2709,0.2613,0.2683,0.242,0.2383,0.0,0.0,0.0,0.0,0.0,0.0,0.0,0.0,0.0,0.0,0.0,0.0,0.0,0.0,0.0,0.0,0.0,0.0,0.0,0.0,0.0,0.0,0.0,0.0,0.0,0.0,0.4399,0.4096,0.3435,0.2987,0.2807,0.2943,0.2453,0.0,0.0,0.0,0.0,0.0,0.0,0.0,0.0193,0.0792,0.0871,0.0067,0.0,0.0,0.0,0.0,0.0,0.0,0.0,0.0,0.0,0.0,0.0,0.0,-0.0901,-0.156,-0.2186,-0.3285,-0.4192,0.0,-0.4884,-0.5108,-0.5418,-0.5206,-0.5233,-0.5415,-0.5203,-0.5237,-0.5408,-0.5186,-0.5138,-0.5145,0.0,0.0,0.0,0.0,0.0,0.0,0.0,0.0,0.0,0.0,0.0,0.0,0.0,0.0,0.0,0.0,0.0,0.0,0.0,0.0,0.0,0.0,0.0,0.0,0.0,0.2577,0.2613,0.2712,0.2679,0.2679,0.2716,0.2775,0.2904,0.3109,0.3179,0.3208,0.3175,0.3006,0.2878,0.2749,0.2547,0.2543,0.0,0.0,0.0,0.0,0.2577,0.2577,0.0,0.0,0.0,0.0,0.0,0.0,0.0,0.0,0.5193,0.5333,0.552,0.0,0.5365,0.542,0.5306,0.0,0.0,0.0,0.0,0.0,0.0,0.0,0.0,0.3605,0.3202,0.3612,0.2857,0.0,0.0,0.0,0.0,0.0,0.0,0.0,0.0937,0.0523,0.0198,0.0,0.0,0.0,0.0,0.0,0.0,0.0,0.0,0.0,0.0,0.0,0.0,0.0,-0.0891,-0.1312,-0.1387,-0.3164,-0.3998,-0.413,-0.4945,-0.5298,-0.5425,-0.5321,-0.5328,-0.5425,-0.5321,-0.5328,-0.5408,-0.5186,-0.5206,-0.5291,0.0,0.0,0.0,0.0,0.0,0.0,0.0,0.0,0.0,0.0,0.0,0.0,0.0,0.0,0.0,0.0,0.0,0.0,0.0,0.0,0.0,0.0,0.0,0.0,0.2577,0.2577,0.2613,0.2712,0.2712,0.2746,0.2841,0.294,0.3138,0.3372,0.3405,0.3405,0.3307,0.3076,0.2915,0.2782,0.2543,0.0,0.0,0.0,0.0,0.0,0.2716,0.2712,0.0,0.3045,0.3302,0.3512,0.0,0.0,0.0,0.0,0.5157,0.5318,0.5604,0.5545,0.5366,0.5491,0.5323,0.5203,0.0,0.0,0.0,0.0,0.0,0.0,0.0,0.0,0.0,0.0,0.2797,0.0,0.0,0.0,0.0,0.0,0.0,0.0,0.0,0.0848,0.0456,0.0,0.0,0.0,0.0,0.0,0.0,0.0,0.0,0.0,0.0,0.0,0.0,0.0,-0.0491,-0.0852,-0.1113,-0.2251,-0.2914,-0.3213,-0.3901,-0.4417,-0.4755,-0.4755,-0.5024,-0.5428,-0.5428,-0.5428,-0.5418,-0.5267,-0.5243,-0.5243,0.0,0.0,0.0,0.0,0.0,0.0,0.0,0.0,0.0,0.0,0.0,0.0,0.0,0.0,0.0,0.0,0.0,0.0,0.0,0.0,0.0,0.0,0.0,0.2646,0.2679,0.2679,0.2679,0.2679,0.2679,0.2779,0.297,0.3072,0.3303,0.363,0.3663,0.3616,0.3487,0.3064,0.2867,0.2783,0.257,0.0,0.0,0.0,0.0,0.0,0.0,0.0,0.0,0.2999,0.3234,0.3508,0.378,0.0,0.0,0.0,0.0,0.0,0.5615,0.5458,0.528,0.5361,0.5149,0.4941,0.0,0.0,0.0,0.0,0.0,0.0,0.0,0.0,0.0,0.0,0.0,0.0,0.0,0.0,0.0,0.0,0.0,0.0,0.1255,0.1167,0.0767,0.0064,0.0,0.0,0.0,0.0,0.0,0.0,0.0,0.0,0.0,0.0,0.0,0.0,0.0,-0.0355,-0.0955,-0.1164,-0.1701,-0.2332,-0.2718,0.0,-0.4015,-0.4151,-0.4686,-0.5428,-0.5428,-0.5428,-0.5428,-0.5428,-0.5264,-0.5131,0.0,0.0,0.0,0.0,0.0,0.0,0.0,0.0,0.0,0.0,0.0,0.0,0.0,0.0,0.0,0.0,0.0,0.0,0.0,0.0,0.0,0.0,0.2577,0.2474,0.2543,0.2543,0.2543,0.2543,0.2646,0.2882,0.3245,0.3142,0.3368,0.3858,0.3928,0.3761,0.3508,0.3428,0.3151,0.2785,0.2762,0.0,0.0,0.0,0.0,0.0,0.0,0.0,0.0,0.2856,0.3055,0.3311,0.3616,0.0,0.0,0.0,0.0,0.0,0.5615,0.5588,0.5361,0.5019,0.467,0.4403,0.0,0.0,0.0,0.0,0.0,0.0,0.0,0.0,0.0,0.0,0.0,0.0,0.0,0.0,0.0,0.0,0.0,0.1277,0.1126,0.056,0.0123,0.0,0.0,0.0,0.0,0.0,0.0,0.0,0.0,0.0,0.0,0.0,0.0,0.0,0.0,-0.0061,-0.0191,-0.0958,-0.1363,-0.1599,0.0,-0.3882,-0.4082,-0.4888,-0.5292,-0.5428,-0.5428,-0.5428,-0.5428,-0.5428,-0.5264,-0.5131,0.0,0.0,0.0,0.0,0.0,0.0,0.0,0.0,0.0,0.0,0.0,0.0,0.0,0.0,0.0,0.0,0.0,0.0,0.0,0.0,0.0,0.2749,0.2543,0.251,0.2646,0.2613,0.2613,0.2613,0.2712,0.2948,0.3311,0.3504,0.3728,0.3951,0.3736,0.3537,0.3391,0.3238,0.2987,0.2698,0.0,0.0,0.0,0.0,0.0,0.0,0.0,0.0,0.0,0.0,0.2998,0.3241,0.3504,0.0,0.0,0.0,0.0,0.0,0.5416,0.553,0.5422,0.4575,0.4367,0.0,0.0,0.0,0.0,0.0,0.0,0.0,0.0,0.0,0.0,0.0,0.0,0.0,0.0,0.0,0.0,0.0,0.0,0.0737,0.117,0.0486,0.0,0.0,0.0,0.0,0.0,0.0,0.0,0.0,0.0,0.0,0.0,0.0,0.0,0.0,0.0,0.0,0.0,-0.0384,-0.0589,-0.0672,0.0,-0.2079,-0.2544,-0.3011,-0.3747,-0.4619,-0.4619,-0.4907,-0.5226,-0.5152,-0.5077,-0.5026,0.0,0.0,0.0,0.0,0.0,0.0,0.0,0.0,0.0,0.0,0.0,0.0,0.0,0.0,0.0,0.0,0.0,0.0,0.0,0.0,0.265,0.2716,0.2613,0.2613,0.2782,0.2749,0.2712,0.2716,0.2779,0.301,0.3377,0.3863,0.4058,0.4021,0.362,0.3428,0.3322,0.3052,0.2834,0.2633,0.0,0.0,0.0,0.0,0.0,0.0,0.0,0.0,0.0,0.0,0.0,0.0,0.0,0.0,0.0,0.4113,0.4588,0.5023,0.5188,0.5365,0.5264,0.4383,0.0,0.0,0.0,0.0,0.0,0.0,0.0,0.0,0.0,0.0,0.0,0.0,0.0,0.0,0.0,0.0121,0.03,0.1167,0.054,0.0238,0.0922,0.0417,0.0,0.0,0.0,0.0,0.0,0.0,0.0,0.0,0.0,0.0,0.0,0.0,0.0,0.0,0.0,0.0,0.0,0.0,0.0,0.0,-0.02,-0.0668,-0.1339,-0.153,-0.2594,-0.401,-0.3959,-0.442,-0.5111,-0.4972,-0.4942,-0.4979,0.0,0.0,0.0,0.0,0.0,0.0,0.0,0.0,0.0,0.0,0.0,0.0,0.0,0.0,0.0,0.0,0.0,0.0,0.0,0.0,0.2453,0.2782,0.2716,0.2716,0.2782,0.2749,0.2716,0.2782,0.2874,0.3134,0.3602,0.4053,0.4221,0.4096,0.3978,0.3789,0.3481,0.3211,0.2926,0.268,0.272,0.0,0.0,0.0,0.0,0.0,0.0,0.0,0.0,0.0,0.0,0.0,0.0,0.0,0.3676,0.3944,0.4362,0.4757,0.4987,0.4918,0.4771,0.4737,0.0,0.0,0.0,0.0,0.0,0.0,0.0,0.0,0.0,0.0,0.0,0.0,0.0,0.0,0.0,0.0,0.0308,0.117,0.054,0.0,0.0062,0.0058,0.0,0.0,0.0,0.0,0.0,0.0,0.0,0.0,0.0,0.0,0.0,0.0,0.0,0.0,0.0,0.0,0.0,0.0,0.0,-0.0065,-0.0841,-0.1245,-0.1338,-0.2212,-0.3136,-0.3995,-0.3854,-0.4332,-0.5111,-0.4972,-0.5003,-0.5098,0.0,0.0,0.0,0.0,0.0,0.0,0.0,0.0,0.0,0.0,0.0,0.0,0.0,0.0,0.0,0.0,0.0,0.0,0.0,0.0,0.2581,0.2973,0.2812,0.2878,0.3241,0.2915,0.2849,0.2977,0.3331,0.3626,0.3788,0.3972,0.405,0.4016,0.3615,0.3403,0.3347,0.3058,0.2786,0.2569,0.2631,0.262,0.0,0.0,0.0,0.0,0.0,0.0,0.0,0.0,0.2624,0.2806,0.3106,0.3274,0.3456,0.3693,0.4108,0.4535,0.4719,0.5156,0.5475,0.5024,0.0,0.0,0.0,0.0,0.0,0.0,0.0,0.0,0.0,0.0,0.0,0.0,0.0,0.0,0.05,0.0183,0.012,0.0479,0.0175,0.0,0.0,0.0,0.0,0.0,0.0,0.0,0.0,0.0,0.0,0.0,0.0,0.0,0.0,0.0,0.0,0.0,0.0,0.0,0.0,0.0,0.0,0.0,-0.0377,-0.0505,-0.0509,-0.088,-0.1511,-0.2342,-0.2792,-0.3527,-0.4294,-0.4165,-0.4445,-0.4992,0.0,0.0,0.0,0.0,0.0,0.0,0.0,0.0,0.0,0.0,0.0,0.0,0.0,0.0,0.0,0.0,0.0,0.0,0.0,0.2403,0.2645,0.297,0.2878,0.301,0.3368,0.3076,0.3047,0.3274,0.3793,0.4053,0.4048,0.4148,0.4133,0.4016,0.359,0.3417,0.3409,0.3071,0.2823,0.2621,0.2562,0.2462,0.0,0.0,0.0,0.0,0.0,0.0,0.0,0.0,0.242,0.2575,0.2892,0.3076,0.3175,0.3405,0.3841,0.4247,0.4433,0.4989,0.5448,0.0,0.0,0.0,0.0,0.0,0.0,0.0,0.0,0.0,0.0,0.0,0.0,0.0,0.0708,0.024,0.0061,0.0,0.0,0.0,0.0,0.0,0.0,0.0,0.0,0.0,0.0,0.0,0.0,0.0,0.0,0.0,0.0,0.0,0.0,0.0,0.0,0.0,0.0,0.0,0.0,0.0,0.0,0.0,0.0,0.0,0.0,0.0,-0.0483,-0.1313,-0.218,-0.2852,-0.3382,-0.3309,-0.3803,-0.4483,0.0,0.0,0.0,0.0,0.0,0.0,0.0,0.0,0.0,0.0,0.0,0.0,0.0,0.0,0.0,0.0,0.0,0.0,0.2173,0.24,0.2551,0.2706,0.2973,0.3105,0.3105,0.3175,0.3377,0.3705,0.4156,0.4388,0.442,0.4678,0.4549,0.4096,0.4096,0.3966,0.3691,0.3361,0.31,0.2873,0.2528,0.2355,0.2282,0.0,0.0,0.0,0.0,0.0,0.0,0.0,0.216,0.2175,0.2635,0.2808,0.2867,0.3105,0.3496,0.3854,0.4115,0.4304,0.0,0.0,0.0,0.0,0.0,0.0,0.0,0.0,0.0,0.0,0.0,0.0,0.0,0.1677,0.1285,0.0849,0.0117,0.0,0.0,0.0,0.0,0.0,0.0,0.0,0.0,0.0,0.0,0.0,0.0,0.0,0.0,0.0,0.0,0.0,0.0,0.0,0.0,0.0,0.0,0.0,0.0,0.0,0.0,0.0,0.0,0.0,0.0,0.0,-0.0404,-0.1177,-0.2084,-0.2463,-0.2463,-0.2463,-0.293,-0.3574,0.0,0.0,0.0,0.0,0.0,0.0,0.0,0.0,0.0,0.0,0.0,0.0,0.0,0.0,0.0,0.0,0.0,0.0,0.0,0.2564,0.2743,0.3101,0.3274,0.3467,0.3663,0.3765,0.3868,0.3896,0.428,0.45,0.4538,0.4538,0.4464,0.4382,0.4086,0.3941,0.3881,0.3608,0.3354,0.3154,0.2823,0.2565,0.2347,0.0,0.0,0.0,0.0,0.0,0.0,0.0,0.0,0.0,0.2501,0.2815,0.3055,0.3004,0.3462,0.3969,0.3827,0.434,0.0,0.0,0.0,0.0,0.0,0.0,0.0,0.0,0.0,0.0,0.0,0.0,0.0,0.1341,0.0727,0.0225,0.0057,0.0,0.0,0.0,0.0,0.0,0.0,0.0,0.0,0.0,0.0,0.0,0.0,0.0,0.0,0.0,0.0,0.0,0.0,0.0,0.0,0.0,0.0,0.0,0.0,0.0,0.0,0.0,0.0,0.0,0.0,0.0,-0.0113,-0.0336,-0.0622,-0.1093,-0.1639,-0.1544,-0.207,-0.2805,0.0,0.0,0.0,0.0,0.0,0.0,0.0,0.0,0.0,0.0,0.3237,0.0,0.0,0.0,0.0,0.0,0.0,0.0,0.0,0.0,0.2776,0.3266,0.3332,0.351,0.3857,0.393,0.4052,0.4238,0.4518,0.4692,0.4762,0.4753,0.471,0.4614,0.4357,0.4212,0.4145,0.3977,0.3736,0.3422,0.3129,0.2794,0.2498,0.0,0.0,0.0,0.0,0.0,0.0,0.0,0.0,0.0,0.2361,0.0,0.2898,0.2833,0.3142,0.3504,0.3435,0.0,0.0,0.0,0.0,0.0,0.0,0.0,0.0,0.0,0.0,0.0,0.0,0.2971,0.0,0.1675,0.0895,0.0336,0.0056,0.0,0.0,0.0,0.0,0.0,0.0,0.0,0.0,0.0,0.0,0.0,0.0,0.0,0.0,0.0,0.0,0.0,0.0,0.0,0.0,0.0,0.0,0.0,0.0,0.0,0.0,0.0,0.0,0.0,0.0,0.0,0.0,0.0,0.0,-0.034,-0.0748,-0.0676,-0.1189,-0.1951,0.0,0.0,0.0,0.0,0.0,0.0,0.0,0.0,0.0,0.0,0.3351,0.3346,0.0,0.0,0.0,0.0,0.0,0.0,0.0,0.0,0.2781,0.3302,0.3229,0.3358,0.3801,0.3822,0.4098,0.4601,0.4783,0.4922,0.5017,0.5174,0.5099,0.4838,0.4812,0.4678,0.4447,0.4452,0.4186,0.3744,0.3445,0.31,0.2713,0.229,0.0,0.0,0.0,0.0,0.0,0.0,0.0,0.0,0.2232,0.2402,0.2577,0.2646,0.2723,0.2793,0.0,0.0,0.0,0.0,0.0,0.0,0.0,0.0,0.0,0.0,0.0,0.0,0.0,0.3831,0.3171,0.2378,0.1609,0.0834,0.0167,0.0054,0.0,0.0,0.0,0.0,0.0,0.0,0.0,0.0,0.0056,0.0056,0.0,0.0056,0.0056,0.0,0.0,0.0,0.0,0.0,0.0,0.0,0.0,0.0,0.0,0.0,0.0,0.0,0.0,0.0,0.0,0.0,0.0,0.0,0.0,0.0,0.0,0.0,-0.0448,-0.1006,0.0,0.0,0.0,0.0,0.0,0.0,0.0,0.0,0.0,0.0,0.0,0.0,0.0,0.0,0.0,0.0,0.0,0.0,0.0,0.0,0.3048,0.3585,0.3537,0.3607,0.3881,0.4043,0.4256,0.4509,0.457,0.4718,0.5012,0.5041,0.5043,0.5042,0.0,0.4858,0.4794,0.4742,0.4573,0.428,0.376,0.3398,0.3105,0.254,0.2228,0.0,0.0,0.0,0.0,0.0,0.0,0.0,0.205,0.2494,0.2907,0.2643,0.3196,0.3793,0.0,0.0,0.0,0.0,0.0,0.0,0.0,0.0,0.0,0.0,0.0,0.0,0.3779,0.3497,0.3177,0.2801,0.1843,0.101,0.0726,0.0308,0.0,0.0,0.0,0.0,0.0,0.0,0.0,0.0,0.0413,0.0517,0.0,0.0465,0.0465,0.0,0.0,0.0,0.0,0.0,0.0,0.0,0.0,0.0,0.0,0.0,0.0,0.0,0.0,0.0,0.0,0.0,0.0,0.0,0.0,0.0,0.0,0.0,-0.0112,-0.0224,0.0,0.0,0.0,0.0,0.0,0.0,0.0,0.0,0.0,0.0,0.0,0.0,0.0,0.0,0.0,0.0,0.0,0.0,0.0,0.0,0.0,0.3596,0.3643,0.3804,0.4125,0.4083,0.4269,0.4681,0.4554,0.0,0.0,0.0,0.0,0.5365,0.0,0.5106,0.5011,0.4953,0.4826,0.4599,0.417,0.3777,0.3446,0.2928,0.2557,0.2276,0.2228,0.0,0.0,0.0,0.0,0.0,0.0,0.0,0.2888,0.2694,0.3075,0.3453,0.0,0.0,0.0,0.0,0.0,0.0,0.0,0.0,0.0,0.0,0.0,0.0,0.3786,0.3679,0.3464,0.2981,0.2348,0.1797,0.1413,0.1042,0.0883,0.0881,0.0881,0.0736,0.0442,0.0449,0.0454,0.0454,0.0706,0.0908,0.0857,0.1159,0.1209,0.0857,0.0606,0.0408,0.0415,0.0156,0.0,0.0,0.0,0.0,0.0,0.0,0.0,0.0,0.0,0.0,0.0,0.0,0.0,0.0,0.0,0.0,0.0,0.0,0.0,0.0,0.0,0.0,0.0,0.0,0.0,0.0,0.0,0.0,0.0,0.0,0.0,0.0,0.0,0.0,0.0,0.0,0.0,0.0,0.0,0.0,0.0,0.0,0.3671,0.3951,0.4388,0.413,0.4292,0.486,0.0,0.0,0.0,0.0,0.0,0.5732,0.0,0.5501,0.5232,0.5254,0.5126,0.4877,0.4556,0.4202,0.3792,0.3374,0.2995,0.2667,0.2526,0.2426,0.2354,0.2148,0.0,0.0,0.0,0.0,0.2691,0.2774,0.2774,0.2797,0.0,0.0,0.0,0.0,0.0,0.0,0.0,0.0,0.0,0.0,0.0,0.3982,0.3982,0.3982,0.3765,0.308,0.2893,0.2647,0.1985,0.1807,0.1776,0.1706,0.176,0.1578,0.1016,0.0951,0.0972,0.1028,0.1126,0.1374,0.1775,0.1922,0.1922,0.1824,0.1334,0.0992,0.0899,0.0399,0.0102,0.0,0.0,0.0,0.0,0.0,0.0,0.0,0.0,0.0,0.0,0.0,0.0,0.0,0.0,0.0,0.0,0.0,0.0,0.0,0.0,0.0,0.0,0.0,0.0,0.0,0.0,0.0,0.0,0.0,0.0,0.0,0.0,0.0,0.0,0.0,0.0,0.0,0.0,0.0,0.0,0.0,0.3808,0.4041,0.4395,0.4419,0.4529,0.4721,0.0,0.0,0.0,0.0,0.0,0.5974,0.0,0.0,0.5701,0.5883,0.5709,0.5269,0.4825,0.4543,0.4343,0.389,0.3563,0.3351,0.3293,0.3178,0.3012,0.2569,0.2486,0.0,0.0,0.0,0.254,0.2687,0.2862,0.0,0.0,0.0,0.0,0.0,0.0,0.0,0.0,0.0,0.0,0.0,0.0,0.3822,0.3822,0.3822,0.3691,0.3307,0.2967,0.2607,0.2213,0.1939,0.1708,0.1381,0.15,0.1514,0.1253,0.1255,0.1323,0.1503,0.198,0.2142,0.1811,0.2312,0.2357,0.1815,0.1726,0.1432,0.0911,0.0815,0.0497,0.0,0.0,0.0,0.0,0.0,0.0,0.0,0.0,0.0,0.0,0.0,0.0,0.0,0.0,0.0,0.0,0.0,0.0,0.0,0.0,0.0,0.0,0.0,0.0,0.0,0.0,0.0,0.0,0.0,0.0,0.0,0.0,0.0,0.0,0.0,0.0,0.0,0.0,0.0,0.0,0.0,0.3931,0.4145,0.4561,0.4483,0.4584,0.0,0.0,0.0,0.0,0.6082,0.6316,0.0,0.0,0.0,0.0,0.0,0.6241,0.5568,0.5508,0.5161,0.4649,0.4357,0.4,0.3699,0.4073,0.3893,0.3542,0.351,0.3216,0.2817,0.2498,0.0,0.0,0.0,0.0,0.0,0.0,0.0,0.0,0.0,0.0,0.0,0.0,0.0,0.0,0.0,0.3691,0.3415,0.3415,0.3415,0.3371,0.3202,0.3026,0.2888,0.2809,0.2631,0.2516,0.2442,0.2424,0.2277,0.1839,0.1796,0.1851,0.1933,0.2176,0.2397,0.2527,0.2845,0.2927,0.2668,0.2422,0.216,0.1927,0.156,0.1276,0.1,0.1187,0.0997,0.0491,0.0555,0.0392,0.0,0.0,0.0,0.0,0.0,0.0,0.0,0.0,0.0,0.0,0.0,0.0,0.0,0.0,0.0,0.0,0.0,0.0,0.0,0.0,0.0,0.0,0.0,0.0,0.0,0.0,0.0,0.0,0.0,0.0,0.0,0.0,0.0,0.0,0.0,0.0,0.4289,0.4722,0.4573,0.0,0.0,0.0,0.0,0.6079,0.6547,0.6876,0.0,0.7678,0.0,0.0,0.0,0.0,0.0,0.0,0.5772,0.0,0.5202,0.4825,0.4275,0.5107,0.4934,0.4378,0.4442,0.4076,0.0,0.284,0.2659,0.0,0.0,0.0,0.0,0.0,0.0,0.0,0.0,0.0,0.0,0.0,0.0,0.0,0.0,0.3473,0.301,0.2903,0.2954,0.3066,0.3066,0.3066,0.3055,0.3129,0.3105,0.3095,0.3135,0.3075,0.286,0.2374,0.2334,0.2344,0.2376,0.2378,0.2583,0.3078,0.3226,0.3289,0.3252,0.3037,0.2838,0.2633,0.2062,0.1796,0.1805,0.1981,0.1773,0.1156,0.125,0.0939,0.0222,0.0056,0.0,0.0,0.0,0.0,0.0,0.0,0.0,0.0,0.0,0.0,0.0,0.0,0.0,0.0,0.0,0.0,0.0,0.0,0.0,0.0,0.0,0.0,0.0,0.0,0.0,0.5312,0.5428,0.4864,0.4305,0.383,0.3863,0.3994,0.0,0.0,0.0,0.4793,0.4793,0.0,0.0,0.0,0.0,0.6005,0.6415,0.6862,0.7326,0.8114,0.7978,0.7182,0.0,0.0,0.0,0.0,0.0,0.0,0.0,0.0,0.0,0.0,0.0,0.0,0.0,0.0,0.0,0.0,0.0,0.0,0.0,0.0,0.0,0.0,0.0,0.0,0.0,0.0,0.0,0.0,0.0,0.0,0.0,0.3109,0.2774,0.2338,0.2599,0.292,0.292,0.292,0.2873,0.2734,0.2951,0.3018,0.2747,0.2839,0.2862,0.2683,0.267,0.273,0.2838,0.2848,0.2941,0.3075,0.3226,0.3242,0.3098,0.338,0.3203,0.2524,0.2048,0.18,0.1803,0.1833,0.1819,0.1767,0.1886,0.1546,0.0803,0.0221,0.0,0.0,0.0,0.0,0.0,0.0,0.0,0.0,0.0,0.0,0.0,0.0,0.0,0.0,0.0,0.0,0.0,0.0,0.0,0.0,0.0,0.0,0.0,0.0,0.5877,0.591,0.6193,0.5513,0.4743,0.3984,0.4071,0.4194,0.4256,0.0,0.4512,0.4722,0.0,0.0,0.0,0.0,0.5452,0.5878,0.6421,0.6805,0.7093,0.8024,0.8079,0.7575,0.8158,0.0,0.0,0.0,0.0,0.0,0.0,0.0,0.0,0.0,0.0,0.0,0.0,0.0,0.0,0.0,0.0,0.0,0.0,0.0,0.0,0.0,0.0,0.0,0.0,0.0,0.0,0.0,0.0,0.0,0.3144,0.3078,0.2989,0.2813,0.2769,0.273,0.2664,0.27,0.2778,0.2822,0.2835,0.2835,0.2829,0.2791,0.274,0.2719,0.2712,0.2703,0.2757,0.2764,0.2784,0.2835,0.2985,0.3045,0.3082,0.3283,0.3324,0.3193,0.3138,0.3042,0.2973,0.3121,0.2963,0.2515,0.2663,0.2364,0.1701,0.1501,0.0895,0.0,0.0,0.0,0.0,0.0,0.0,0.0,0.0,0.0,0.0,0.0,0.0,0.0,0.0,0.0,0.0,0.0,0.0,0.0,0.0,0.0,0.0,0.0,0.0,0.645,0.6521,0.5877,0.5143,0.4372,0.4321,0.4338,0.4399,0.446,0.4573,0.4753,0.4783,0.0,0.0,0.0,0.0,0.0,0.6221,0.6477,0.6633,0.7564,0.7816,0.0,0.0,0.0,0.6714,0.0,0.0,0.6841,0.0,0.0,0.0,0.0,0.0,0.0,0.0,0.0,0.0,0.0,0.0,0.0,0.0,0.0,0.0,0.0,0.0,0.0,0.0,0.0,0.0,0.0,0.0,0.0,0.3131,0.31,0.3128,0.3003,0.2891,0.2785,0.2641,0.2631,0.2692,0.2812,0.2747,0.2717,0.2818,0.2744,0.2712,0.2712,0.2712,0.2712,0.2712,0.2712,0.0,0.2712,0.2825,0.2998,0.3152,0.3256,0.338,0.3578,0.3673,0.3673,0.3581,0.3778,0.3627,0.315,0.3312,0.3061,0.2429,0.254,0.1898,0.0727,0.0727,0.0616,0.0392,0.0392,0.0224,0.0,0.0,0.0,0.0,0.0,0.0,0.0,0.0,0.0,0.0,0.0,0.0,0.0,0.0,0.0,0.0,0.0,0.0,0.0,0.6446,0.5943,0.5472,0.5057,0.4591,0.4411,0.461,0.4671,0.4762,0.4893,0.4961,0.0,0.0,0.0,0.0,0.0,0.0,0.586,0.6029,0.6761,0.7128,0.7214,0.0,0.7332,0.6725,0.0,0.8322,0.7282,0.0,0.0,0.0,0.8939,0.8783,0.0,0.7456,0.0,0.0,0.0,0.0,0.0,0.0,0.0,0.0,0.0,0.0,0.0,0.0,0.0,0.0,0.429,0.0,0.3844,0.3271,0.3241,0.3188,0.2787,0.2929,0.3064,0.2951,0.2683,0.2561,0.2718,0.2739,0.2742,0.2746,0.2712,0.2712,0.2712,0.2712,0.2712,0.2712,0.2712,0.2712,0.2712,0.2829,0.3008,0.3293,0.3309,0.3383,0.3578,0.3581,0.3581,0.3581,0.3581,0.3581,0.3595,0.3883,0.3614,0.2931,0.3192,0.2952,0.2286,0.2232,0.1786,0.1118,0.1118,0.0671,0.0056,0.0056,0.0056,0.0056,0.0,0.0,0.0,0.0,0.0,0.0,0.0,0.0,0.0,0.0,0.0,0.0,0.0,0.0,0.7126,0.6657,0.6511,0.6222,0.5604,0.5189,0.495,0.4967,0.4791,0.4762,0.4893,0.501,0.0,0.0,0.0,0.0,0.0,0.0,0.0,0.0,0.6454,0.672,0.6614,0.7599,0.0,0.0,0.8198,0.8378,0.0,0.0,0.0,0.0,0.0,0.7817,0.7855,0.0,0.8341,0.8432,0.0,0.0,0.0,0.0,0.0,0.0,0.45,0.0,0.0,0.0,0.0,0.0,0.4727,0.4562,0.4322,0.414,0.3835,0.3524,0.3316,0.3185,0.3179,0.3433,0.3185,0.3023,0.3246,0.3273,0.3362,0.3612,0.3331,0.3134,0.3134,0.2874,0.2712,0.0,0.2712,0.2712,0.2712,0.2924,0.3062,0.3142,0.3398,0.3537,0.3581,0.3581,0.3581,0.3581,0.3581,0.3632,0.3734,0.3819,0.3827,0.3822,0.3897,0.3929,0.379,0.2676,0.2063,0.1842,0.1284,0.095,0.0783,0.0783,0.0783,0.0895,0.0,0.0,0.0,0.0,0.0,0.0,0.0,0.0,0.0,0.0,0.0,0.0,0.0,0.0,0.7346,0.7064,0.6914,0.658,0.5995,0.5564,0.5245,0.5062,0.4879,0.4863,0.5069,0.5146,0.0,0.0,0.0,0.0,0.0,0.0,0.0,0.0,0.0,0.0,0.0,0.0,0.0,0.0,0.8621,0.0,0.0,0.8885,0.8699,0.0,0.0,0.0,0.8458,0.8192,0.836,0.0,0.0,0.0,0.0,0.0,0.0,0.0,0.0,0.0,0.0,0.0,0.0,0.0,0.4388,0.4235,0.408,0.0,0.3527,0.3226,0.3318,0.3111,0.3092,0.3577,0.3499,0.3427,0.368,0.372,0.3774,0.3978,0.3756,0.3523,0.3327,0.3101,0.2874,0.2716,0.2712,0.271,0.2771,0.3056,0.3175,0.3175,0.3453,0.3581,0.3581,0.3581,0.3581,0.3581,0.3581,0.3626,0.3707,0.3829,0.3985,0.411,0.4284,0.4385,0.4408,0.3511,0.2954,0.2676,0.2232,0.1842,0.1563,0.1563,0.1563,0.1619,0.0,0.0,0.0,0.0,0.0,0.0,0.0,0.0,0.0,0.0,0.0,0.0,0.0,0.0,0.0,0.0,0.7187,0.6816,0.636,0.5876,0.5455,0.5162,0.4988,0.503,0.531,0.531,0.0,0.0,0.0,0.0,0.0,0.0,0.0,0.0,0.0,0.0,0.0,0.0,0.0,0.795,0.9226,0.9412,0.0,0.0,1.0146,0.9447,0.8661,0.8887,0.9328,0.8269,0.7935,0.0,0.0,0.0,0.0,0.0,0.5234,0.0,0.0,0.0,0.0,0.0,0.0,0.0,0.378,0.3651,0.356,0.3189,0.2829,0.2674,0.3009,0.2884,0.2909,0.3495,0.372,0.3861,0.4056,0.4082,0.4082,0.4082,0.407,0.3881,0.3427,0.3379,0.3233,0.2878,0.283,0.2826,0.2876,0.3142,0.3299,0.3283,0.349,0.3581,0.3581,0.3581,0.3581,0.3581,0.3581,0.3581,0.3588,0.3849,0.3988,0.4033,0.43,0.4488,0.4519,0.4519,0.4125,0.3511,0.34,0.2954,0.2341,0.2341,0.2343,0.2343,0.8449,0.0,0.0,0.0,0.0,0.0,0.0,0.0,0.0,0.0,0.0,0.0,0.0,0.0,0.0,0.0,0.7598,0.7454,0.7253,0.6559,0.6117,0.6041,0.5361,0.5108,0.5369,0.5387,0.0,0.0,0.0,0.0,0.0,0.0,0.0,0.0,0.0,0.0,0.0,0.0,0.0,0.8083,0.8623,0.0,0.9462,0.9674,0.9245,0.8549,0.8373,0.8584,0.8967,0.9035,0.8487,0.7877,0.0,0.0,0.0,0.0,0.0,0.0,0.0,0.0,0.0,0.0,0.0,0.0,0.4472,0.427,0.396,0.383,0.341,0.3006,0.282,0.2815,0.3001,0.3382,0.4044,0.4529,0.4636,0.465,0.465,0.465,0.4536,0.4362,0.4069,0.3914,0.3826,0.3765,0.3543,0.3236,0.2764,0.3162,0.3293,0.3132,0.3436,0.3581,0.3581,0.3581,0.3581,0.3581,0.3581,0.3581,0.3581,0.3639,0.3795,0.4022,0.408,0.4239,0.4519,0.4519,0.4405,0.4236,0.3566,0.3231,0.3065,0.3065,0.3121,0.3234,0.8499,0.0,0.0,0.0,0.0,0.0,0.0,0.0,0.0,0.0,0.0,0.0,0.0,0.0,0.0,0.0,0.0,0.0,0.0,0.0,0.6864,0.6179,0.5509,0.5272,0.5539,0.5547,0.0,0.0,0.0,0.0,0.0,0.0,0.0,0.0,0.0,0.0,0.0,0.0,0.8867,0.964,0.8971,0.0,0.9213,0.9248,0.9107,0.8865,0.845,0.8421,0.8696,0.9518,0.8933,0.0,0.0,0.8397,0.7186,0.0,0.6494,0.5891,0.0,0.0,0.0,0.4451,0.0,0.0,0.0,0.3719,0.3352,0.3185,0.2841,0.254,0.25,0.2498,0.2623,0.3026,0.3535,0.3968,0.4298,0.4772,0.4976,0.4636,0.4671,0.4575,0.4234,0.4264,0.4118,0.3691,0.3664,0.3455,0.2939,0.33,0.3471,0.3351,0.35,0.3581,0.3581,0.3581,0.3581,0.3581,0.3581,0.3581,0.3581,0.3653,0.3805,0.4022,0.405,0.4256,0.4519,0.4519,0.4519,0.446,0.407,0.3901,0.3901,0.3901,0.3901,0.4015,0.8516,0.0,0.0,0.0,0.0,0.0,0.0,0.0,0.0,0.0,0.0,0.0,0.0,0.0,0.0,0.0,0.0,0.0,0.0,0.0,0.0,0.0,0.5878,0.5629,0.6007,0.5928,0.0,0.0,0.0,0.0,0.0,0.0,0.0,0.0,0.0,0.0,0.0,0.0,0.0,1.0834,0.0,0.9062,0.9284,0.9315,0.9446,0.956,0.886,0.8616,0.8847,1.0091,0.9576,0.8603,0.9406,0.881,0.0,0.0,0.0,0.0,0.0,0.0,0.0,0.0,0.0,0.3834,0.0,0.0,0.0,0.2425,0.218,0.0,0.0,0.0,0.0,0.0,0.0,0.0,0.0,0.4471,0.0,0.4396,0.4625,0.4671,0.4303,0.455,0.4403,0.3616,0.3751,0.3687,0.3232,0.3409,0.3534,0.3534,0.3565,0.3581,0.3581,0.3581,0.3581,0.3581,0.3581,0.3595,0.3626,0.3737,0.389,0.402,0.414,0.4331,0.4519,0.4519,0.4519,0.4519,0.4519,0.4519,0.4519,0.4519,0.4519,0.4519,0.8662,0.8784,0.0,0.0,0.0,0.0,0.0,0.0,0.0,0.0,0.0,0.0,0.0,0.0,0.0,0.0,0.0,0.0,0.9747,0.0,0.0,0.0,0.0,0.0,0.7113,0.6766,0.6881,0.0,0.0,0.0,0.0,0.0,0.0,0.0,0.7824,0.0,0.0,0.0,0.919,0.0,0.9475,1.0015,0.0,1.0626,1.0385,1.0176,0.9824,0.9831,1.0138,0.0,1.0885,1.0114,0.0,0.95,0.7983,0.7123,0.0,0.0,0.0,0.0,0.0,0.0,0.5202,0.0,0.0,0.0,0.3383,0.271,0.0,0.0,0.0,0.0,0.0,0.0,0.0,0.0,0.2659,0.3424,0.4066,0.4047,0.456,0.4775,0.4482,0.4927,0.5017,0.45,0.4279,0.3961,0.3572,0.341,0.3333,0.3333,0.351,0.3581,0.3581,0.3581,0.3581,0.3581,0.3581,0.3646,0.3768,0.3785,0.3948,0.417,0.4187,0.4331,0.4519,0.4519,0.4519,0.4519,0.4519,0.4519,0.4519,0.4519,0.4519,0.4519,0.8811,0.0,0.0,0.0,0.0,0.0,0.0,0.0,0.0,0.0,0.0,0.0,0.0,0.0,0.0,0.0,0.0,1.1663,0.0,0.0,0.0,0.0,0.0,0.0,0.0,0.7714,0.7413,0.0,0.7734,0.0,0.0,0.0,0.0,0.0,0.8921,0.0,1.0255,0.0,1.1353,0.0,0.0,0.0,0.0,1.0417,0.9868,1.0314,1.0722,1.078,1.0792,0.0,1.1352,0.0,0.0,0.0,0.0,0.0,0.0,0.0,0.0,0.0,0.0,0.0,0.0,0.0,0.5008,0.0,0.3578,0.0,0.0,0.0,0.0,0.0,0.0,0.0,0.2462,0.0,0.0,0.0,0.3298,0.0,0.0,0.0,0.4984,0.5253,0.5309,0.5023,0.4762,0.4412,0.396,0.3805,0.3712,0.3712,0.3626,0.3581,0.3581,0.3581,0.3581,0.3581,0.3663,0.3734,0.3842,0.4307,0.4435,0.4246,0.4662,0.4698,0.4519,0.4519,0.4519,0.4519,0.4519,0.4519,0.4519,0.4519,0.4519,0.4519,0.0,0.0,0.0,0.0,0.0,0.0,0.0,0.0,0.0,0.0,0.0,0.0,1.2203,1.2058,0.0,0.0,1.2651,1.2723,0.0,0.0,1.1035,0.0,0.0,0.0,0.0,0.0,0.0,0.0,0.0,0.0,0.0,0.0,0.0,0.0,0.0,0.9935,1.0723,0.0,0.0,1.3095,1.3655,1.3643,1.3069,1.0691,1.0138,1.0663,1.1348,1.1523,1.1509,1.217,1.1928,0.0,1.2036,0.0,0.0,0.0,0.0,0.0,0.9027,0.0,0.0,0.0,0.0,0.0,0.0,0.0,0.0,0.0,0.0,0.0,0.0,0.0,0.0,0.0,0.0,0.2162,0.0,0.247,0.0,0.0,0.0,0.0,0.0,0.5287,0.5304,0.5157,0.4987,0.4751,0.45,0.4133,0.4053,0.4356,0.3987,0.388,0.4056,0.4056,0.4056,0.4056,0.4222,0.4373,0.4423,0.5131,0.5225,0.4885,0.5409,0.5428,0.5062,0.5062,0.5062,0.5062,0.4842,0.4787,0.4732,0.457,0.4519,0.4519,0.9781,0.9357,0.0,0.0,0.0,0.0,0.0,0.0,0.0,0.0,0.0,0.0,0.0,0.0,0.0,0.0,0.0,1.4011,1.2858,0.0,1.1984,0.0,0.0,1.0967,0.0,0.0,0.0,0.0,0.0,0.0,0.0,0.0,0.0,0.0,0.0,0.9493,1.1015,1.0249,1.0862,1.2384,1.1902,1.1688,1.1727,0.0,1.2028,1.1563,1.1588,0.0,0.0,1.2973,1.2836,0.0,0.0,0.0,0.0,0.0,0.0,0.0,0.0,0.0,0.0,0.9813,0.0,0.0,0.0,0.0,0.4525,0.0,0.0,0.0,0.0,0.0,0.0,0.0,0.0,0.0,0.0,0.0,0.0,0.0,0.0,0.0,0.0,0.4823,0.4959,0.4821,0.4803,0.4924,0.5257,0.4356,0.4262,0.524,0.4691,0.4652,0.5221,0.5265,0.5265,0.5265,0.5525,0.5748,0.5926,0.6243,0.642,0.6524,0.6524,0.6529,0.6534,0.6534,0.6534,0.648,0.576,0.5487,0.5378,0.4732,0.4519,0.4519,0.0,0.0,0.0,0.0,0.0,0.0,0.0,1.2142,0.0,0.0,0.0,0.0,0.0,1.4875,1.4797,0.0,0.0,1.4177,1.3679,1.2951,0.0,0.0,0.0,1.2477,0.0,0.0,0.0,0.0,0.0,0.0,0.0,0.0,0.0,0.0,0.0,1.0042,0.0,0.0,0.0,0.0,0.0,1.32,1.3265,0.0,1.2324,1.2178,1.2542,1.2772,0.0,1.3135,1.3366,1.347,1.3041,1.271,1.2411,1.1769,1.1603,1.167,0.0,0.0,1.2065,1.1968,0.0,0.0,0.0,0.0,0.0,0.0,0.0,0.0,0.0,0.0,0.0,0.0,0.0,0.0,0.0,0.0,0.0,0.0,0.0,0.0,0.0,0.0,0.4788,0.4934,0.4948,0.5143,0.5593,0.512,0.4894,0.5039,0.5014,0.4913,0.4691,0.5087,0.5379,0.557,0.5799,0.6024,0.6303,0.6952,0.6999,0.6642,0.7128,0.7074,0.6588,0.6588,0.6588,0.6588,0.6312,0.6204,0.6091,0.4952,0.4519,0.4519,1.1236,0.0,0.0,0.0,0.0,0.0,0.0,0.0,0.0,0.0,1.4097,0.0,1.5703,0.0,1.5508,0.0,1.4943,1.4681,1.4412,1.3754,0.0,1.4601,1.3803,0.0,0.0,0.0,0.0,0.0,0.0,1.1412,0.0,0.0,0.0,0.0,0.0,1.0515,1.1028,0.0,1.262,0.0,0.0,1.405,0.0,0.0,1.2926,1.2815,0.0,1.3198,1.3198,1.3198,1.3471,1.3697,1.3311,1.3307,1.3338,1.2923,1.2842,1.2959,1.3277,1.3556,0.0,1.2955,1.223,0.0,1.0312,0.0,0.821,0.0,0.0,0.0,0.0,0.0,0.0,0.0,0.0,0.0,0.0,0.2594,0.0,0.0,0.0,0.0,0.0,0.441,0.4688,0.4856,0.5103,0.5477,0.0,0.5413,0.5203,0.5339,0.5317,0.5216,0.5043,0.5728,0.6163,0.6322,0.6673,0.6923,0.7138,0.7816,0.783,0.7396,0.7883,0.783,0.7402,0.7402,0.7402,0.7343,0.7074,0.6966,0.6799,0.5386,0.468,0.4515,0.0,0.0,0.0,0.0,1.1368,0.0,0.0,0.0,1.4528,0.0,1.5591,1.5969,1.6522,1.6754,1.6527,1.5706,1.5668,1.5442,1.4916,1.4668,0.0,0.0,1.4409,1.4446,1.4232,0.0,0.0,0.0,0.0,0.0,0.0,0.0,0.0,0.0,1.0346,0.0,1.1976,1.1378,1.1863,1.3144,1.3797,1.406,1.4085,1.406,1.3803,1.347,1.3258,1.3198,1.3198,1.3198,1.3198,1.3198,1.3198,1.3198,1.321,1.3235,1.3261,1.3273,1.3273,1.389,1.4218,1.2938,1.2656,0.0,0.0,0.0,0.9389,0.0,0.0,0.0,0.0,0.0,0.0,0.0,0.0,0.0,0.0,0.0,0.2767,0.0,0.0,0.0,0.0,0.4173,0.4663,0.4632,0.5283,0.0,0.0,0.5274,0.5157,0.6167,0.5653,0.5658,0.6202,0.7064,0.752,0.754,0.8138,0.8383,0.8404,0.8684,0.8804,0.8804,0.8804,0.8804,0.8804,0.8804,0.8804,0.8752,0.8049,0.7723,0.7503,0.6086,0.5164,0.468,1.2156,1.1983,1.1933,0.0,1.2528,1.2877,0.0,0.0,0.0,0.0,1.552,1.5269,1.6254,1.6516,1.6036,1.4639,1.5255,0.0,0.0,0.0,0.0,1.4727,1.5151,1.5268,1.4953,1.4446,0.0,1.6211,0.0,0.0,1.4199,0.0,0.0,0.0,0.0,0.0,1.2054,1.1646,1.2015,1.2897,1.3278,1.3506,1.3643,0.0,1.3446,1.347,1.3258,1.3198,1.3198,1.3198,1.3198,1.3198,1.3198,1.3198,1.3286,1.3722,1.416,1.445,1.445,1.4613,1.4725,1.4361,1.3435,1.2674,1.278,0.0,0.0,0.0,0.0,0.0,0.0,0.0,0.0,0.0,0.0,0.0,0.0,0.0,0.0,0.2626,0.0,0.0,0.3458,0.3807,0.4286,0.4932,0.5056,0.0,0.0,0.0,0.6104,0.6325,0.6507,0.652,0.6511,0.716,0.7582,0.7816,0.8196,0.8484,0.8697,0.8778,0.8804,0.8804,0.8804,0.8804,0.8804,0.8804,0.8804,0.8758,0.8593,0.8156,0.7616,0.6637,0.6204,0.6095,1.2329,0.0,0.0,1.3026,0.0,0.0,1.4364,1.4594,0.0,1.6621,1.5991,0.0,1.6157,1.6181,1.5781,1.489,1.5329,0.0,1.5153,0.0,0.0,1.5254,1.553,1.5396,1.4738,1.4827,0.0,1.6124,0.0,0.0,1.4913,0.0,0.0,0.0,0.0,1.2157,0.0,1.2608,1.301,1.3631,1.3875,1.4163,0.0,1.4088,1.3989,1.4075,1.3713,1.3433,1.3198,1.3198,1.3198,1.3198,1.3198,1.3198,1.3311,1.3921,1.4311,1.4601,1.484,1.4916,1.4853,1.4614,1.4063,1.3558,1.3411,1.3119,1.2721,0.0,1.2151,1.1818,0.0,0.0,0.0,0.0,0.0,0.0,0.0,0.0,0.0,0.0,0.2906,0.0,0.3514,0.3971,0.4474,0.5042,0.5351,0.0,0.0,0.0,0.6175,0.6191,0.6571,0.6611,0.6306,0.7367,0.7882,0.7888,0.8363,0.8651,0.8804,0.8804,0.8804,0.8804,0.8804,0.8804,0.8804,0.8804,0.8804,0.8804,0.8804,0.8533,0.8156,0.7723,0.7128,0.6642,0.0,0.0,0.0,0.0,0.0,0.0,0.0,1.5467,0.0,1.6839,0.0,1.628,1.6065,1.5877,1.5718,1.5492,0.0,1.5969,1.6384,1.6471,1.6308,1.5831,1.5731,1.5255,1.4321,1.5184,1.5672,0.0,0.0,1.6095,1.5189,0.0,0.0,0.0,0.0,0.0,0.0,1.379,1.4249,1.4697,1.4826,1.5205,1.553,1.5092,1.4916,1.484,1.4362,1.3883,1.3386,1.3248,1.3248,1.3311,1.3311,1.3311,1.3471,1.4123,1.4299,1.4425,1.4979,1.5079,1.489,1.4337,1.45,1.4538,1.3436,1.3609,1.3846,1.3298,1.2873,1.2579,1.2508,0.0,0.0,0.0,0.0,0.0,0.0,0.0,0.0,0.0,0.0,0.0,0.3698,0.4332,0.4885,0.515,0.0,0.0,0.0,0.0,0.5981,0.608,0.6441,0.6462,0.6184,0.7641,0.8243,0.7948,0.8544,0.8804,0.8804,0.8804,0.8804,0.8804,0.8804,0.8804,0.8804,0.8804,0.8804,0.8804,0.8804,0.8804,0.8804,0.8804,0.7996,0.6966,0.0,0.0,0.0,0.0,0.0,1.5402,1.5502,1.5141,1.5536,1.737,1.6541,1.572,1.5608,1.6086,1.5831,1.45,1.558,0.0,0.0,0.0,0.0,1.6371,1.5944,1.5539,1.528,1.4686,1.5291,0.0,1.5611,1.5548,1.676,1.5229,0.0,0.0,0.0,0.0,1.3741,1.4235,0.0,1.4551,1.4799,1.4966,1.5041,1.4941,1.4916,1.489,1.4802,1.4702,1.445,1.3498,1.3534,1.3946,1.3946,1.3946,1.4135,1.5155,1.5404,1.553,1.6082,1.5906,1.5417,1.4903,1.45,1.406,1.3348,1.3273,1.3311,1.3223,1.3129,1.2943,1.2579,0.0,0.0,0.0,0.0,0.0,0.0,0.0,0.0,0.0,0.0,0.5891,0.0,0.0,0.0,0.0,0.0,0.0,0.0,0.0,0.6717,0.0,0.7154,0.7328,0.0,0.0,0.835,0.8303,0.8644,0.8804,0.8804,0.8804,0.8804,0.8804,0.8804,0.8804,0.8804,0.8804,0.8804,0.8804,0.8804,0.8804,0.8804,0.8804,0.8646,0.8427,0.0,0.0,0.0,0.0,0.0,0.0,0.0,1.5853,1.5952,1.7008,1.6492,1.5936,1.5649,1.589,1.5768,1.5016,1.563,1.6095,1.612,1.6371,1.6522,1.6522,1.6258,1.5939,1.5607,1.5375,1.5915,1.7328,1.653,1.6474,1.706,1.6041,0.0,0.0,0.0,1.4745,0.0,0.0,0.0,1.5076,1.5264,1.5467,1.5693,1.5404,1.548,1.568,1.5392,1.548,1.5555,1.445,1.4262,1.4513,1.4513,1.4513,1.4676,1.5454,1.5693,1.5819,1.6371,1.612,1.563,1.5367,1.5103,1.4802,1.4212,1.4086,1.3998,1.3709,1.3433,1.3082,1.2638,1.142,0.0,0.0,0.0,0.0,0.0,0.0,0.0,0.0,0.0,0.0,0.0,0.0,0.0,0.0,0.0,0.0,0.0,0.0,0.6987,0.0,0.0,0.0,0.7487,0.0,0.8414,0.8099,0.8568,0.8804,0.8804,0.8804,0.8804,0.8804,0.8804,0.8804,0.8804,0.8804,0.8804,0.8804,0.8804,0.8804,0.8804,0.8804,0.8804,0.8804,0.0,1.4101,0.0,0.0,1.5554,1.5856,1.6761,1.6683,1.6522,1.6522,1.6522,1.6308,1.5756,1.5806,1.5819,1.5706,1.5806,1.6057,1.6497,1.6522,1.6522,1.6522,1.6522,1.63,1.5815,1.6035,1.6599,1.7393,1.7557,1.7517,1.7161,1.6838,1.6186,0.0,0.0,0.0,0.0,0.0,1.5827,1.5799,1.5869,1.6132,1.6471,1.6032,1.6132,1.6459,1.6019,1.6145,1.6384,1.5517,1.5141,1.5079,1.5079,1.5079,1.5193,1.5706,1.5869,1.5969,1.6409,1.6195,1.5844,1.5731,1.5693,1.5542,1.5029,1.4916,1.4752,1.4198,1.3609,1.3082,1.2791,1.2047,1.1104,0.0,0.0,0.0,0.0,0.0,0.0,0.0,0.0,0.0,0.6745,0.6178,0.0,0.0,0.0,0.0,0.7106,0.0,0.0,0.0,0.0,0.7739,0.7616,0.0,0.848,0.8041,0.8572,0.8804,0.8804,0.8804,0.8804,0.8804,0.8804,0.8804,0.8804,0.8804,0.8804,0.8804,0.8804,0.8804,0.8804,0.8804,0.8804,0.8804,0.0,0.0,0.0,0.0,0.0,1.7384,1.7498,1.6935,1.6522,1.6522,1.6522,1.6308,1.5756,1.6132,1.6233,1.5731,1.6158,1.6459,1.6522,1.6522,1.6522,1.6522,1.6522,1.6414,1.6231,1.5898,1.6423,0.0,1.7598,1.7612,1.7826,1.7891,1.7145,0.0,0.0,0.0,1.6041,1.6317,1.6446,1.6403,1.6446,1.6471,1.6509,1.6459,1.6471,1.6509,1.6459,1.6471,1.6497,1.6396,1.6032,1.5618,1.5618,1.5618,1.5731,1.6283,1.6446,1.6459,1.6509,1.6471,1.6321,1.5819,1.5693,1.5542,1.5029,1.4916,1.4752,1.4198,1.3609,1.3198,1.3163,1.2859,1.2235,0.0,0.0,0.0,0.0,0.0,0.7727,0.6771,0.0,0.0,0.8895,0.8007,0.7695,0.8226,0.7051,0.0,0.0,0.0,0.0,0.8954,0.8065,0.8143,0.9366,0.8681,0.8476,0.8684,0.8771,0.8804,0.8804,0.8804,0.8804,0.8804,0.8804,0.8804,0.8804,0.8804,0.8804,0.8804,0.8804,0.8804,0.8804,0.8804,0.8804,0.8804,0.0,0.0,0.0,0.0,0.0,0.0,0.0,1.6973,1.6522,1.6522,1.6522,1.6434,1.6208,1.6384,1.6421,1.6208,1.6396,1.6522,1.6522,1.6522,1.6522,1.6522,1.6522,1.6451,1.6421,1.6267,1.6744,0.0,0.0,1.835,1.7611,1.8303,1.7977,1.6758,1.7005,1.7167,1.7157,1.6701,1.6522,1.6522,1.6522,1.6522,1.6522,1.6522,1.6522,1.6522,1.6522,1.6522,1.6522,1.6522,1.6371,1.6183,1.6183,1.6183,1.6233,1.6459,1.6522,1.6522,1.6522,1.6522,1.6471,1.6245,1.6183,1.6132,1.5906,1.5605,1.5304,1.5078,1.4374,1.3722,1.3722,1.3353,1.2862,1.2242,0.0,0.0,0.0,0.0,0.0,0.0,0.0,0.0,0.0,0.8518,0.793,0.8185,0.0,0.0,0.0,0.0,0.0,0.9146,0.0,0.8802,0.9392,0.92,0.8877,0.8524,0.8689,0.8804,0.8804,0.8804,0.8804,0.8804,0.8804,0.8804,0.8804,0.8804,0.8804,0.8804,0.8804,0.8804,0.8804,0.8804,0.8804,0.8804,1.6124,0.0,1.6389,0.0,1.6659,1.6617,1.7473,1.6973,1.6522,1.6522,1.6522,1.6522,1.6522,1.6522,1.6522,1.6522,1.6522,1.6522,1.6522,1.6522,1.6522,1.6522,1.6522,0.0,1.6522,1.6522,1.684,1.754,1.8627,0.0,1.7365,1.8382,1.8299,1.7269,1.73,1.7394,1.7514,1.6815,1.6522,1.6522,1.6522,1.6522,1.6522,1.6522,1.6522,1.6522,1.6522,1.6522,1.6522,1.6522,1.6522,1.6522,1.6522,1.6522,1.6522,1.6522,1.6522,1.6522,1.6522,1.6522,1.6522,1.6522,1.6522,1.6522,1.6522,1.622,1.5894,1.5731,1.4979,1.4324,1.4324,1.3883,1.3468,1.3436,0.0,0.0,0.0,1.1151,0.0,0.0,1.0089,1.0197,1.084,0.9718,0.9045,0.9375,0.0,0.0,0.0,0.0,0.0,0.0,0.0,0.0,1.0092,0.9733,0.9247,0.8754,0.8803,0.8804,0.8804,0.8804,0.8804,0.8804,0.8804,0.8804,0.8804,0.8804,0.8804,0.8804,0.8804,0.8804,0.8804,0.8804,0.8804,0.8804,1.6722,1.7478,1.8223,1.7676,1.7575,1.7575,1.7587,1.6973,1.6522,1.6522,1.6522,1.6522,1.6522,1.6522,1.6522,1.6522,1.6522,1.6522,1.6522,1.6522,1.6522,0.0,0.0,1.6522,1.6522,1.6522,1.6522,1.6522,0.0,0.0,1.7212,1.8145,1.802,1.7018,1.7687,1.7432,1.6522,1.6522,1.6522,1.6522,1.6522,1.6522,1.6522,1.6522,1.6522,1.6522,1.6522,1.6522,1.6522,1.6522,1.6522,1.6522,1.6522,1.6522,1.6522,1.6522,1.6522,1.6522,1.6522,1.6522,1.6522,1.6522,1.6522,1.6522,1.6522,1.6509,1.6358,1.5806,1.5254,1.4903,1.4903,1.445,1.4187,1.4452,0.0,0.0,0.0,1.1704,0.0,1.0686,1.1006,1.1782,1.3134,1.2121,0.0,0.0,0.0,0.0,0.0,0.0,0.0,1.0774,1.051,0.0,1.1984,1.0198,0.9452,0.9755,0.9106,0.8804,0.8804,0.8804,0.8804,0.8804,0.8804,0.8804,0.8804,0.8804,0.8804,0.8804,0.8804,0.8804,0.8804,0.8804,0.8804,0.8804,1.6672,1.6854,1.7043,1.6867,1.6829,1.6829,1.6829,1.6635,1.6522,1.6522,1.6522,1.6522,1.6522,1.6522,1.6522,0.0,1.6522,1.6522,0.0,1.6522,1.6522,1.6522,1.6522,1.6522,1.6522,1.6522,1.6522,1.6522,0.0,1.7991,1.7777,1.7368,1.6974,1.668,1.687,1.6815,1.6522,1.6522,1.6522,1.6522,1.6522,1.6522,1.6522,1.6522,1.6522,1.6522,1.6522,1.6522,1.6522,1.6522,1.6522,1.6522,1.6522,1.6522,1.6522,1.6522,1.6522,1.6522,1.6522,1.6522,1.6522,1.6522,1.6522,1.6522,1.6522,1.6522,1.6471,1.6296,1.5819,1.5429,1.5429,1.5016,1.4751,1.5045,1.4555,0.0,1.3465,0.0,1.2496,1.2649,1.1895,1.202,1.3619,1.3176,0.0,0.0,0.0,0.0,0.0,0.0,0.0,1.1295,1.1259,0.0,1.1855,1.119,1.0507,0.9814,0.9562,0.9465,0.9465,0.9465,0.9465,0.9465,0.9008,0.8804,0.8804,0.8804,0.8804,0.8804,0.8804,0.8804,0.8804,0.8804,0.8804,0.8804,1.6584,1.6522,1.6522,1.6522,1.6522,1.6522,1.6522,1.6522,1.6522,1.6522,1.6522,1.6522,1.6522,1.6522,1.6522,1.6522,1.6522,1.6522,1.6522,1.6522,1.6522,1.6522,1.6522,1.6522,1.6522,1.6522,1.6522,1.6522,1.7183,1.7523,1.7467,1.6789,1.6522,1.6522,1.6522,1.6522,1.6522,1.6522,1.6522,1.6522,1.6522,1.6522,1.6522,1.6522,1.6522,1.6522,1.6522,1.6522,1.6522,1.6522,1.6522,1.6522,1.6522,1.6522,1.6522,1.6522,1.6522,1.6522,1.6522,1.6522,1.6522,1.6522,1.6522,1.6522,1.6522,1.6522,1.6522,1.6522,1.6245,1.6007,1.6007,1.5555,1.5327,1.5765,1.5287,1.4862,1.4679,0.0,1.3134,0.0,0.0,1.2812,1.4227,1.4405,1.4026,0.0,0.0,0.0,0.0,0.0,1.0746,1.1587,1.2007,1.2187,1.2187,1.1841,1.1283,1.0568,1.0312,1.0167,1.0167,1.0167,1.0167,1.0167,0.9465,0.9159,0.9159,0.891,0.8871,0.8958,0.8851,0.8871,0.8958,0.8844,0.8804,0.8804,1.6522,1.6522,1.6522,1.6522,1.6522,1.6522,1.6522,1.6522,1.6522,1.6522,1.6522,1.6522,1.6522,1.6522,1.6522,1.6522,1.6522,1.6522,1.6522,1.6522,1.6522,1.6522,1.6522,1.6522,1.6522,1.6522,1.6522,1.6522,1.6522,1.6522,1.6522,1.6522,1.6522,1.6522,1.6522,1.6522,1.6522,1.6522,1.6522,1.6522,1.6522,1.6522,1.6522,1.6522,1.6522,1.6522,1.6522,1.6522,1.6522,1.6522,1.6522,1.6522,1.6522,1.6522,1.6522,1.6522,1.6522,1.6522,1.6522,1.6522,1.6522,1.6522,1.6522,1.6522,1.6522,1.6522,1.6522,1.6522,1.6522,1.6522,1.6522,1.6095,1.5919,1.6434,1.5618,1.5051,1.5258,1.4111,1.3402,1.3877,1.3837,1.41,1.5013,1.5795,1.5837,0.0,0.0,0.0,0.0,0.0,1.2044,1.1694,1.2656,1.3094,1.2881,1.2236,1.1864,1.1814,1.1166,1.0864,1.0864,1.0864,1.0864,1.0813,1.0167,0.9873,0.9851,0.9246,0.9166,0.9349,0.9059,0.9052,0.9254,0.8965,0.8857,0.8857,1.6522,1.6522,1.6522,1.6522,1.6522,1.6522,1.6522,1.6522,1.6522,1.6522,1.6522,1.6522,1.6522,1.6522,1.6522,1.6522,1.6522,1.6522,1.6522,1.6522,1.6522,1.6522,1.6522,1.6522,1.6522,1.6522,1.6522,1.6522,1.6522,1.6522,1.6522,1.6522,1.6522,1.6522,1.6522,1.6522,1.6522,1.6522,1.6522,1.6522,1.6522,1.6522,1.6522,1.6522,1.6522,1.6522,1.6522,1.6522,1.6522,1.6522,1.6522,1.6522,1.6522,1.6522,1.6522,1.6522,1.6522,1.6522,1.6522,1.6522,1.6522,1.6522,1.6522,1.6522,1.6522,1.6522,1.6522,1.6522,1.6522,1.6522,1.6522,1.6409,1.6371,1.6497,1.5944,1.5259,1.4498,1.3898,1.3653,1.4022,1.4161,1.4742,1.6021,1.6318,1.6168,0.0,0.0,1.494,1.4209,1.368,1.314,1.2616,1.286,1.2968,1.2881,1.2715,1.2344,1.1814,1.1665,1.1566,1.1566,1.1566,1.1566,1.1516,1.0864,1.0772,1.1076,1.0918,1.108,1.132,1.0431,1.0132,1.0161,0.9731,0.9562,0.9562,1.6522,1.6522,1.6522,1.6522,1.6522,1.6522,1.6522,1.6522,1.6522,1.6522,1.6522,1.6522,1.6522,1.6522,1.6522,1.6522,1.6522,1.6522,1.6522,1.6522,1.6522,1.6522,1.6522,1.6522,1.6522,1.6522,1.6522,1.6522,1.6522,1.6522,1.6522,1.6522,1.6522,1.6522,1.6522,1.6522,1.6522,1.6522,1.6522,1.6522,1.6522,1.6522,1.6522,1.6522,1.6522,1.6522,1.6522,1.6522,1.6522,1.6522,1.6522,1.6522,1.6522,1.6522,1.6522,1.6522,1.6522,1.6522,1.6522,1.6522,1.6522,1.6522,1.6522,1.6522,1.6522,1.6522,1.6522,1.6522,1.6522,1.6522,1.6522,1.6522,1.6522,1.6522,1.559,1.4759,1.4383,1.3768,1.3598,1.4232,1.4687,1.5374,1.6416,1.6522,1.6255,1.5648,1.5533,1.5115,1.4228,1.3875,1.3563,1.3248,1.3017,1.2881,1.2881,1.2881,1.2715,1.2295,1.2295,1.2295,1.2295,1.2295,1.2295,1.2236,1.1575,1.1541,1.1904,1.1631,1.1689,1.195,1.143,1.1185,1.1083,1.0735,1.0601,1.0533,1.6647,1.6572,1.6522,1.6522,1.6522,1.6522,1.6522,1.6522,1.6522,1.6522,1.6522,1.6522,1.6522,1.6522,1.6522,1.6522,1.6522,1.6522,1.6522,1.6522,1.6522,1.6522,1.6522,1.6522,1.6522,1.6522,1.6522,1.6522,1.6522,1.6522,1.6522,1.6522,1.6522,1.6522,1.6522,1.6522,1.6522,1.6522,1.6522,1.6522,1.6522,1.6522,1.6522,1.6522,1.6522,1.6522,1.6522,1.6522,1.6522,1.6522,1.6522,1.6522,1.6522,1.6522,1.6522,1.6522,1.6522,1.6522,1.6522,1.6522,1.6522,1.6522,1.6522,1.6522,1.6522,1.6522,1.6522,1.6522,1.6522,1.6522,1.6522,1.6522,1.6522,1.6565,1.5174,1.4249,1.4666,1.3922,1.3685,1.456,1.5284,1.5964,1.6466,1.6522,1.6281,1.5764,1.5644,1.5152,1.4226,1.4014,1.3836,1.3752,1.32,1.2881,1.2881,1.2881,1.2881,1.2881,1.2881,1.2881,1.2881,1.2881,1.2881,1.2881,1.2302,1.231,1.2702,1.221,1.2175,1.2397,1.2355,1.2273,1.2159,1.1851,1.1716,1.1657,1.725,1.6861,1.6522,1.6522,1.6522,1.6522,1.6522,1.6522,1.6522,1.6522,1.6522,1.6522,1.6522,1.6522,1.6522,1.6522,1.6522,1.6522,1.6522,1.6522,1.6522,1.6522,1.6522,1.6522,1.6522,1.6522,1.6522,1.6522,1.6522,1.6522,1.6522,1.6522,1.6522,1.6522,1.6522,1.6522,1.6522,1.6522,1.6522,1.6522,1.6522,1.6522,1.6522,1.6522,1.6522,1.6522,1.6522,1.6522,1.6522,1.6522,1.6522,1.6522,1.6522,1.6522,1.6522,1.6522,1.6522,1.6522,1.6522,1.6522,1.6522,1.6522,1.6522,1.6522,1.6522,1.6522,1.6522,1.6522,1.6522,1.6522,1.6522,1.6522,1.6565,1.6791,1.5906,1.5159,1.518,1.509,1.5008,1.4957,1.5782,1.638,1.6479,1.6522,1.6479,1.638,1.6337,1.625,1.602,1.5555,1.5005,1.4365,1.343,1.2881,1.2881,1.2881,1.2881,1.2881,1.2881,1.2881,1.2881,1.2881,1.2881,1.29,1.3142,1.3488,1.3849,1.415,1.4534,1.4754,1.3892,1.3537,1.3426,1.3031,1.2824,1.277,1.7388,1.6911,1.6522,1.6522,1.6773,1.6886,1.6572,1.6785,1.6873,1.6559,1.6522,1.6522,1.6522,1.6522,1.6522,1.6522,1.6522,1.6522,1.6522,1.6522,1.6522,1.6522,1.6522,1.6522,1.6522,1.6522,1.6522,1.6522,1.6522,1.6522,1.6522,1.6522,1.6522,1.6522,1.6522,1.6522,1.6522,1.6522,1.6522,1.6522,1.6522,1.6522,1.6522,1.6522,1.6522,1.6522,1.6522,1.6522,1.6522,1.6522,1.6522,1.6522,1.6522,1.6522,1.6522,1.6522,1.6522,1.6522,1.6522,1.6522,1.6522,1.6522,1.6522,1.6522,1.6522,1.6522,1.6522,1.6522,1.6522,1.6522,1.6522,1.6522,1.6595,1.6892,1.5916,1.5122,1.5176,1.5109,1.5002,1.4813,1.5785,1.6522,1.6522,1.6522,1.6522,1.6522,1.6194,1.6008,1.5964,1.5141,1.4446,1.4133,1.3334,1.2881,1.2881,1.2881,1.2881,1.2881,1.3105,1.3096,1.2891,1.3115,1.3213,1.3232,1.3418,1.3877,1.4502,1.4697,1.4902,1.5078,1.4754,1.4516,1.4298,1.4109,1.4033,1.3938,1.7765,1.72,1.676,1.6886,1.7061,1.7074,1.6773,1.6986,1.7024,1.6572,1.6522,1.6522,1.6522,1.6522,1.6522,1.6522,1.6522,1.6522,1.6522,1.6522,1.6522,1.6522,1.6522,1.6522,1.6522,1.6522,1.6522,1.6522,1.6522,1.6522,1.6522,1.6522,1.6522,1.6522,1.6522,1.6522,1.6522,1.6522,1.6522,1.6522,1.6522,1.6522,1.6522,1.6522,1.6522,1.6522,1.6522,1.6522,1.6522,1.6522,1.6522,1.6522,1.6522,1.6522,1.6522,1.6522,1.6522,1.6522,1.6522,1.6522,1.6522,1.6522,1.6522,1.6522,1.6522,1.6522,1.6522,1.6522,1.6522,1.6522,1.6522,1.6522,1.6595,1.6921,1.5815,1.5064,1.5465,1.518,1.4958,1.5014,1.5882,1.6522,1.6522,1.6522,1.6522,1.6522,1.6218,1.6013,1.6013,1.5257,1.4657,1.4382,1.3488,1.3076,1.3174,1.3076,1.3027,1.3027,1.335,1.3281,1.29,1.3418,1.3603,1.3516,1.3721,1.4121,1.4648,1.4844,1.4873,1.4824,1.5244,1.5215,1.4932,1.4932,1.4932,1.4824,1.8907,1.8053,1.7476,1.799,1.725,1.6748,1.725,1.6898,1.6572,1.6522,1.6522,1.6522,1.6522,1.6522,1.6522,1.6522,1.6522,1.6522,1.6522,1.6522,1.6522,1.6522,1.6522,1.6522,1.6522,1.6522,1.6522,1.6522,1.6522,1.6522,1.6522,1.6522,1.6522,1.6522,1.6522,1.6522,1.6522,1.6522,1.6522,1.6522,1.6522,1.6522,1.6522,1.6522,1.6522,1.6522,1.6522,1.6522,1.6522,1.6522,1.6522,1.6522,1.6522,1.6522,1.6522,1.6522,1.6522,1.6522,1.6522,1.6522,1.6522,1.6522,1.6522,1.6522,1.6522,1.6522,1.6522,1.6522,1.6522,1.6522,1.6522,1.6522,1.6607,1.6876,1.6019,1.567,1.6629,1.5957,1.56,1.6291,1.6429,1.6522,1.6522,1.6522,1.6522,1.6522,1.6967,1.7267,1.7267,1.765,1.7328,1.6076,1.4358,1.3652,1.398,1.3652,1.3467,1.3467,1.3496,1.3281,1.291,1.3721,1.3824,1.3555,1.4346,1.4492,1.4194,1.5039,1.5137,1.4824,1.5244,1.5391,1.5371,1.5371,1.5371,1.5303,1.8983,1.8417,1.7953,1.8166,1.8129,1.7915,1.7451,1.7777,1.7702,1.666,1.6835,1.6923,1.6559,1.6522,1.6522,1.6522,1.6522,1.6522,1.6522,1.6522,1.6522,1.6522,1.6522,1.6685,1.7049,1.6697,1.6685,1.7049,1.6685,1.6522,1.6522,1.6522,1.6522,1.6522,1.6522,1.6522,1.6522,1.6522,1.6522,1.6522,1.6522,1.6522,1.6522,1.6522,1.6522,1.6522,1.6522,1.6522,1.6522,1.6522,1.6522,1.6522,1.6522,1.6522,1.6522,1.6522,1.6522,1.6522,1.6522,1.6522,1.6522,1.6522,1.6522,1.6522,1.6522,1.6522,1.6522,1.6522,1.6522,1.6522,1.6522,1.6522,1.6595,1.6934,1.646,1.6313,1.6896,1.6448,1.6186,1.6454,1.6835,1.7049,1.7049,1.7049,1.72,1.7539,1.7451,1.7539,1.7877,1.7735,1.7335,1.6739,1.6044,1.5175,1.4141,1.3975,1.3896,1.3896,1.417,1.4072,1.3682,1.4268,1.4453,1.4316,1.4648,1.4834,1.4951,1.5273,1.5312,1.5186,1.5352,1.541,1.541,1.541,1.541,1.5352,1.9271,1.8832,1.8505,1.8681,1.8744,1.8581,1.799,1.8392,1.8355,1.72,1.725,1.7225,1.6835,1.6785,1.6785,1.6785,1.6948,1.7049,1.7049,1.6886,1.6785,1.6785,1.6785,1.7061,1.7626,1.7087,1.7074,1.7639,1.7074,1.6785,1.6785,1.6785,1.6685,1.6522,1.6522,1.6522,1.6522,1.6522,1.6522,1.6522,1.6522,1.6522,1.6522,1.6522,1.6522,1.6522,1.6522,1.6522,1.6522,1.6522,1.6522,1.6522,1.6522,1.6522,1.6522,1.6522,1.6522,1.6522,1.6522,1.6522,1.6522,1.6522,1.6522,1.6522,1.6522,1.6522,1.6522,1.6522,1.6522,1.6522,1.6522,1.6522,1.6595,1.6795,1.6637,1.6595,1.6795,1.6637,1.6584,1.6773,1.6974,1.725,1.7601,1.7488,1.7614,1.8166,1.8016,1.8141,1.8681,1.8339,1.7924,1.7553,1.7512,1.6749,1.5219,1.4817,1.4542,1.4336,1.4648,1.4551,1.4097,1.4727,1.4912,1.4795,1.4922,1.5068,1.5225,1.5352,1.5332,1.5225,1.5361,1.541,1.541,1.541,1.541,1.5371,1.9798,1.9384,1.9146,1.971,1.892,1.8405,1.8895,1.8568,1.8216,1.8204,1.7727,1.7388,1.7388,1.7388,1.7388,1.7388,1.789,1.8204,1.8204,1.7689,1.7388,1.74,1.7388,1.7639,1.8191,1.7664,1.7664,1.8216,1.7652,1.7388,1.7388,1.742,1.7074,1.6522,1.6522,1.6522,1.6522,1.6522,1.6522,1.6522,1.6522,1.6522,1.6522,1.6522,1.6522,1.6522,1.6522,1.6522,1.6522,1.6522,1.6522,1.6522,1.6522,1.6522,1.6522,1.6522,1.6522,1.6522,1.6522,1.6522,1.6522,1.6522,1.6522,1.6522,1.6522,1.6522,1.6522,1.6522,1.6522,1.6522,1.6522,1.6522,1.6522,1.6522,1.6522,1.6522,1.6522,1.6522,1.6735,1.7313,1.6886,1.6974,1.8103,1.7714,1.7614,1.8179,1.8731,1.9258,1.9773,1.9798,1.9475,1.8715,1.8715,1.8328,1.7633,1.6504,1.5529,1.4785,1.4795,1.4561,1.4116,1.5019,1.5186,1.4814,1.5234,1.5176,1.4824,1.5244,1.5166,1.4834,1.5244,1.541,1.541,1.541,1.541,1.541,1.9874,1.9673,1.9623,1.9773,1.9547,1.9258,1.9008,1.9196,1.9058,1.8304,1.8066,1.7953,1.7953,1.7614,1.7539,1.7928,1.8103,1.8204,1.8204,1.8053,1.8129,1.8518,1.779,1.7815,1.8769,1.8242,1.8229,1.8781,1.784,1.7388,1.7375,1.6974,1.6685,1.6522,1.6522,1.6522,1.6522,1.6522,1.6522,1.6522,1.6522,1.6522,1.6522,1.6522,1.6773,1.7074,1.666,1.7024,1.7639,1.725,1.7375,1.7639,1.725,1.7124,1.7049,1.6635,1.6522,1.6522,1.6522,1.6522,1.6522,1.6522,1.6522,1.6522,1.6522,1.6522,1.6522,1.6522,1.6522,1.6635,1.7049,1.6798,1.6647,1.7061,1.6785,1.6522,1.6522,1.6522,1.6735,1.7313,1.7576,1.799,1.8719,1.8631,1.8756,1.9284,1.9472,1.9635,1.9798,1.9798,1.9695,1.9475,1.9475,1.9097,1.8382,1.6994,1.6227,1.6012,1.5444,1.5156,1.5039,1.5293,1.5342,1.5234,1.5352,1.5342,1.5234,1.5361,1.5342,1.5234,1.5361,1.541,1.541,1.541,1.541,1.541,2.0539,2.0464,2.0464,2.0464,2.0288,2.0037,1.9723,1.9748,1.9572,1.892,1.8656,1.853,1.853,1.8229,1.8166,1.8505,1.8719,1.8832,1.8832,1.8643,1.8769,1.9309,1.8493,1.8442,1.9309,1.8807,1.8794,1.9334,1.8455,1.8028,1.8028,1.7451,1.7074,1.6848,1.6622,1.6522,1.6522,1.6522,1.6647,1.6861,1.6861,1.6986,1.7187,1.7187,1.74,1.7664,1.7313,1.7626,1.8154,1.7815,1.779,1.7815,1.7488,1.7225,1.7024,1.6898,1.6861,1.6861,1.6861,1.7024,1.7137,1.6911,1.6685,1.6522,1.6522,1.6697,1.6861,1.6861,1.7036,1.7287,1.7639,1.7426,1.73,1.7652,1.7413,1.7187,1.7187,1.7187,1.74,1.7965,1.8129,1.8505,1.9258,1.9096,1.9246,1.9761,1.9798,1.9798,1.9798,1.9798,1.9798,1.9798,2.0024,1.9915,1.9478,1.8519,1.7698,1.6922,1.6197,1.5864,1.5864,1.5864,1.569,1.541,1.6026,1.5968,1.5468,1.6026,1.6083,1.5864,1.614,1.6244,1.6244,1.5911,1.5864,1.5806,2.1493,2.1493,2.1493,2.1493,2.1041,2.0718,2.0718,2.0175,1.9798,1.9798,1.9346,1.8995,1.9095,1.9008,1.8995,1.9046,1.9522,1.9798,1.9798,1.9359,1.9309,1.9786,1.9346,1.9321,1.9798,1.9334,1.9334,1.9798,1.9284,1.8958,1.8895,1.8442,1.789,1.7287,1.6861,1.6609,1.6522,1.6622,1.6948,1.7388,1.7438,1.7752,1.8204,1.8204,1.8242,1.8279,1.8229,1.8267,1.8342,1.8292,1.794,1.7513,1.7476,1.7087,1.6773,1.73,1.7451,1.7451,1.7451,1.7827,1.8078,1.7576,1.7061,1.6672,1.6672,1.7074,1.7451,1.7451,1.7852,1.8216,1.8267,1.8242,1.8229,1.8267,1.8242,1.8204,1.8204,1.8204,1.8405,1.897,1.8581,1.8681,1.9698,1.9371,1.9296,1.9761,1.9798,1.9798,1.9798,1.9798,1.9798,1.9798,2.0363,2.0718,2.0718,2.0568,1.9594,1.7811,1.7108,1.6722,1.6722,1.6722,1.6378,1.581,1.7099,1.692,1.574,1.6989,1.7135,1.6652,1.7246,1.7523,1.7523,1.6877,1.6595,1.6482,2.1568,2.1493,2.1493,2.1493,2.1041,2.0718,2.0718,2.0175,1.9798,1.9798,1.9346,1.9183,1.9585,1.9271,1.9196,1.9597,1.9736,1.9798,1.9798,1.9698,1.9685,1.9798,1.9698,1.9685,1.9798,1.9698,1.9685,1.9798,1.9284,1.8807,1.838,1.8254,1.7664,1.6735,1.7501,1.735,1.6572,1.7463,1.7664,1.7426,1.7852,1.8103,1.8204,1.8204,1.848,1.8794,1.8355,1.8744,1.9397,1.8982,1.8769,1.8593,1.8166,1.794,1.7865,1.799,1.8028,1.8028,1.8028,1.8116,1.8179,1.8053,1.7928,1.784,1.784,1.794,1.8028,1.8028,1.8129,1.8342,1.8769,1.8493,1.8342,1.8781,1.848,1.8204,1.8204,1.8204,1.8405,1.897,1.892,1.9095,1.9748,1.9698,1.9673,1.9798,1.9798,1.9798,1.9798,1.9798,1.9798,1.9798,2.0363,2.0718,2.0718,2.1094,2.0783,1.9792,1.9032,1.8692,1.8692,1.8692,1.8633,1.8423,1.8337,1.8113,1.7794,1.7027,1.6978,1.7302,1.6922,1.709,1.7578,1.7413,1.7357,1.7246,2.2334,2.2272,2.2272,2.2272,2.182,2.1368,2.1104,2.0803,2.0514,2.025,1.9974,1.9911,2.0188,1.9723,1.951,1.9773,1.9798,1.9798,1.9798,2.0062,2.0087,1.9811,2.0075,2.0087,1.9811,1.9798,1.9798,1.9798,1.9522,1.9246,1.8957,1.8706,1.8279,1.7727,1.8053,1.7877,1.7363,1.7953,1.8191,1.8191,1.848,1.8744,1.897,1.897,1.9145,1.9359,1.907,1.9321,1.9761,1.9497,1.9058,1.8631,1.8606,1.8242,1.7915,1.8442,1.8593,1.8593,1.8593,1.8781,1.897,1.897,1.897,1.8832,1.8329,1.8405,1.8593,1.8593,1.8794,1.9058,1.9346,1.9384,1.9472,1.9761,1.9786,1.9773,1.9773,1.9547,1.9585,2.0137,1.9723,1.9497,1.9773,2.0049,2.0213,2.0213,2.0213,2.0326,2.0589,2.0602,2.0602,2.0602,2.1154,2.1443,2.1443,2.1995,2.2085,2.1651,2.0429,1.9831,1.9831,1.9831,1.947,1.8951,1.9619,1.9214,1.8081,1.8393,1.8343,1.8112,1.807,1.8328,1.8608,1.8221,1.7895,1.7523,2.3078,2.3078,2.3078,2.3078,2.2598,2.2046,2.1681,2.1468,2.1217,2.0853,2.0857,2.0857,2.0857,2.0376,2.0087,2.0087,2.0087,2.0087,2.0087,2.0539,2.0589,2.0112,2.0552,2.0539,1.9962,1.9949,1.9899,1.9798,1.9798,1.9761,1.966,1.9321,1.907,1.8869,1.8606,1.838,1.8216,1.8405,1.8694,1.8983,1.912,1.9409,1.9798,1.9798,1.9798,1.9798,1.9798,1.9798,1.9786,1.9698,1.9083,1.843,1.8882,1.8405,1.7865,1.8869,1.9158,1.9158,1.9158,1.9472,1.9798,1.9798,1.9798,1.9572,1.8681,1.8832,1.9196,1.9284,1.9648,1.9974,2.0075,2.0489,2.0857,2.0857,2.1192,2.1493,2.1493,2.1091,2.0978,2.143,2.0665,2.0087,2.0087,2.0526,2.0857,2.0857,2.0857,2.1004,2.1468,2.1493,2.1493,2.1493,2.202,2.2309,2.2309,2.2862,2.3078,2.3065,2.1589,2.0873,2.0873,2.0873,2.0226,1.9241,2.09,2.0353,1.8357,1.9885,1.9937,1.9059,1.946,1.9695,1.9747,1.9097,1.8572,1.8066,2.3078,2.3078,2.3078,2.3078,2.2284,2.1732,2.2133,2.1393,2.097,2.133,2.138,2.138,2.138,2.1305,2.1255,2.1255,2.1255,2.1255,2.1255,2.133,2.1343,2.1255,2.1343,2.1117,2.0618,2.0605,2.03,1.9798,1.9798,1.9572,1.9145,1.9522,1.9208,1.8355,1.9208,1.907,1.8267,1.9196,1.9371,1.9021,1.9522,1.9748,1.9798,1.9798,1.9798,1.9798,1.9798,1.9798,1.9736,1.9284,1.8983,1.8883,1.8958,1.8883,1.892,1.9522,1.9698,1.9698,1.9698,1.9748,1.9798,1.9798,1.9798,1.9761,1.9623,1.9648,1.9836,2.0338,2.0555,2.069,2.1167,2.133,2.138,2.138,2.1443,2.1493,2.1493,2.143,2.1405,2.1481,2.1355,2.1255,2.1255,2.133,2.138,2.138,2.138,2.1405,2.1493,2.1493,2.1493,2.1493,2.202,2.2309,2.2309,2.2862,2.3078,2.3078,2.2855,2.272,2.272,2.272,2.2362,2.1782,2.2043,2.1731,2.094,2.0079,1.9995,2.0329,1.9279,1.9254,1.9798,1.9695,2.0002,2.0244,2.3078,2.3078,2.3078,2.3078,2.2736,2.2385,2.2322,2.2159,2.202,2.1958,2.1945,2.1945,2.1945,2.1669,2.1493,2.1493,2.1493,2.1493,2.1493,2.1782,2.1807,2.1506,2.1782,2.1543,2.0743,2.0718,2.0376,1.9798,1.9798,1.9685,1.9459,1.9698,1.9547,1.912,1.9597,1.9547,1.9133,1.9597,1.9673,1.9484,1.971,1.9798,1.9798,1.9798,1.9798,1.9798,1.9798,1.9798,1.9761,1.9535,1.9271,1.9033,1.9371,1.9258,1.9133,1.9648,2.0037,2.0288,2.0288,2.0514,2.0815,2.1129,2.0966,2.074,2.074,2.074,2.0727,2.0731,2.097,2.1204,2.1443,2.1744,2.1945,2.1945,2.2209,2.241,2.241,2.2146,2.1832,2.1531,2.2033,2.2171,2.1543,2.1769,2.1945,2.1945,2.1945,2.2083,2.2397,2.241,2.241,2.241,2.2636,2.2774,2.2774,2.2952,2.3078,2.3078,2.3078,2.3078,2.3078,2.3078,2.2836,2.2334,2.2636,2.2284,2.1493,2.1205,2.0927,2.0665,2.0378,2.0271,2.0288,2.0288,2.0288,2.021]}]]